Time,TemperatureF,DewpointF,PressureIn,WindDirection,WindDirectionDegrees,WindSpeedMPH,WindSpeedGustMPH,Humidity,HourlyPrecipIn,Conditions,Clouds,dailyrainin,SolarRadiationWatts/m^2,SoftwareType,DateUTC
2013-03-30 00:00:00,72.6,29.6,29.50,SSW,200,3.8,4.6,20,-99.99,,,0.00,0,rob ver 1A,2013-03-30 07:00:00,
2013-03-30 00:01:00,70.1,34.1,29.47,SE,129,4.2,5.1,26,-99.99,,,0.00,0,rob ver 1B,2013-03-30 07:01:00,
2013-03-30 00:02:00,70.1,34.2,29.44,SE,124,4.3,5.4,26,-99.99,,,0.00,0,rob ver 1B,2013-03-30 07:02:00,
2013-03-30 00:03:00,70.0,34.2,29.44,ESE,118,4.4,5.5,26,-99.99,,,0.00,0,rob ver 1B,2013-03-30 07:03:00,
2013-03-30 00:04:00,70.0,34.1,29.44,ESE,105,3.0,4.5,26,-99.99,,,0.00,0,rob ver 1B,2013-03-30 07:04:00,
2013-03-30 00:05:00,72.6,29.4,29.50,SW,216,3.6,4.3,20,-99.99,,,0.00,0,rob ver 1A,2013-03-30 07:05:00,
2013-03-30 00:06:00,69.8,33.6,29.44,ENE,74,1.6,2.3,26,-99.99,,,0.00,0,rob ver 1B,2013-03-30 07:06:00,
2013-03-30 00:07:00,69.7,33.3,29.44,NE,52,2.1,3.0,26,-99.99,,,0.00,0,rob ver 1B,2013-03-30 07:07:00,
2013-03-30 00:08:00,69.6,33.3,29.44,NE,42,3.1,3.8,25,-99.99,,,0.00,0,rob ver 1B,2013-03-30 07:08:00,
2013-03-30 00:09:00,69.6,33.1,29.44,NE,45,3.1,3.8,25,-99.99,,,0.00,0,rob ver 1B,2013-03-30 07:09:00,
2013-03-30 00:10:00,72.5,29.2,29.50,West,276,2.9,3.7,19,-99.99,,,0.00,0,rob ver 1A,2013-03-30 07:10:00,
2013-03-30 00:11:00,69.4,33.2,29.44,NE,52,2.3,3.0,26,-99.99,,,0.00,0,rob ver 1B,2013-03-30 07:11:00,
2013-03-30 00:12:00,69.4,33.5,29.44,ENE,60,2.7,3.1,26,-99.99,,,0.00,0,rob ver 1B,2013-03-30 07:12:00,
2013-03-30 00:13:00,69.4,33.7,29.44,ENE,75,2.5,3.2,27,-99.99,,,0.00,0,rob ver 1B,2013-03-30 07:13:00,
2013-03-30 00:14:00,69.5,34.0,29.44,East,81,2.6,4.1,26,-99.99,,,0.00,0,rob ver 1B,2013-03-30 07:14:00,
2013-03-30 00:15:00,72.5,30.7,29.47,WNW,283,4.4,5.1,21,-99.99,,,0.00,0,rob ver 1A,2013-03-30 07:15:00,
2013-03-30 00:16:00,69.7,34.2,29.44,East,97,2.9,4.2,27,-99.99,,,0.00,0,rob ver 1B,2013-03-30 07:16:00,
2013-03-30 00:17:00,69.8,34.4,29.44,East,83,3.3,4.1,26,-99.99,,,0.00,0,rob ver 1B,2013-03-30 07:17:00,
2013-03-30 00:18:00,70.0,34.5,29.44,ESE,112,4.0,6.2,27,-99.99,,,0.00,0,rob ver 1B,2013-03-30 07:18:00,
2013-03-30 00:19:00,70.2,34.6,29.44,ESE,102,3.9,5.0,26,-99.99,,,0.00,0,rob ver 1B,2013-03-30 07:19:00,
2013-03-30 00:20:00,73.2,29.6,29.47,WSW,246,3.9,4.8,20,-99.99,,,0.00,0,rob ver 1A,2013-03-30 07:20:00,
2013-03-30 00:21:00,70.4,34.4,29.44,ESE,104,2.9,3.7,26,-99.99,,,0.00,0,rob ver 1B,2013-03-30 07:21:00,
2013-03-30 00:22:00,70.5,34.4,29.44,ESE,109,3.9,5.0,26,-99.99,,,0.00,0,rob ver 1B,2013-03-30 07:22:00,
2013-03-30 00:23:00,70.5,34.3,29.44,East,90,3.1,4.3,26,-99.99,,,0.00,0,rob ver 1B,2013-03-30 07:23:00,
2013-03-30 00:24:00,70.4,34.2,29.44,ESE,117,2.8,4.2,26,-99.99,,,0.00,0,rob ver 1B,2013-03-30 07:24:00,
2013-03-30 00:25:00,73.0,31.5,29.47,WSW,252,3.6,4.1,21,-99.99,,,0.00,0,rob ver 1A,2013-03-30 07:25:00,
2013-03-30 00:26:00,70.4,34.2,29.44,SE,140,2.8,4.8,26,-99.99,,,0.00,0,rob ver 1B,2013-03-30 07:26:00,
2013-03-30 00:27:00,70.4,34.1,29.44,SE,143,2.7,4.5,26,-99.99,,,0.00,0,rob ver 1B,2013-03-30 07:27:00,
2013-03-30 00:28:00,70.4,34.1,29.44,SE,131,2.4,3.9,26,-99.99,,,0.00,0,rob ver 1B,2013-03-30 07:28:00,
2013-03-30 00:29:00,70.3,34.0,29.44,SE,133,2.3,3.3,26,-99.99,,,0.00,0,rob ver 1B,2013-03-30 07:29:00,
2013-03-30 00:30:00,70.2,34.0,29.44,SE,124,1.1,2.0,26,-99.99,,,0.00,0,rob ver 1B,2013-03-30 07:30:00,
2013-03-30 00:31:00,72.4,31.0,29.47,WNW,284,2.9,3.6,21,-99.99,,,0.00,0,rob ver 1A,2013-03-30 07:31:00,
2013-03-30 00:32:00,70.1,34.1,29.44,ESE,123,1.3,2.1,26,-99.99,,,0.00,0,rob ver 1B,2013-03-30 07:32:00,
2013-03-30 00:33:00,70.1,34.1,29.44,East,81,1.4,1.9,26,-99.99,,,0.00,0,rob ver 1B,2013-03-30 07:33:00,
2013-03-30 00:34:00,70.1,34.0,29.44,ENE,59,0.7,1.3,26,-99.99,,,0.00,0,rob ver 1B,2013-03-30 07:34:00,
2013-03-30 00:35:00,70.0,34.0,29.44,ESE,107,1.5,2.2,26,-99.99,,,0.00,0,rob ver 1B,2013-03-30 07:35:00,
2013-03-30 00:36:00,71.5,34.3,29.47,NNW,327,4.8,5.6,25,-99.99,,,0.00,0,rob ver 1A,2013-03-30 07:36:00,
2013-03-30 00:37:00,69.9,34.0,29.44,ESE,108,1.2,1.9,26,-99.99,,,0.00,0,rob ver 1B,2013-03-30 07:37:00,
2013-03-30 00:38:00,69.8,33.9,29.44,SE,135,1.0,1.5,26,-99.99,,,0.00,0,rob ver 1B,2013-03-30 07:38:00,
2013-03-30 00:39:00,69.7,33.9,29.44,ESE,110,0.7,1.3,26,-99.99,,,0.00,0,rob ver 1B,2013-03-30 07:39:00,
2013-03-30 00:40:00,69.6,33.8,29.44,SE,144,1.0,2.2,26,-99.99,,,0.00,0,rob ver 1B,2013-03-30 07:40:00,
2013-03-30 00:41:00,71.6,33.7,29.47,NNW,344,3.2,4.0,24,-99.99,,,0.00,0,rob ver 1A,2013-03-30 07:41:00,
2013-03-30 00:42:00,69.5,33.9,29.44,South,183,1.7,2.4,26,-99.99,,,0.00,0,rob ver 1B,2013-03-30 07:42:00,
2013-03-30 00:43:00,69.5,33.8,29.44,South,174,1.5,2.9,26,-99.99,,,0.00,0,rob ver 1B,2013-03-30 07:43:00,
2013-03-30 00:44:00,69.5,33.8,29.44,South,191,2.1,2.9,26,-99.99,,,0.00,0,rob ver 1B,2013-03-30 07:44:00,
2013-03-30 00:45:00,69.4,33.7,29.44,South,187,2.6,3.5,26,-99.99,,,0.00,0,rob ver 1B,2013-03-30 07:45:00,
2013-03-30 00:46:00,71.7,32.8,29.47,NW,321,2.1,2.4,23,-99.99,,,0.00,0,rob ver 1A,2013-03-30 07:46:00,
2013-03-30 00:47:00,69.4,33.7,29.44,SSW,198,2.3,3.0,26,-99.99,,,0.00,0,rob ver 1B,2013-03-30 07:47:00,
2013-03-30 00:48:00,69.3,33.7,29.44,SSW,213,2.2,3.7,26,-99.99,,,0.00,0,rob ver 1B,2013-03-30 07:48:00,
2013-03-30 00:49:00,69.3,33.7,29.44,SW,218,2.2,3.4,26,-99.99,,,0.00,0,rob ver 1B,2013-03-30 07:49:00,
2013-03-30 00:50:00,69.4,33.6,29.44,SW,221,2.7,4.0,26,-99.99,,,0.00,0,rob ver 1B,2013-03-30 07:50:00,
2013-03-30 00:51:00,72.0,32.4,29.47,NNW,327,5.2,7.1,23,-99.99,,,0.00,0,rob ver 1A,2013-03-30 07:51:00,
2013-03-30 00:52:00,69.5,33.6,29.44,SW,230,2.2,3.0,26,-99.99,,,0.00,0,rob ver 1B,2013-03-30 07:52:00,
2013-03-30 00:53:00,69.5,33.6,29.44,SW,224,1.7,2.3,26,-99.99,,,0.00,0,rob ver 1B,2013-03-30 07:53:00,
2013-03-30 00:54:00,69.5,33.6,29.44,SW,219,1.4,1.9,26,-99.99,,,0.00,0,rob ver 1B,2013-03-30 07:54:00,
2013-03-30 00:55:00,69.5,33.6,29.44,SW,216,1.8,3.0,26,-99.99,,,0.00,0,rob ver 1B,2013-03-30 07:55:00,
2013-03-30 00:56:00,72.2,32.2,29.47,NNW,327,4.0,5.1,22,-99.99,,,0.00,0,rob ver 1A,2013-03-30 07:56:00,
2013-03-30 00:57:00,69.4,33.4,29.44,SSW,198,0.3,0.8,26,-99.99,,,0.00,0,rob ver 1B,2013-03-30 07:57:00,
2013-03-30 00:58:00,69.3,33.4,29.44,SSW,200,0.5,1.0,26,-99.99,,,0.00,0,rob ver 1B,2013-03-30 07:58:00,
2013-03-30 00:59:00,69.3,33.3,29.44,East,94,0.9,1.4,26,-99.99,,,0.00,0,rob ver 1B,2013-03-30 07:59:00,
2013-03-30 01:00:00,69.2,33.3,29.44,SE,131,0.9,1.2,26,-99.99,,,0.00,0,rob ver 1B,2013-03-30 08:00:00,
2013-03-30 01:01:00,72.1,32.4,29.47,WNW,296,2.1,2.6,23,-99.99,,,0.00,0,rob ver 1A,2013-03-30 08:01:00,
2013-03-30 01:02:00,69.2,33.2,29.44,ENE,72,2.7,3.1,26,-99.99,,,0.00,0,rob ver 1B,2013-03-30 08:02:00,
2013-03-30 01:03:00,69.0,33.2,29.44,East,82,2.6,3.9,26,-99.99,,,0.00,0,rob ver 1B,2013-03-30 08:03:00,
2013-03-30 01:04:00,68.9,33.2,29.44,ENE,74,2.9,3.4,26,-99.99,,,0.00,0,rob ver 1B,2013-03-30 08:04:00,
2013-03-30 01:05:00,68.9,33.2,29.44,ENE,76,2.8,3.5,26,-99.99,,,0.00,0,rob ver 1B,2013-03-30 08:05:00,
2013-03-30 01:06:00,71.8,32.9,29.47,NW,318,3.0,3.5,23,-99.99,,,0.00,0,rob ver 1A,2013-03-30 08:06:00,
2013-03-30 01:07:00,69.1,33.3,29.44,East,87,3.6,4.8,26,-99.99,,,0.00,0,rob ver 1B,2013-03-30 08:07:00,
2013-03-30 01:08:00,69.4,33.2,29.44,East,98,4.0,4.9,26,-99.99,,,0.00,0,rob ver 1B,2013-03-30 08:08:00,
2013-03-30 01:09:00,69.6,33.2,29.44,East,98,2.9,3.7,26,-99.99,,,0.00,0,rob ver 1B,2013-03-30 08:09:00,
2013-03-30 01:10:00,69.7,33.4,29.44,ESE,106,2.7,3.9,26,-99.99,,,0.00,0,rob ver 1B,2013-03-30 08:10:00,
2013-03-30 01:11:00,69.9,33.2,29.44,ESE,123,2.1,2.8,25,-99.99,,,0.00,0,rob ver 1B,2013-03-30 08:11:00,
2013-03-30 01:12:00,71.4,32.9,29.47,North,9,3.8,4.4,24,-99.99,,,0.00,0,rob ver 1A,2013-03-30 08:12:00,
2013-03-30 01:13:00,69.7,33.1,29.44,SE,140,2.3,2.8,25,-99.99,,,0.00,0,rob ver 1B,2013-03-30 08:13:00,
2013-03-30 01:14:00,69.8,33.2,29.44,SSE,149,2.8,4.0,25,-99.99,,,0.00,0,rob ver 1B,2013-03-30 08:14:00,
2013-03-30 01:15:00,69.9,33.3,29.44,SSE,154,2.4,3.4,25,-99.99,,,0.00,0,rob ver 1B,2013-03-30 08:15:00,
2013-03-30 01:16:00,69.9,33.2,29.44,SSE,149,2.5,3.6,25,-99.99,,,0.00,0,rob ver 1B,2013-03-30 08:16:00,
2013-03-30 01:17:00,71.6,32.6,29.47,NW,321,4.1,4.6,23,-99.99,,,0.00,0,rob ver 1A,2013-03-30 08:17:00,
2013-03-30 01:18:00,70.1,33.4,29.44,South,172,3.0,4.1,25,-99.99,,,0.00,0,rob ver 1B,2013-03-30 08:18:00,
2013-03-30 01:19:00,70.1,33.3,29.44,South,183,2.9,3.8,25,-99.99,,,0.00,0,rob ver 1B,2013-03-30 08:19:00,
2013-03-30 01:20:00,70.0,33.2,29.44,South,191,2.4,2.8,25,-99.99,,,0.00,0,rob ver 1B,2013-03-30 08:20:00,
2013-03-30 01:21:00,69.9,33.2,29.44,South,184,1.7,2.2,25,-99.99,,,0.00,0,rob ver 1B,2013-03-30 08:21:00,
2013-03-30 01:22:00,71.4,32.5,29.47,NW,321,3.1,4.0,23,-99.99,,,0.00,0,rob ver 1A,2013-03-30 08:22:00,
2013-03-30 01:23:00,69.9,33.2,29.44,South,175,1.7,2.0,25,-99.99,,,0.00,0,rob ver 1B,2013-03-30 08:23:00,
2013-03-30 01:24:00,69.8,33.2,29.44,South,176,1.4,2.0,26,-99.99,,,0.00,0,rob ver 1B,2013-03-30 08:24:00,
2013-03-30 01:25:00,69.8,33.4,29.44,South,172,1.9,2.3,25,-99.99,,,0.00,0,rob ver 1B,2013-03-30 08:25:00,
2013-03-30 01:26:00,69.9,33.5,29.44,South,172,1.7,2.5,26,-99.99,,,0.00,0,rob ver 1B,2013-03-30 08:26:00,
2013-03-30 01:27:00,71.2,31.8,29.47,NNW,342,4.0,4.6,23,-99.99,,,0.00,0,rob ver 1A,2013-03-30 08:27:00,
2013-03-30 01:28:00,69.9,33.4,29.44,SSE,148,1.3,2.2,25,-99.99,,,0.00,0,rob ver 1B,2013-03-30 08:28:00,
2013-03-30 01:29:00,69.9,33.4,29.44,SSE,150,1.8,2.8,25,-99.99,,,0.00,0,rob ver 1B,2013-03-30 08:29:00,
2013-03-30 01:30:00,69.9,33.3,29.44,SE,137,1.9,3.3,26,-99.99,,,0.00,0,rob ver 1B,2013-03-30 08:30:00,
2013-03-30 01:31:00,69.8,33.6,29.44,SE,146,2.8,3.7,26,-99.99,,,0.00,0,rob ver 1B,2013-03-30 08:31:00,
2013-03-30 01:32:00,71.4,31.5,29.47,NNW,335,2.4,2.7,22,-99.99,,,0.00,0,rob ver 1A,2013-03-30 08:32:00,
2013-03-30 01:33:00,70.0,33.6,29.44,East,101,1.9,2.4,25,-99.99,,,0.00,0,rob ver 1B,2013-03-30 08:33:00,
2013-03-30 01:34:00,70.0,33.5,29.44,ENE,76,1.6,2.0,25,-99.99,,,0.00,0,rob ver 1B,2013-03-30 08:34:00,
2013-03-30 01:35:00,69.9,33.4,29.44,ENE,71,2.1,3.1,25,-99.99,,,0.00,0,rob ver 1B,2013-03-30 08:35:00,
2013-03-30 01:36:00,69.8,33.3,29.44,NE,56,2.3,3.1,26,-99.99,,,0.00,0,rob ver 1B,2013-03-30 08:36:00,
2013-03-30 01:37:00,71.4,31.0,29.47,NNW,346,3.4,3.8,22,-99.99,,,0.00,0,rob ver 1A,2013-03-30 08:37:00,
2013-03-30 01:38:00,69.6,33.0,29.44,NE,48,3.0,3.4,25,-99.99,,,0.00,0,rob ver 1B,2013-03-30 08:38:00,
2013-03-30 01:39:00,69.5,33.1,29.44,NE,55,2.8,3.2,25,-99.99,,,0.00,0,rob ver 1B,2013-03-30 08:39:00,
2013-03-30 01:40:00,69.5,33.0,29.44,NE,51,2.8,3.1,26,-99.99,,,0.00,0,rob ver 1B,2013-03-30 08:40:00,
2013-03-30 01:41:00,69.4,33.3,29.44,NE,54,2.5,3.2,26,-99.99,,,0.00,0,rob ver 1B,2013-03-30 08:41:00,
2013-03-30 01:42:00,71.4,30.7,29.47,NNW,344,3.7,4.5,22,-99.99,,,0.00,0,rob ver 1A,2013-03-30 08:42:00,
2013-03-30 01:43:00,69.4,33.3,29.44,ENE,58,1.8,2.3,26,-99.99,,,0.00,0,rob ver 1B,2013-03-30 08:43:00,
2013-03-30 01:44:00,69.5,33.5,29.44,ENE,57,1.6,2.0,26,-99.99,,,0.00,0,rob ver 1B,2013-03-30 08:44:00,
2013-03-30 01:45:00,69.6,33.2,29.44,NE,55,1.3,1.7,25,-99.99,,,0.00,0,rob ver 1B,2013-03-30 08:45:00,
2013-03-30 01:46:00,69.6,33.5,29.44,ENE,57,0.9,1.4,26,-99.99,,,0.00,0,rob ver 1B,2013-03-30 08:46:00,
2013-03-30 01:47:00,71.8,29.5,29.47,North,6,3.8,4.1,20,-99.99,,,0.00,0,rob ver 1A,2013-03-30 08:47:00,
2013-03-30 01:48:00,69.6,33.4,29.44,ESE,107,0.3,0.8,26,-99.99,,,0.00,0,rob ver 1B,2013-03-30 08:48:00,
2013-03-30 01:49:00,69.7,33.3,29.44,WSW,250,0.3,0.8,25,-99.99,,,0.00,0,rob ver 1B,2013-03-30 08:49:00,
2013-03-30 01:50:00,69.6,33.1,29.44,SSW,197,0.3,0.9,25,-99.99,,,0.00,0,rob ver 1B,2013-03-30 08:50:00,
2013-03-30 01:51:00,69.5,33.5,29.44,South,191,0.9,1.5,26,-99.99,,,0.00,0,rob ver 1B,2013-03-30 08:51:00,
2013-03-30 01:52:00,69.5,33.5,29.44,SW,216,1.4,2.6,26,-99.99,,,0.00,0,rob ver 1B,2013-03-30 08:52:00,
2013-03-30 01:53:00,71.9,29.4,29.47,NNW,342,2.2,2.6,20,-99.99,,,0.00,0,rob ver 1A,2013-03-30 08:53:00,
2013-03-30 01:54:00,69.5,34.0,29.44,SSW,197,1.9,2.3,27,-99.99,,,0.00,0,rob ver 1B,2013-03-30 08:54:00,
2013-03-30 01:55:00,69.6,34.2,29.44,SSW,204,1.9,2.5,27,-99.99,,,0.00,0,rob ver 1B,2013-03-30 08:55:00,
2013-03-30 01:56:00,69.7,34.2,29.44,SSW,193,2.3,2.7,26,-99.99,,,0.00,0,rob ver 1B,2013-03-30 08:56:00,
2013-03-30 01:57:00,69.8,34.2,29.44,SSW,196,2.3,2.9,26,-99.99,,,0.00,0,rob ver 1B,2013-03-30 08:57:00,
2013-03-30 01:58:00,72.0,29.2,29.47,NNW,342,3.7,4.0,20,-99.99,,,0.00,0,rob ver 1A,2013-03-30 08:58:00,
2013-03-30 01:59:00,69.9,34.2,29.44,SSE,166,2.4,3.2,26,-99.99,,,0.00,0,rob ver 1B,2013-03-30 08:59:00,
2013-03-30 02:00:00,69.8,34.2,29.44,SSE,165,2.4,2.9,26,-99.99,,,0.00,0,rob ver 1B,2013-03-30 09:00:00,
2013-03-30 02:01:00,69.7,33.7,29.44,SSE,166,2.1,2.5,26,-99.99,,,0.00,0,rob ver 1B,2013-03-30 09:01:00,
2013-03-30 02:02:00,69.5,33.5,29.44,SE,139,2.1,2.4,26,-99.99,,,0.00,0,rob ver 1B,2013-03-30 09:02:00,
2013-03-30 02:03:00,71.8,28.7,29.47,NNW,337,3.6,4.1,20,-99.99,,,0.00,0,rob ver 1A,2013-03-30 09:03:00,
2013-03-30 02:04:00,69.2,33.9,29.44,SE,139,2.3,2.8,27,-99.99,,,0.00,0,rob ver 1B,2013-03-30 09:04:00,
2013-03-30 02:05:00,69.2,34.0,29.44,SE,128,1.9,2.3,27,-99.99,,,0.00,0,rob ver 1B,2013-03-30 09:05:00,
2013-03-30 02:06:00,69.3,34.0,29.44,ESE,110,1.8,2.3,27,-99.99,,,0.00,0,rob ver 1B,2013-03-30 09:06:00,
2013-03-30 02:07:00,69.3,33.9,29.44,ESE,103,1.5,2.0,26,-99.99,,,0.00,0,rob ver 1B,2013-03-30 09:07:00,
2013-03-30 02:08:00,71.9,28.4,29.47,NNW,333,4.0,4.4,19,-99.99,,,0.00,0,rob ver 1A,2013-03-30 09:08:00,
2013-03-30 02:09:00,69.4,33.8,29.44,East,90,1.7,2.2,26,-99.99,,,0.00,0,rob ver 1B,2013-03-30 09:09:00,
2013-03-30 02:10:00,69.3,33.4,29.44,East,95,1.7,2.1,26,-99.99,,,0.00,0,rob ver 1B,2013-03-30 09:10:00,
2013-03-30 02:11:00,69.2,33.3,29.44,East,84,1.7,2.1,26,-99.99,,,0.00,0,rob ver 1B,2013-03-30 09:11:00,
2013-03-30 02:12:00,69.1,33.6,29.44,East,97,1.7,2.2,27,-99.99,,,0.00,0,rob ver 1B,2013-03-30 09:12:00,
2013-03-30 02:13:00,72.3,28.2,29.47,NW,304,3.1,3.6,19,-99.99,,,0.00,0,rob ver 1A,2013-03-30 09:13:00,
2013-03-30 02:14:00,69.1,33.7,29.44,ESE,102,2.1,2.6,26,-99.99,,,0.00,0,rob ver 1B,2013-03-30 09:14:00,
2013-03-30 02:15:00,69.1,33.6,29.44,ESE,111,2.3,2.8,26,-99.99,,,0.00,0,rob ver 1B,2013-03-30 09:15:00,
2013-03-30 02:16:00,69.1,33.7,29.44,ESE,115,2.5,3.1,26,-99.99,,,0.00,0,rob ver 1B,2013-03-30 09:16:00,
2013-03-30 02:17:00,69.2,33.6,29.44,ESE,119,2.3,2.7,26,-99.99,,,0.00,0,rob ver 1B,2013-03-30 09:17:00,
2013-03-30 02:18:00,71.6,28.4,29.47,WSW,250,4.6,5.5,20,-99.99,,,0.00,0,rob ver 1A,2013-03-30 09:18:00,
2013-03-30 02:19:00,68.9,33.3,29.44,SE,133,1.7,3.0,26,-99.99,,,0.00,0,rob ver 1B,2013-03-30 09:19:00,
2013-03-30 02:20:00,68.8,33.3,29.44,SE,131,1.7,2.1,26,-99.99,,,0.00,0,rob ver 1B,2013-03-30 09:20:00,
2013-03-30 02:21:00,68.7,33.2,29.44,SE,136,2.1,2.5,27,-99.99,,,0.00,0,rob ver 1B,2013-03-30 09:21:00,
2013-03-30 02:22:00,68.6,33.4,29.44,SE,135,2.3,2.6,26,-99.99,,,0.00,0,rob ver 1B,2013-03-30 09:22:00,
2013-03-30 02:23:00,70.5,29.6,29.47,WNW,282,2.2,2.4,21,-99.99,,,0.00,0,rob ver 1A,2013-03-30 09:23:00,
2013-03-30 02:24:00,68.3,32.7,29.44,SE,142,2.8,3.3,26,-99.99,,,0.00,0,rob ver 1B,2013-03-30 09:24:00,
2013-03-30 02:25:00,68.1,33.0,29.44,SSE,152,3.2,3.4,27,-99.99,,,0.00,0,rob ver 1B,2013-03-30 09:25:00,
2013-03-30 02:26:00,68.2,33.8,29.44,SSE,158,3.4,3.6,27,-99.99,,,0.00,0,rob ver 1B,2013-03-30 09:26:00,
2013-03-30 02:27:00,68.5,34.4,29.44,SSE,159,3.3,3.6,28,-99.99,,,0.00,0,rob ver 1B,2013-03-30 09:27:00,
2013-03-30 02:28:00,70.3,29.5,29.47,NNW,335,0.6,0.7,21,-99.99,,,0.00,0,rob ver 1A,2013-03-30 09:28:00,
2013-03-30 02:29:00,68.8,34.0,29.44,SSE,154,3.5,4.2,27,-99.99,,,0.00,0,rob ver 1B,2013-03-30 09:29:00,
2013-03-30 02:30:00,68.7,33.5,29.44,SSE,153,3.5,3.8,26,-99.99,,,0.00,0,rob ver 1B,2013-03-30 09:30:00,
2013-03-30 02:31:00,68.4,33.3,29.44,SSE,154,4.5,4.9,27,-99.99,,,0.00,0,rob ver 1B,2013-03-30 09:31:00,
2013-03-30 02:32:00,68.3,33.9,29.44,SSE,153,4.8,4.9,28,-99.99,,,0.00,0,rob ver 1B,2013-03-30 09:32:00,
2013-03-30 02:33:00,68.4,34.0,29.44,SSE,155,4.3,4.6,28,-99.99,,,0.00,0,rob ver 1B,2013-03-30 09:33:00,
2013-03-30 02:34:00,70.3,29.0,29.47,NE,54,3.9,5.3,21,-99.99,,,0.00,0,rob ver 1A,2013-03-30 09:34:00,
2013-03-30 02:35:00,68.3,33.7,29.44,SSE,153,3.7,3.9,27,-99.99,,,0.00,0,rob ver 1B,2013-03-30 09:35:00,
2013-03-30 02:36:00,68.1,33.5,29.44,SSE,149,3.5,3.8,27,-99.99,,,0.00,0,rob ver 1B,2013-03-30 09:36:00,
2013-03-30 02:37:00,67.9,33.3,29.44,SSE,147,3.2,3.7,27,-99.99,,,0.00,0,rob ver 1B,2013-03-30 09:37:00,
2013-03-30 02:38:00,67.6,33.2,29.44,SE,146,3.7,4.1,27,-99.99,,,0.00,0,rob ver 1B,2013-03-30 09:38:00,
2013-03-30 02:39:00,70.7,28.3,29.47,ENE,69,0.9,2.0,20,-99.99,,,0.00,0,rob ver 1A,2013-03-30 09:39:00,
2013-03-30 02:40:00,67.4,33.4,29.44,SSE,147,4.1,4.9,28,-99.99,,,0.00,0,rob ver 1B,2013-03-30 09:40:00,
2013-03-30 02:41:00,67.4,33.7,29.44,SSE,150,4.2,4.4,28,-99.99,,,0.00,0,rob ver 1B,2013-03-30 09:41:00,
2013-03-30 02:42:00,67.6,34.1,29.44,SE,146,4.1,4.4,28,-99.99,,,0.00,0,rob ver 1B,2013-03-30 09:42:00,
2013-03-30 02:43:00,67.7,34.1,29.44,SE,144,3.8,4.1,28,-99.99,,,0.00,0,rob ver 1B,2013-03-30 09:43:00,
2013-03-30 02:44:00,70.8,28.1,29.47,NNW,336,0.4,0.7,20,-99.99,,,0.00,0,rob ver 1A,2013-03-30 09:44:00,
2013-03-30 02:45:00,67.7,34.0,29.44,SE,141,3.5,3.9,28,-99.99,,,0.00,0,rob ver 1B,2013-03-30 09:45:00,
2013-03-30 02:46:00,67.7,34.1,29.44,SE,136,3.4,3.6,28,-99.99,,,0.00,0,rob ver 1B,2013-03-30 09:46:00,
2013-03-30 02:47:00,67.8,34.2,29.44,SE,129,3.2,3.3,28,-99.99,,,0.00,0,rob ver 1B,2013-03-30 09:47:00,
2013-03-30 02:48:00,67.9,34.4,29.44,SE,128,2.8,3.2,28,-99.99,,,0.00,0,rob ver 1B,2013-03-30 09:48:00,
2013-03-30 02:49:00,71.6,28.0,29.47,NNE,31,4.4,4.6,19,-99.99,,,0.00,0,rob ver 1A,2013-03-30 09:49:00,
2013-03-30 02:50:00,67.9,34.3,29.44,ESE,106,2.0,2.6,28,-99.99,,,0.00,0,rob ver 1B,2013-03-30 09:50:00,
2013-03-30 02:51:00,67.8,34.2,29.44,East,92,2.3,2.9,28,-99.99,,,0.00,0,rob ver 1B,2013-03-30 09:51:00,
2013-03-30 02:52:00,67.7,34.0,29.44,East,91,2.6,3.5,28,-99.99,,,0.00,0,rob ver 1B,2013-03-30 09:52:00,
2013-03-30 02:53:00,67.7,34.1,29.44,ESE,104,2.7,3.3,28,-99.99,,,0.00,0,rob ver 1B,2013-03-30 09:53:00,
2013-03-30 02:54:00,70.9,28.1,29.47,ENE,76,2.9,3.4,20,-99.99,,,0.00,0,rob ver 1A,2013-03-30 09:54:00,
2013-03-30 02:55:00,67.4,33.8,29.44,East,92,2.9,3.4,28,-99.99,,,0.00,0,rob ver 1B,2013-03-30 09:55:00,
2013-03-30 02:56:00,67.3,33.9,29.44,East,96,2.8,3.4,28,-99.99,,,0.00,0,rob ver 1B,2013-03-30 09:56:00,
2013-03-30 02:57:00,67.3,34.1,29.44,East,99,2.8,3.4,29,-99.99,,,0.00,0,rob ver 1B,2013-03-30 09:57:00,
2013-03-30 02:58:00,67.4,34.0,29.44,East,94,2.9,3.4,28,-99.99,,,0.00,0,rob ver 1B,2013-03-30 09:58:00,
2013-03-30 02:59:00,71.6,28.0,29.47,NW,318,3.9,4.1,19,-99.99,,,0.00,0,rob ver 1A,2013-03-30 09:59:00,
2013-03-30 03:00:00,67.4,33.9,29.44,ESE,110,2.8,3.6,28,-99.99,,,0.00,0,rob ver 1B,2013-03-30 10:00:00,
2013-03-30 03:01:00,67.2,33.9,29.44,ESE,107,3.1,3.5,28,-99.99,,,0.00,0,rob ver 1B,2013-03-30 10:01:00,
2013-03-30 03:02:00,67.1,33.7,29.44,ESE,113,3.1,3.4,29,-99.99,,,0.00,0,rob ver 1B,2013-03-30 10:02:00,
2013-03-30 03:03:00,67.0,34.0,29.44,ESE,116,3.3,3.7,29,-99.99,,,0.00,0,rob ver 1B,2013-03-30 10:03:00,
2013-03-30 03:04:00,67.2,34.2,29.44,ESE,116,3.2,3.4,29,-99.99,,,0.00,0,rob ver 1B,2013-03-30 10:04:00,
2013-03-30 03:05:00,71.4,28.0,29.47,North,350,0.9,1.4,19,-99.99,,,0.00,0,rob ver 1A,2013-03-30 10:05:00,
2013-03-30 03:06:00,67.2,34.1,29.44,ESE,120,3.4,4.0,29,-99.99,,,0.00,0,rob ver 1B,2013-03-30 10:06:00,
2013-03-30 03:07:00,67.1,34.1,29.44,ESE,117,3.4,3.9,29,-99.99,,,0.00,0,rob ver 1B,2013-03-30 10:07:00,
2013-03-30 03:08:00,67.0,34.0,29.44,ESE,116,3.3,3.8,29,-99.99,,,0.00,0,rob ver 1B,2013-03-30 10:08:00,
2013-03-30 03:09:00,66.9,34.0,29.44,ESE,114,3.3,3.9,29,-99.99,,,0.00,0,rob ver 1B,2013-03-30 10:09:00,
2013-03-30 03:10:00,71.0,28.1,29.47,ESE,107,1.8,2.4,20,-99.99,,,0.00,0,rob ver 1A,2013-03-30 10:10:00,
2013-03-30 03:11:00,66.8,34.0,29.44,East,89,2.9,3.4,29,-99.99,,,0.00,0,rob ver 1B,2013-03-30 10:11:00,
2013-03-30 03:12:00,66.7,33.3,29.44,ENE,64,3.1,3.7,28,-99.99,,,0.00,0,rob ver 1B,2013-03-30 10:12:00,
2013-03-30 03:13:00,66.4,32.9,29.44,NE,53,3.6,4.0,28,-99.99,,,0.00,0,rob ver 1B,2013-03-30 10:13:00,
2013-03-30 03:14:00,66.1,32.7,29.44,NE,54,4.0,4.5,29,-99.99,,,0.00,0,rob ver 1B,2013-03-30 10:14:00,
2013-03-30 03:15:00,70.7,28.4,29.47,SE,126,2.6,2.8,20,-99.99,,,0.00,0,rob ver 1A,2013-03-30 10:15:00,
2013-03-30 03:16:00,65.8,33.2,29.44,NE,49,3.5,4.3,29,-99.99,,,0.00,0,rob ver 1B,2013-03-30 10:16:00,
2013-03-30 03:17:00,65.9,33.2,29.41,NE,48,3.6,4.2,29,-99.99,,,0.00,0,rob ver 1B,2013-03-30 10:17:00,
2013-03-30 03:18:00,65.9,33.3,29.41,NE,54,2.7,3.2,29,-99.99,,,0.00,0,rob ver 1B,2013-03-30 10:18:00,
2013-03-30 03:19:00,66.0,34.0,29.44,ENE,69,3.2,5.0,30,-99.99,,,0.00,0,rob ver 1B,2013-03-30 10:19:00,
2013-03-30 03:20:00,70.6,28.4,29.47,South,184,1.2,1.4,20,-99.99,,,0.00,0,rob ver 1A,2013-03-30 10:20:00,
2013-03-30 03:21:00,66.8,35.2,29.41,East,84,3.8,5.1,30,-99.99,,,0.00,0,rob ver 1B,2013-03-30 10:21:00,
2013-03-30 03:22:00,67.4,35.1,29.41,East,92,4.1,5.3,30,-99.99,,,0.00,0,rob ver 1B,2013-03-30 10:22:00,
2013-03-30 03:23:00,67.7,35.8,29.41,East,100,4.7,6.0,30,-99.99,,,0.00,0,rob ver 1B,2013-03-30 10:23:00,
2013-03-30 03:24:00,68.1,35.5,29.41,ESE,111,4.0,5.7,29,-99.99,,,0.00,0,rob ver 1B,2013-03-30 10:24:00,
2013-03-30 03:25:00,70.3,28.5,29.47,SW,215,1.9,2.1,21,-99.99,,,0.00,0,rob ver 1A,2013-03-30 10:25:00,
2013-03-30 03:26:00,68.0,35.1,29.41,ESE,122,3.7,4.3,29,-99.99,,,0.00,0,rob ver 1B,2013-03-30 10:26:00,
2013-03-30 03:27:00,68.0,35.3,29.41,ESE,118,3.7,4.2,29,-99.99,,,0.00,0,rob ver 1B,2013-03-30 10:27:00,
2013-03-30 03:28:00,68.0,35.3,29.41,SE,124,3.7,4.4,29,-99.99,,,0.00,0,rob ver 1B,2013-03-30 10:28:00,
2013-03-30 03:29:00,67.9,35.0,29.41,SE,125,3.6,4.2,29,-99.99,,,0.00,0,rob ver 1B,2013-03-30 10:29:00,
2013-03-30 03:30:00,69.7,28.7,29.47,NNE,15,1.0,1.2,21,-99.99,,,0.00,0,rob ver 1A,2013-03-30 10:30:00,
2013-03-30 03:31:00,67.9,35.1,29.41,SE,125,3.3,4.2,29,-99.99,,,0.00,0,rob ver 1B,2013-03-30 10:31:00,
2013-03-30 03:32:00,67.9,35.0,29.41,SE,128,3.3,3.9,29,-99.99,,,0.00,0,rob ver 1B,2013-03-30 10:32:00,
2013-03-30 03:33:00,67.8,34.8,29.41,SE,131,3.1,3.7,29,-99.99,,,0.00,0,rob ver 1B,2013-03-30 10:33:00,
2013-03-30 03:34:00,67.6,34.5,29.41,SE,129,2.8,3.4,29,-99.99,,,0.00,0,rob ver 1B,2013-03-30 10:34:00,
2013-03-30 03:35:00,69.8,28.8,29.47,ENE,74,4.5,5.4,21,-99.99,,,0.00,0,rob ver 1A,2013-03-30 10:35:00,
2013-03-30 03:36:00,67.3,34.5,29.41,ESE,117,3.0,3.2,29,-99.99,,,0.00,0,rob ver 1B,2013-03-30 10:36:00,
2013-03-30 03:37:00,67.2,34.5,29.41,ESE,112,3.0,3.3,29,-99.99,,,0.00,0,rob ver 1B,2013-03-30 10:37:00,
2013-03-30 03:38:00,67.2,34.4,29.41,East,100,3.2,3.5,29,-99.99,,,0.00,0,rob ver 1B,2013-03-30 10:38:00,
2013-03-30 03:39:00,67.2,34.4,29.41,East,89,2.6,3.0,29,-99.99,,,0.00,0,rob ver 1B,2013-03-30 10:39:00,
2013-03-30 03:40:00,69.9,28.5,29.47,East,94,1.2,1.6,21,-99.99,,,0.00,0,rob ver 1A,2013-03-30 10:40:00,
2013-03-30 03:41:00,67.1,34.2,29.41,East,82,3.3,3.5,29,-99.99,,,0.00,0,rob ver 1B,2013-03-30 10:41:00,
2013-03-30 03:42:00,67.0,34.0,29.41,ENE,74,3.3,3.7,29,-99.99,,,0.00,0,rob ver 1B,2013-03-30 10:42:00,
2013-03-30 03:43:00,66.9,34.0,29.41,ENE,75,3.2,3.6,29,-99.99,,,0.00,0,rob ver 1B,2013-03-30 10:43:00,
2013-03-30 03:44:00,66.8,33.9,29.41,ENE,68,3.0,3.6,29,-99.99,,,0.00,0,rob ver 1B,2013-03-30 10:44:00,
2013-03-30 03:45:00,69.8,28.6,29.47,East,85,1.8,2.6,21,-99.99,,,0.00,0,rob ver 1A,2013-03-30 10:45:00,
2013-03-30 03:46:00,66.5,33.9,29.41,ENE,71,3.2,3.7,29,-99.99,,,0.00,0,rob ver 1B,2013-03-30 10:46:00,
2013-03-30 03:47:00,66.4,34.1,29.41,ENE,66,3.2,3.7,29,-99.99,,,0.00,0,rob ver 1B,2013-03-30 10:47:00,
2013-03-30 03:48:00,66.4,34.0,29.41,ENE,60,3.2,3.9,29,-99.99,,,0.00,0,rob ver 1B,2013-03-30 10:48:00,
2013-03-30 03:49:00,66.4,34.0,29.41,NE,52,3.4,3.9,29,-99.99,,,0.00,0,rob ver 1B,2013-03-30 10:49:00,
2013-03-30 03:50:00,69.5,28.8,29.47,ENE,57,3.1,3.9,21,-99.99,,,0.00,0,rob ver 1A,2013-03-30 10:50:00,
2013-03-30 03:51:00,66.1,33.9,29.41,NE,52,3.3,3.7,30,-99.99,,,0.00,0,rob ver 1B,2013-03-30 10:51:00,
2013-03-30 03:52:00,66.0,34.1,29.41,ENE,57,3.1,3.5,30,-99.99,,,0.00,0,rob ver 1B,2013-03-30 10:52:00,
2013-03-30 03:53:00,66.1,34.1,29.41,ENE,59,3.1,3.7,30,-99.99,,,0.00,0,rob ver 1B,2013-03-30 10:53:00,
2013-03-30 03:54:00,66.1,34.1,29.41,NE,56,3.4,3.8,30,-99.99,,,0.00,0,rob ver 1B,2013-03-30 10:54:00,
2013-03-30 03:55:00,69.7,28.7,29.47,NNE,21,2.0,2.4,21,-99.99,,,0.00,0,rob ver 1A,2013-03-30 10:55:00,
2013-03-30 03:56:00,66.1,33.9,29.41,ENE,63,3.1,3.8,30,-99.99,,,0.00,0,rob ver 1B,2013-03-30 10:56:00,
2013-03-30 03:57:00,65.9,33.9,29.41,East,82,3.3,4.0,30,-99.99,,,0.00,0,rob ver 1B,2013-03-30 10:57:00,
2013-03-30 03:58:00,65.9,34.3,29.41,East,84,3.5,3.9,30,-99.99,,,0.00,0,rob ver 1B,2013-03-30 10:58:00,
2013-03-30 03:59:00,66.1,34.2,29.41,East,79,3.7,4.4,30,-99.99,,,0.00,0,rob ver 1B,2013-03-30 10:59:00,
2013-03-30 04:00:00,70.0,28.8,29.44,NNE,30,4.7,5.3,21,-99.99,,,0.00,0,rob ver 1A,2013-03-30 11:00:00,
2013-03-30 04:01:00,66.2,34.2,29.41,East,79,3.9,4.1,30,-99.99,,,0.00,0,rob ver 1B,2013-03-30 11:01:00,
2013-03-30 04:02:00,66.2,34.0,29.41,ENE,76,4.0,4.3,30,-99.99,,,0.00,0,rob ver 1B,2013-03-30 11:02:00,
2013-03-30 04:03:00,66.1,33.9,29.41,ENE,77,3.7,4.0,30,-99.99,,,0.00,0,rob ver 1B,2013-03-30 11:03:00,
2013-03-30 04:04:00,65.9,33.7,29.41,ENE,74,3.7,4.1,30,-99.99,,,0.00,0,rob ver 1B,2013-03-30 11:04:00,
2013-03-30 04:05:00,65.7,33.5,29.41,ENE,66,3.3,3.9,30,-99.99,,,0.00,0,rob ver 1B,2013-03-30 11:05:00,
2013-03-30 04:06:00,70.4,28.8,29.44,NNE,16,2.8,3.5,21,-99.99,,,0.00,0,rob ver 1A,2013-03-30 11:06:00,
2013-03-30 04:07:00,65.3,33.4,29.41,NE,53,3.8,4.2,30,-99.99,,,0.00,0,rob ver 1B,2013-03-30 11:07:00,
2013-03-30 04:08:00,65.1,33.1,29.41,NE,47,4.0,4.5,30,-99.99,,,0.00,0,rob ver 1B,2013-03-30 11:08:00,
2013-03-30 04:09:00,64.8,33.1,29.41,NE,51,3.7,4.5,30,-99.99,,,0.00,0,rob ver 1B,2013-03-30 11:09:00,
2013-03-30 04:10:00,64.6,33.0,29.41,NE,54,4.0,4.4,30,-99.99,,,0.00,0,rob ver 1B,2013-03-30 11:10:00,
2013-03-30 04:11:00,70.3,28.9,29.47,East,84,2.1,2.4,21,-99.99,,,0.00,0,rob ver 1A,2013-03-30 11:11:00,
2013-03-30 04:12:00,64.4,33.3,29.41,NE,56,3.6,4.4,30,-99.99,,,0.00,0,rob ver 1B,2013-03-30 11:12:00,
2013-03-30 04:13:00,64.4,33.1,29.41,ENE,57,3.6,4.5,30,-99.99,,,0.00,0,rob ver 1B,2013-03-30 11:13:00,
2013-03-30 04:14:00,64.4,33.1,29.41,NE,56,3.5,4.1,31,-99.99,,,0.00,0,rob ver 1B,2013-03-30 11:14:00,
2013-03-30 04:15:00,64.3,33.3,29.41,NE,53,3.9,4.3,31,-99.99,,,0.00,0,rob ver 1B,2013-03-30 11:15:00,
2013-03-30 04:16:00,70.1,28.9,29.44,ENE,58,3.2,4.1,21,-99.99,,,0.00,0,rob ver 1A,2013-03-30 11:16:00,
2013-03-30 04:17:00,64.5,33.6,29.41,NE,54,2.9,4.0,31,-99.99,,,0.00,0,rob ver 1B,2013-03-30 11:17:00,
2013-03-30 04:18:00,64.6,33.3,29.41,ENE,72,2.5,3.7,31,-99.99,,,0.00,0,rob ver 1B,2013-03-30 11:18:00,
2013-03-30 04:19:00,64.5,33.3,29.41,ENE,77,3.3,4.5,32,-99.99,,,0.00,0,rob ver 1B,2013-03-30 11:19:00,
2013-03-30 04:20:00,64.7,34.4,29.41,ENE,63,4.1,5.7,31,-99.99,,,0.00,0,rob ver 1B,2013-03-30 11:20:00,
2013-03-30 04:21:00,70.1,28.8,29.47,ENE,58,3.5,4.0,21,-99.99,,,0.00,0,rob ver 1A,2013-03-30 11:21:00,
2013-03-30 04:22:00,65.5,34.4,29.41,ENE,68,3.6,4.6,31,-99.99,,,0.00,0,rob ver 1B,2013-03-30 11:22:00,
2013-03-30 04:23:00,65.7,34.3,29.41,ENE,67,3.1,4.1,30,-99.99,,,0.00,0,rob ver 1B,2013-03-30 11:23:00,
2013-03-30 04:24:00,65.7,34.0,29.41,ENE,65,3.0,3.6,30,-99.99,,,0.00,0,rob ver 1B,2013-03-30 11:24:00,
2013-03-30 04:25:00,65.6,33.9,29.41,NE,55,3.4,3.9,30,-99.99,,,0.00,0,rob ver 1B,2013-03-30 11:25:00,
2013-03-30 04:26:00,69.9,28.9,29.47,East,92,2.4,3.1,21,-99.99,,,0.00,0,rob ver 1A,2013-03-30 11:26:00,
2013-03-30 04:27:00,65.4,33.8,29.41,NE,56,2.8,3.3,30,-99.99,,,0.00,0,rob ver 1B,2013-03-30 11:27:00,
2013-03-30 04:28:00,65.2,33.6,29.41,NE,52,2.6,3.2,31,-99.99,,,0.00,0,rob ver 1B,2013-03-30 11:28:00,
2013-03-30 04:29:00,65.1,33.9,29.41,NE,43,3.0,3.6,31,-99.99,,,0.00,0,rob ver 1B,2013-03-30 11:29:00,
2013-03-30 04:30:00,65.1,34.0,29.41,NE,46,2.9,3.6,31,-99.99,,,0.00,0,rob ver 1B,2013-03-30 11:30:00,
2013-03-30 04:31:00,69.5,28.8,29.44,ENE,66,3.8,4.8,21,-99.99,,,0.00,0,rob ver 1A,2013-03-30 11:31:00,
2013-03-30 04:32:00,65.1,33.9,29.41,NE,47,2.8,3.5,31,-99.99,,,0.00,0,rob ver 1B,2013-03-30 11:32:00,
2013-03-30 04:33:00,65.1,33.7,29.41,NE,38,2.6,3.0,30,-99.99,,,0.00,0,rob ver 1B,2013-03-30 11:33:00,
2013-03-30 04:34:00,65.1,34.0,29.41,NE,42,2.8,3.1,31,-99.99,,,0.00,0,rob ver 1B,2013-03-30 11:34:00,
2013-03-30 04:35:00,65.1,34.2,29.41,NE,43,3.0,3.4,31,-99.99,,,0.00,0,rob ver 1B,2013-03-30 11:35:00,
2013-03-30 04:36:00,69.4,29.0,29.47,East,89,2.7,3.0,21,-99.99,,,0.00,0,rob ver 1A,2013-03-30 11:36:00,
2013-03-30 04:37:00,65.3,34.2,29.41,NE,43,2.7,3.0,31,-99.99,,,0.00,0,rob ver 1B,2013-03-30 11:37:00,
2013-03-30 04:38:00,65.3,34.1,29.41,NE,42,2.5,2.8,31,-99.99,,,0.00,0,rob ver 1B,2013-03-30 11:38:00,
2013-03-30 04:39:00,65.4,34.6,29.41,NE,45,2.3,2.7,32,-99.99,,,0.00,0,rob ver 1B,2013-03-30 11:39:00,
2013-03-30 04:40:00,65.6,35.2,29.41,NE,46,1.9,2.3,32,-99.99,,,0.00,0,rob ver 1B,2013-03-30 11:40:00,
2013-03-30 04:41:00,69.4,29.1,29.47,East,92,1.5,1.8,22,-99.99,,,0.00,0,rob ver 1A,2013-03-30 11:41:00,
2013-03-30 04:42:00,66.3,35.1,29.41,NE,39,1.6,1.9,31,-99.99,,,0.00,0,rob ver 1B,2013-03-30 11:42:00,
2013-03-30 04:43:00,66.5,35.2,29.41,NE,36,1.6,1.8,30,-99.99,,,0.00,0,rob ver 1B,2013-03-30 11:43:00,
2013-03-30 04:44:00,66.7,34.4,29.41,NNE,15,1.9,2.3,29,-99.99,,,0.00,0,rob ver 1B,2013-03-30 11:44:00,
2013-03-30 04:45:00,66.5,34.1,29.41,North,5,2.6,2.8,30,-99.99,,,0.00,0,rob ver 1B,2013-03-30 11:45:00,
2013-03-30 04:46:00,68.8,29.2,29.47,SSE,164,3.3,3.6,22,-99.99,,,0.00,0,rob ver 1A,2013-03-30 11:46:00,
2013-03-30 04:47:00,65.8,33.7,29.41,NNE,13,2.6,2.8,30,-99.99,,,0.00,0,rob ver 1B,2013-03-30 11:47:00,
2013-03-30 04:48:00,65.5,33.5,29.41,NNE,12,2.6,2.9,30,-99.99,,,0.00,0,rob ver 1B,2013-03-30 11:48:00,
2013-03-30 04:49:00,65.2,34.1,29.41,NNE,21,2.4,3.0,31,-99.99,,,0.00,0,rob ver 1B,2013-03-30 11:49:00,
2013-03-30 04:50:00,65.1,33.7,29.41,NNE,24,2.5,2.9,31,-99.99,,,0.00,0,rob ver 1B,2013-03-30 11:50:00,
2013-03-30 04:51:00,65.0,34.7,29.41,NNE,33,2.3,2.6,32,-99.99,,,0.00,0,rob ver 1B,2013-03-30 11:51:00,
2013-03-30 04:52:00,68.2,29.3,29.47,ESE,119,2.0,2.2,23,-99.99,,,0.00,0,rob ver 1A,2013-03-30 11:52:00,
2013-03-30 04:53:00,65.5,34.4,29.41,NE,43,1.8,2.3,31,-99.99,,,0.00,0,rob ver 1B,2013-03-30 11:53:00,
2013-03-30 04:54:00,65.6,34.7,29.41,NE,34,1.2,1.5,31,-99.99,,,0.00,0,rob ver 1B,2013-03-30 11:54:00,
2013-03-30 04:55:00,65.6,34.5,29.41,NE,34,1.5,2.0,31,-99.99,,,0.00,0,rob ver 1B,2013-03-30 11:55:00,
2013-03-30 04:56:00,65.6,35.1,29.41,NNE,23,2.3,2.8,32,-99.99,,,0.00,0,rob ver 1B,2013-03-30 11:56:00,
2013-03-30 04:57:00,67.9,29.4,29.47,ENE,72,2.5,2.6,23,-99.99,,,0.00,0,rob ver 1A,2013-03-30 11:57:00,
2013-03-30 04:58:00,66.1,34.7,29.41,NNE,19,0.7,1.0,30,-99.99,,,0.00,0,rob ver 1B,2013-03-30 11:58:00,
2013-03-30 04:59:00,66.2,34.6,29.41,NE,38,0.6,0.9,32,-99.99,,,0.00,0,rob ver 1B,2013-03-30 11:59:00,
2013-03-30 05:00:00,66.2,35.1,29.41,ENE,67,1.0,1.1,30,-99.99,,,0.00,0,rob ver 1B,2013-03-30 12:00:00,
2013-03-30 05:01:00,66.2,34.3,29.41,NW,304,0.7,1.3,31,-99.99,,,0.00,0,rob ver 1B,2013-03-30 12:01:00,
2013-03-30 05:02:00,68.2,29.3,29.47,NE,40,2.8,2.9,23,-99.99,,,0.00,0,rob ver 1A,2013-03-30 12:02:00,
2013-03-30 05:03:00,66.5,35.8,29.41,SSE,149,1.3,2.2,31,-99.99,,,0.00,0,rob ver 1B,2013-03-30 12:03:00,
2013-03-30 05:04:00,66.8,35.8,29.41,SSW,192,0.9,1.3,31,-99.99,,,0.00,0,rob ver 1B,2013-03-30 12:04:00,
2013-03-30 05:05:00,66.9,36.1,29.41,SSW,192,1.8,2.9,32,-99.99,,,0.00,0,rob ver 1B,2013-03-30 12:05:00,
2013-03-30 05:06:00,67.2,36.3,29.41,SSW,204,1.6,2.3,31,-99.99,,,0.00,0,rob ver 1B,2013-03-30 12:06:00,
2013-03-30 05:07:00,68.5,29.3,29.47,ENE,78,3.1,3.5,22,-99.99,,,0.00,0,rob ver 1A,2013-03-30 12:07:00,
2013-03-30 05:08:00,67.5,36.1,29.41,South,188,2.2,2.6,31,-99.99,,,0.00,0,rob ver 1B,2013-03-30 12:08:00,
2013-03-30 05:09:00,67.6,36.1,29.41,South,182,1.8,2.0,31,-99.99,,,0.00,0,rob ver 1B,2013-03-30 12:09:00,
2013-03-30 05:10:00,67.7,35.8,29.41,SSW,199,1.6,2.0,30,-99.99,,,0.00,0,rob ver 1B,2013-03-30 12:10:00,
2013-03-30 05:11:00,67.6,35.3,29.41,South,175,1.3,1.9,28,-99.99,,,0.00,0,rob ver 1B,2013-03-30 12:11:00,
2013-03-30 05:12:00,67.4,34.6,29.41,WSW,252,0.8,1.4,29,-99.99,,,0.00,0,rob ver 1B,2013-03-30 12:12:00,
2013-03-30 05:13:00,68.4,29.2,29.47,NE,50,3.2,3.3,23,-99.99,,,0.00,0,rob ver 1A,2013-03-30 12:13:00,
2013-03-30 05:14:00,66.8,35.3,29.41,South,183,1.1,1.7,30,-99.99,,,0.00,0,rob ver 1B,2013-03-30 12:14:00,
2013-03-30 05:15:00,66.7,35.4,29.41,South,191,1.3,1.7,31,-99.99,,,0.00,0,rob ver 1B,2013-03-30 12:15:00,
2013-03-30 05:16:00,66.6,35.6,29.41,South,182,1.8,2.3,31,-99.99,,,0.00,0,rob ver 1B,2013-03-30 12:16:00,
2013-03-30 05:17:00,66.7,36.1,29.41,South,181,2.2,3.0,32,-99.99,,,0.00,0,rob ver 1B,2013-03-30 12:17:00,
2013-03-30 05:18:00,68.6,29.1,29.47,NE,53,3.4,4.1,22,-99.99,,,0.00,0,rob ver 1A,2013-03-30 12:18:00,
2013-03-30 05:19:00,67.0,36.4,29.41,South,188,2.2,2.6,31,-99.99,,,0.00,0,rob ver 1B,2013-03-30 12:19:00,
2013-03-30 05:20:00,67.1,36.0,29.41,South,179,2.0,2.4,31,-99.99,,,0.00,0,rob ver 1B,2013-03-30 12:20:00,
2013-03-30 05:21:00,67.1,36.3,29.41,South,189,2.0,2.4,31,-99.99,,,0.00,0,rob ver 1B,2013-03-30 12:21:00,
2013-03-30 05:22:00,67.2,36.2,29.41,SSW,192,1.8,2.2,31,-99.99,,,0.00,0,rob ver 1B,2013-03-30 12:22:00,
2013-03-30 05:23:00,68.4,28.9,29.47,NE,54,2.7,3.4,22,-99.99,,,0.00,0,rob ver 1A,2013-03-30 12:23:00,
2013-03-30 05:24:00,67.2,36.2,29.41,SSW,204,2.4,3.1,32,-99.99,,,0.00,0,rob ver 1B,2013-03-30 12:24:00,
2013-03-30 05:25:00,67.1,36.4,29.41,SSW,207,2.3,3.2,31,-99.99,,,0.00,0,rob ver 1B,2013-03-30 12:25:00,
2013-03-30 05:26:00,67.1,36.1,29.41,SSW,207,1.7,2.2,31,-99.99,,,0.00,0,rob ver 1B,2013-03-30 12:26:00,
2013-03-30 05:27:00,67.0,36.1,29.44,SSW,202,1.8,2.1,31,-99.99,,,0.00,0,rob ver 1B,2013-03-30 12:27:00,
2013-03-30 05:28:00,68.6,28.8,29.47,NE,50,2.9,3.6,22,-99.99,,,0.00,0,rob ver 1A,2013-03-30 12:28:00,
2013-03-30 05:29:00,66.8,36.4,29.41,South,184,1.8,2.2,32,-99.99,,,0.00,0,rob ver 1B,2013-03-30 12:29:00,
2013-03-30 05:30:00,66.8,36.6,29.41,SSW,196,2.3,2.7,32,-99.99,,,0.00,0,rob ver 1B,2013-03-30 12:30:00,
2013-03-30 05:31:00,66.9,36.7,29.41,SSW,192,2.0,2.2,32,-99.99,,,0.00,0,rob ver 1B,2013-03-30 12:31:00,
2013-03-30 05:32:00,67.0,36.8,29.44,South,185,1.7,2.0,32,-99.99,,,0.00,0,rob ver 1B,2013-03-30 12:32:00,
2013-03-30 05:33:00,68.5,28.7,29.47,NE,36,4.0,4.5,22,-99.99,,,0.00,0,rob ver 1A,2013-03-30 12:33:00,
2013-03-30 05:34:00,67.1,36.8,29.41,South,176,2.4,3.1,32,-99.99,,,0.00,0,rob ver 1B,2013-03-30 12:34:00,
2013-03-30 05:35:00,67.3,37.1,29.41,South,177,3.1,4.0,33,-99.99,,,0.00,0,rob ver 1B,2013-03-30 12:35:00,
2013-03-30 05:36:00,67.5,37.3,29.44,South,180,3.1,3.9,32,-99.99,,,0.00,0,rob ver 1B,2013-03-30 12:36:00,
2013-03-30 05:37:00,67.6,37.2,29.44,South,184,3.3,3.7,32,-99.99,,,0.00,0,rob ver 1B,2013-03-30 12:37:00,
2013-03-30 05:38:00,68.6,28.4,29.47,NNE,33,4.7,5.2,22,-99.99,,,0.00,0,rob ver 1A,2013-03-30 12:38:00,
2013-03-30 05:39:00,67.5,36.9,29.44,South,186,3.8,4.0,32,-99.99,,,0.00,0,rob ver 1B,2013-03-30 12:39:00,
2013-03-30 05:40:00,67.5,37.1,29.44,South,181,3.7,3.9,32,-99.99,,,0.00,0,rob ver 1B,2013-03-30 12:40:00,
2013-03-30 05:41:00,67.6,37.1,29.44,South,178,3.6,3.8,32,-99.99,,,0.00,0,rob ver 1B,2013-03-30 12:41:00,
2013-03-30 05:42:00,67.5,37.0,29.44,South,180,3.8,4.3,32,-99.99,,,0.00,0,rob ver 1B,2013-03-30 12:42:00,
2013-03-30 05:43:00,68.9,28.1,29.47,NNE,30,5.0,5.5,21,-99.99,,,0.00,0,rob ver 1A,2013-03-30 12:43:00,
2013-03-30 05:44:00,67.2,36.2,29.44,South,179,4.4,5.0,32,-99.99,,,0.00,0,rob ver 1B,2013-03-30 12:44:00,
2013-03-30 05:45:00,66.8,36.5,29.44,South,183,4.4,4.6,32,-99.99,,,0.00,0,rob ver 1B,2013-03-30 12:45:00,
2013-03-30 05:46:00,66.5,35.8,29.44,South,176,4.1,4.8,32,-99.99,,,0.00,0,rob ver 1B,2013-03-30 12:46:00,
2013-03-30 05:47:00,66.0,35.7,29.44,South,177,4.7,5.1,32,-99.99,,,0.00,0,rob ver 1B,2013-03-30 12:47:00,
2013-03-30 05:48:00,69.1,27.9,29.47,NE,41,4.1,4.8,21,-99.99,,,0.00,0,rob ver 1A,2013-03-30 12:48:00,
2013-03-30 05:49:00,65.7,35.9,29.44,South,171,4.6,5.7,32,-99.99,,,0.00,0,rob ver 1B,2013-03-30 12:49:00,
2013-03-30 05:50:00,65.6,35.6,29.44,South,172,4.1,4.5,33,-99.99,,,0.00,0,rob ver 1B,2013-03-30 12:50:00,
2013-03-30 05:51:00,65.5,35.9,29.44,SSE,161,4.6,5.1,34,-99.99,,,0.00,0,rob ver 1B,2013-03-30 12:51:00,
2013-03-30 05:52:00,65.8,36.7,29.44,SSE,168,4.6,5.3,34,-99.99,,,0.00,0,rob ver 1B,2013-03-30 12:52:00,
2013-03-30 05:53:00,69.1,27.8,29.47,NE,38,5.1,5.5,21,-99.99,,,0.00,0,rob ver 1A,2013-03-30 12:53:00,
2013-03-30 05:54:00,65.9,36.1,29.44,SSE,164,4.1,4.5,33,-99.99,,,0.00,0,rob ver 1B,2013-03-30 12:54:00,
2013-03-30 05:55:00,65.8,35.8,29.44,South,169,4.0,4.6,33,-99.99,,,0.00,0,rob ver 1B,2013-03-30 12:55:00,
2013-03-30 05:56:00,65.7,36.2,29.44,South,174,4.1,4.7,33,-99.99,,,0.00,0,rob ver 1B,2013-03-30 12:56:00,
2013-03-30 05:57:00,65.8,35.9,29.44,South,172,3.9,4.4,32,-99.99,,,0.00,0,rob ver 1B,2013-03-30 12:57:00,
2013-03-30 05:58:00,69.1,27.8,29.47,NE,38,3.0,3.6,21,-99.99,,,0.00,0,rob ver 1A,2013-03-30 12:58:00,
2013-03-30 05:59:00,65.3,35.4,29.44,South,174,3.4,3.9,33,-99.99,,,0.00,0,rob ver 1B,2013-03-30 12:59:00,
2013-03-30 06:00:00,65.2,35.8,29.44,South,172,3.4,4.3,33,-99.99,,,0.00,0,rob ver 1B,2013-03-30 13:00:00,
2013-03-30 06:01:00,65.1,35.6,29.44,South,174,2.4,3.2,33,-99.99,,,0.00,0,rob ver 1B,2013-03-30 13:01:00,
2013-03-30 06:02:00,65.0,35.2,29.44,NW,321,1.4,2.4,32,-99.99,,,0.00,0,rob ver 1B,2013-03-30 13:02:00,
2013-03-30 06:03:00,69.1,27.8,29.47,NE,43,3.8,4.4,21,-99.99,,,0.00,0,rob ver 1A,2013-03-30 13:03:00,
2013-03-30 06:04:00,64.4,35.1,29.44,NW,310,2.2,2.5,34,-99.99,,,0.00,0,rob ver 1B,2013-03-30 13:04:00,
2013-03-30 06:05:00,64.2,35.6,29.44,West,279,1.6,2.5,35,-99.99,,,0.00,0,rob ver 1B,2013-03-30 13:05:00,
2013-03-30 06:06:00,64.2,36.5,29.44,West,261,2.3,3.2,35,-99.99,,,0.00,0,rob ver 1B,2013-03-30 13:06:00,
2013-03-30 06:07:00,64.4,36.3,29.44,SW,235,2.5,3.0,34,-99.99,,,0.00,.164,rob ver 1B,2013-03-30 13:07:00,
2013-03-30 06:08:00,68.6,27.9,29.47,NE,45,3.7,4.4,21,-99.99,,,0.00,0,rob ver 1A,2013-03-30 13:08:00,
2013-03-30 06:09:00,64.7,36.2,29.44,SW,236,2.0,2.5,34,-99.99,,,0.00,.328,rob ver 1B,2013-03-30 13:09:00,
2013-03-30 06:10:00,64.7,36.2,29.44,WSW,243,2.0,2.3,34,-99.99,,,0.00,.328,rob ver 1B,2013-03-30 13:10:00,
2013-03-30 06:11:00,64.7,36.2,29.44,SW,235,2.0,2.4,34,-99.99,,,0.00,.328,rob ver 1B,2013-03-30 13:11:00,
2013-03-30 06:12:00,64.7,36.3,29.44,SW,214,1.6,1.9,35,-99.99,,,0.00,.328,rob ver 1B,2013-03-30 13:12:00,
2013-03-30 06:13:00,68.5,27.9,29.47,NE,43,4.1,4.7,21,-99.99,,,0.00,0,rob ver 1A,2013-03-30 13:13:00,
2013-03-30 06:14:00,64.6,36.7,29.44,SSE,162,1.5,1.9,35,-99.99,,,0.00,.657,rob ver 1B,2013-03-30 13:14:00,
2013-03-30 06:15:00,64.6,36.7,29.44,SSE,153,1.4,1.7,35,-99.99,,,0.00,.985,rob ver 1B,2013-03-30 13:15:00,
2013-03-30 06:16:00,64.7,36.5,29.44,SSE,157,1.4,1.8,34,-99.99,,,0.00,.985,rob ver 1B,2013-03-30 13:16:00,
2013-03-30 06:17:00,64.6,36.4,29.44,SE,140,1.2,1.5,35,-99.99,,,0.00,.985,rob ver 1B,2013-03-30 13:17:00,
2013-03-30 06:18:00,68.6,27.9,29.47,NE,39,4.5,5.1,21,-99.99,,,0.00,.328,rob ver 1A,2013-03-30 13:18:00,
2013-03-30 06:19:00,64.5,36.6,29.44,ESE,119,0.8,1.0,35,-99.99,,,0.00,1.642,rob ver 1B,2013-03-30 13:19:00,
2013-03-30 06:20:00,64.5,36.5,29.44,East,83,1.0,1.1,35,-99.99,,,0.00,2.299,rob ver 1B,2013-03-30 13:20:00,
2013-03-30 06:21:00,64.4,36.6,29.44,East,79,1.1,1.3,35,-99.99,,,0.00,2.299,rob ver 1B,2013-03-30 13:21:00,
2013-03-30 06:22:00,64.4,36.5,29.44,East,96,1.2,1.3,35,-99.99,,,0.00,2.955,rob ver 1B,2013-03-30 13:22:00,
2013-03-30 06:23:00,68.7,27.8,29.47,NE,42,4.3,4.9,21,-99.99,,,0.00,.328,rob ver 1A,2013-03-30 13:23:00,
2013-03-30 06:24:00,64.4,37.0,29.44,ESE,106,1.6,1.7,35,-99.99,,,0.00,3.284,rob ver 1B,2013-03-30 13:24:00,
2013-03-30 06:25:00,64.5,36.7,29.44,ESE,102,1.8,1.9,35,-99.99,,,0.00,3.94,rob ver 1B,2013-03-30 13:25:00,
2013-03-30 06:26:00,64.4,36.3,29.44,East,81,2.0,2.3,34,-99.99,,,0.00,4.104,rob ver 1B,2013-03-30 13:26:00,
2013-03-30 06:27:00,64.3,36.1,29.44,ENE,60,2.2,2.5,35,-99.99,,,0.00,4.597,rob ver 1B,2013-03-30 13:27:00,
2013-03-30 06:28:00,68.8,27.7,29.47,NE,37,4.2,4.8,21,-99.99,,,0.00,.984,rob ver 1A,2013-03-30 13:28:00,
2013-03-30 06:29:00,64.1,35.6,29.44,NE,53,2.3,2.7,34,-99.99,,,0.00,5.91,rob ver 1B,2013-03-30 13:29:00,
2013-03-30 06:30:00,63.8,34.8,29.44,ENE,60,2.4,2.6,34,-99.99,,,0.00,6.567,rob ver 1B,2013-03-30 13:30:00,
2013-03-30 06:31:00,63.6,36.3,29.44,East,83,2.3,2.6,36,-99.99,,,0.00,7.88,rob ver 1B,2013-03-30 13:31:00,
2013-03-30 06:32:00,63.7,36.6,29.44,East,91,2.5,2.7,36,-99.99,,,0.00,9.85,rob ver 1B,2013-03-30 13:32:00,
2013-03-30 06:33:00,63.9,36.6,29.44,East,93,2.3,2.5,35,-99.99,,,0.00,12.48,rob ver 1B,2013-03-30 13:33:00,
2013-03-30 06:34:00,69.0,27.6,29.47,NE,42,4.0,4.6,21,-99.99,,,0.00,1.641,rob ver 1A,2013-03-30 13:34:00,
2013-03-30 06:35:00,63.9,34.9,29.44,East,80,2.7,2.9,33,-99.99,,,0.00,15.76,rob ver 1B,2013-03-30 13:35:00,
2013-03-30 06:36:00,63.6,34.3,29.44,ENE,74,2.8,3.1,34,-99.99,,,0.00,17.07,rob ver 1B,2013-03-30 13:36:00,
2013-03-30 06:37:00,63.3,34.3,29.44,ENE,68,2.8,3.3,33,-99.99,,,0.00,19.04,rob ver 1B,2013-03-30 13:37:00,
2013-03-30 06:38:00,63.1,34.5,29.44,ENE,63,2.9,3.2,34,-99.99,,,0.00,21.51,rob ver 1B,2013-03-30 13:38:00,
2013-03-30 06:39:00,68.9,27.5,29.47,NE,39,3.3,3.9,21,-99.99,,,0.00,3.938,rob ver 1A,2013-03-30 13:39:00,
2013-03-30 06:40:00,62.9,34.1,29.44,ENE,60,2.8,3.1,34,-99.99,,,0.00,25.61,rob ver 1B,2013-03-30 13:40:00,
2013-03-30 06:41:00,62.8,34.0,29.44,ENE,59,3.0,3.3,33,-99.99,,,0.00,27.75,rob ver 1B,2013-03-30 13:41:00,
2013-03-30 06:42:00,62.7,33.8,29.44,NE,56,3.3,3.6,33,-99.99,,,0.00,30.21,rob ver 1B,2013-03-30 13:42:00,
2013-03-30 06:43:00,62.5,34.0,29.44,NE,56,3.2,3.5,35,-99.99,,,0.00,32.18,rob ver 1B,2013-03-30 13:43:00,
2013-03-30 06:44:00,69.1,27.5,29.47,NE,51,2.5,3.4,21,-99.99,,,0.00,7.22,rob ver 1A,2013-03-30 13:44:00,
2013-03-30 06:45:00,62.7,34.0,29.44,NE,48,3.3,3.7,33,-99.99,,,0.00,36.94,rob ver 1B,2013-03-30 13:45:00,
2013-03-30 06:46:00,62.7,33.6,29.44,NE,41,4.0,4.6,33,-99.99,,,0.00,39.4,rob ver 1B,2013-03-30 13:46:00,
2013-03-30 06:47:00,62.5,33.4,29.44,NE,41,4.2,4.5,33,-99.99,,,0.00,42.03,rob ver 1B,2013-03-30 13:47:00,
2013-03-30 06:48:00,62.4,33.7,29.44,NE,47,4.2,4.6,34,-99.99,,,0.00,45.15,rob ver 1B,2013-03-30 13:48:00,
2013-03-30 06:49:00,68.9,27.5,29.47,NE,43,3.7,4.1,21,-99.99,,,0.00,10.5,rob ver 1A,2013-03-30 13:49:00,
2013-03-30 06:50:00,62.6,34.0,29.44,NE,51,4.0,4.4,33,-99.99,,,0.00,49.91,rob ver 1B,2013-03-30 13:50:00,
2013-03-30 06:51:00,62.7,33.8,29.44,NE,49,3.8,4.2,33,-99.99,,,0.00,52.7,rob ver 1B,2013-03-30 13:51:00,
2013-03-30 06:52:00,62.7,33.6,29.44,NE,46,4.3,4.6,33,-99.99,,,0.00,55.16,rob ver 1B,2013-03-30 13:52:00,
2013-03-30 06:53:00,62.6,33.5,29.44,NE,46,4.4,4.9,33,-99.99,,,0.00,57.79,rob ver 1B,2013-03-30 13:53:00,
2013-03-30 06:54:00,68.8,27.6,29.47,NE,41,4.7,5.2,21,-99.99,,,0.00,17.06,rob ver 1A,2013-03-30 13:54:00,
2013-03-30 06:55:00,62.6,34.0,29.44,NE,50,4.4,5.0,34,-99.99,,,0.00,63.05,rob ver 1B,2013-03-30 13:55:00,
2013-03-30 06:56:00,62.8,34.2,29.44,NE,49,3.8,4.4,34,-99.99,,,0.00,65.67,rob ver 1B,2013-03-30 13:56:00,
2013-03-30 06:57:00,63.0,34.3,29.44,NE,50,3.6,4.1,33,-99.99,,,0.00,68.3,rob ver 1B,2013-03-30 13:57:00,
2013-03-30 06:58:00,63.1,34.2,29.44,NE,51,3.7,4.2,33,-99.99,,,0.00,70.9,rob ver 1B,2013-03-30 13:58:00,
2013-03-30 06:59:00,68.9,27.6,29.47,NNE,29,3.3,3.9,21,-99.99,,,0.00,25.6,rob ver 1A,2013-03-30 13:59:00,
2013-03-30 07:00:00,63.4,34.5,29.44,ENE,61,3.3,3.7,33,-99.99,,,0.00,76.2,rob ver 1B,2013-03-30 14:00:00,
2013-03-30 07:01:00,63.6,34.5,29.44,ENE,62,3.0,3.5,33,-99.99,,,0.00,78.8,rob ver 1B,2013-03-30 14:01:00,
2013-03-30 07:02:00,63.7,34.5,29.44,ENE,59,3.0,3.4,33,-99.99,,,0.00,81.9,rob ver 1B,2013-03-30 14:02:00,
2013-03-30 07:03:00,63.8,34.6,29.44,NE,54,3.2,3.6,33,-99.99,,,0.00,84.7,rob ver 1B,2013-03-30 14:03:00,
2013-03-30 07:04:00,69.2,27.5,29.47,NNE,18,2.2,2.4,20,-99.99,,,0.00,33.47,rob ver 1A,2013-03-30 14:04:00,
2013-03-30 07:05:00,63.9,34.2,29.44,NE,39,3.6,4.1,32,-99.99,,,0.00,90.6,rob ver 1B,2013-03-30 14:05:00,
2013-03-30 07:06:00,63.9,34.3,29.44,NE,43,4.0,4.4,33,-99.99,,,0.00,93.3,rob ver 1B,2013-03-30 14:06:00,
2013-03-30 07:07:00,63.9,34.5,29.44,NE,46,3.5,4.3,33,-99.99,,,0.00,95.9,rob ver 1B,2013-03-30 14:07:00,
2013-03-30 07:08:00,64.0,34.5,29.44,NE,46,3.5,4.2,33,-99.99,,,0.00,99.2,rob ver 1B,2013-03-30 14:08:00,
2013-03-30 07:09:00,64.1,34.6,29.44,NE,46,3.7,4.3,33,-99.99,,,0.00,101.8,rob ver 1B,2013-03-30 14:09:00,
2013-03-30 07:10:00,69.5,27.3,29.47,NNE,29,3.7,4.1,20,-99.99,,,0.00,38.07,rob ver 1A,2013-03-30 14:10:00,
2013-03-30 07:11:00,64.3,34.8,29.44,NE,48,4.1,4.7,33,-99.99,,,0.00,107.7,rob ver 1B,2013-03-30 14:11:00,
2013-03-30 07:12:00,64.4,34.8,29.44,NE,49,3.8,4.6,33,-99.99,,,0.00,111,rob ver 1B,2013-03-30 14:12:00,
2013-03-30 07:13:00,64.4,34.7,29.44,NE,45,3.6,4.3,32,-99.99,,,0.00,114.3,rob ver 1B,2013-03-30 14:13:00,
2013-03-30 07:14:00,64.5,34.6,29.44,NE,41,3.6,4.3,32,-99.99,,,0.00,117.4,rob ver 1B,2013-03-30 14:14:00,
2013-03-30 07:15:00,69.7,27.4,29.47,NNE,32,2.6,2.9,20,-99.99,,,0.00,37.41,rob ver 1A,2013-03-30 14:15:00,
2013-03-30 07:16:00,64.5,34.8,29.44,NE,40,4.0,4.5,32,-99.99,,,0.00,123.5,rob ver 1B,2013-03-30 14:16:00,
2013-03-30 07:17:00,64.5,34.8,29.44,NE,44,4.4,5.3,32,-99.99,,,0.00,126.1,rob ver 1B,2013-03-30 14:17:00,
2013-03-30 07:18:00,64.6,34.8,29.44,NE,44,4.2,5.1,32,-99.99,,,0.00,129.4,rob ver 1B,2013-03-30 14:18:00,
2013-03-30 07:19:00,64.6,34.9,29.44,NE,42,5.0,5.6,32,-99.99,,,0.00,132.7,rob ver 1B,2013-03-30 14:19:00,
2013-03-30 07:20:00,70.0,27.2,29.47,NE,48,3.1,3.8,20,-99.99,,,0.00,38.72,rob ver 1A,2013-03-30 14:20:00,
2013-03-30 07:21:00,64.8,34.9,29.44,NE,42,4.6,5.9,32,-99.99,,,0.00,138.6,rob ver 1B,2013-03-30 14:21:00,
2013-03-30 07:22:00,64.9,34.9,29.44,NE,46,3.4,5.2,32,-99.99,,,0.00,141.9,rob ver 1B,2013-03-30 14:22:00,
2013-03-30 07:23:00,65.0,34.8,29.44,NE,41,3.8,4.7,32,-99.99,,,0.00,145.1,rob ver 1B,2013-03-30 14:23:00,
2013-03-30 07:24:00,65.1,34.8,29.47,NE,38,3.4,4.1,32,-99.99,,,0.00,148.4,rob ver 1B,2013-03-30 14:24:00,
2013-03-30 07:25:00,70.0,27.6,29.47,NE,42,3.1,3.7,20,-99.99,,,0.00,48.4,rob ver 1A,2013-03-30 14:25:00,
2013-03-30 07:26:00,65.2,34.7,29.47,NE,39,3.6,4.3,32,-99.99,,,0.00,155,rob ver 1B,2013-03-30 14:26:00,
2013-03-30 07:27:00,65.3,34.8,29.47,NE,38,4.3,5.1,32,-99.99,,,0.00,158.3,rob ver 1B,2013-03-30 14:27:00,
2013-03-30 07:28:00,65.3,34.8,29.47,NE,41,4.1,4.7,32,-99.99,,,0.00,161.6,rob ver 1B,2013-03-30 14:28:00,
2013-03-30 07:29:00,65.4,34.8,29.47,NE,43,4.1,4.9,32,-99.99,,,0.00,165.5,rob ver 1B,2013-03-30 14:29:00,
2013-03-30 07:30:00,70.0,27.4,29.47,NE,42,3.4,4.3,20,-99.99,,,0.00,66.29,rob ver 1A,2013-03-30 14:30:00,
2013-03-30 07:31:00,65.7,34.9,29.47,NE,45,2.8,3.6,31,-99.99,,,0.00,172.1,rob ver 1B,2013-03-30 14:31:00,
2013-03-30 07:32:00,66.0,35.1,29.47,NE,44,3.2,4.1,31,-99.99,,,0.00,175.3,rob ver 1B,2013-03-30 14:32:00,
2013-03-30 07:33:00,66.2,35.2,29.47,NE,41,3.4,4.5,31,-99.99,,,0.00,178.6,rob ver 1B,2013-03-30 14:33:00,
2013-03-30 07:34:00,66.4,35.2,29.47,NE,40,3.5,4.0,31,-99.99,,,0.00,182.2,rob ver 1B,2013-03-30 14:34:00,
2013-03-30 07:35:00,70.3,27.4,29.47,ENE,68,2.0,2.8,20,-99.99,,,0.00,67.6,rob ver 1A,2013-03-30 14:35:00,
2013-03-30 07:36:00,66.7,35.4,29.47,NE,46,3.2,3.9,31,-99.99,,,0.00,189.1,rob ver 1B,2013-03-30 14:36:00,
2013-03-30 07:37:00,66.9,35.5,29.47,NE,44,3.3,3.9,31,-99.99,,,0.00,193.1,rob ver 1B,2013-03-30 14:37:00,
2013-03-30 07:38:00,67.0,35.5,29.47,NE,40,3.6,4.0,30,-99.99,,,0.00,196.4,rob ver 1B,2013-03-30 14:38:00,
2013-03-30 07:39:00,67.2,35.5,29.47,NE,37,3.7,4.1,30,-99.99,,,0.00,199.6,rob ver 1B,2013-03-30 14:39:00,
2013-03-30 07:40:00,69.9,27.8,29.47,ENE,75,3.1,3.8,20,-99.99,,,0.00,76.8,rob ver 1A,2013-03-30 14:40:00,
2013-03-30 07:41:00,67.4,35.5,29.47,NE,43,3.7,4.2,30,-99.99,,,0.00,207.5,rob ver 1B,2013-03-30 14:41:00,
2013-03-30 07:42:00,67.5,35.6,29.47,NE,43,3.1,3.7,30,-99.99,,,0.00,210.8,rob ver 1B,2013-03-30 14:42:00,
2013-03-30 07:43:00,67.6,35.7,29.47,NE,43,3.0,3.6,30,-99.99,,,0.00,214.6,rob ver 1B,2013-03-30 14:43:00,
2013-03-30 07:44:00,67.9,35.8,29.47,NE,45,2.8,3.6,30,-99.99,,,0.00,218,rob ver 1B,2013-03-30 14:44:00,
2013-03-30 07:45:00,70.1,27.9,29.47,ENE,78,2.7,3.3,20,-99.99,,,0.00,93.5,rob ver 1A,2013-03-30 14:45:00,
2013-03-30 07:46:00,68.2,35.7,29.47,NE,46,3.3,4.0,30,-99.99,,,0.00,225.2,rob ver 1B,2013-03-30 14:46:00,
2013-03-30 07:47:00,68.2,35.7,29.47,NE,48,3.3,4.0,30,-99.99,,,0.00,229.2,rob ver 1B,2013-03-30 14:47:00,
2013-03-30 07:48:00,68.3,35.8,29.47,NE,47,3.1,3.7,30,-99.99,,,0.00,232.5,rob ver 1B,2013-03-30 14:48:00,
2013-03-30 07:49:00,68.4,35.8,29.47,NE,46,3.4,3.8,29,-99.99,,,0.00,235.7,rob ver 1B,2013-03-30 14:49:00,
2013-03-30 07:50:00,70.2,28.2,29.47,SSE,154,1.3,1.7,20,-99.99,,,0.00,99.1,rob ver 1A,2013-03-30 14:50:00,
2013-03-30 07:51:00,68.5,35.9,29.47,NE,46,4.1,4.5,30,-99.99,,,0.00,243,rob ver 1B,2013-03-30 14:51:00,
2013-03-30 07:52:00,68.6,36.0,29.47,NE,48,3.6,4.2,29,-99.99,,,0.00,247.1,rob ver 1B,2013-03-30 14:52:00,
2013-03-30 07:53:00,68.7,36.0,29.47,NE,47,3.9,4.6,29,-99.99,,,0.00,250.8,rob ver 1B,2013-03-30 14:53:00,
2013-03-30 07:54:00,68.8,36.0,29.47,NE,46,3.7,4.3,29,-99.99,,,0.00,254.4,rob ver 1B,2013-03-30 14:54:00,
2013-03-30 07:55:00,70.2,28.9,29.47,SW,220,1.5,2.1,21,-99.99,,,0.00,112.9,rob ver 1A,2013-03-30 14:55:00,
2013-03-30 07:56:00,69.1,36.0,29.47,NE,45,3.5,4.1,29,-99.99,,,0.00,261.3,rob ver 1B,2013-03-30 14:56:00,
2013-03-30 07:57:00,69.3,36.2,29.47,NE,54,2.8,3.4,29,-99.99,,,0.00,264.6,rob ver 1B,2013-03-30 14:57:00,
2013-03-30 07:58:00,69.5,36.2,29.47,NE,52,3.2,4.3,29,-99.99,,,0.00,267.9,rob ver 1B,2013-03-30 14:58:00,
2013-03-30 07:59:00,69.7,36.1,29.47,NE,50,3.5,4.1,29,-99.99,,,0.00,271.8,rob ver 1B,2013-03-30 14:59:00,
2013-03-30 08:00:00,69.8,36.3,29.47,NE,49,3.2,4.0,29,-99.99,,,0.00,275.8,rob ver 1B,2013-03-30 15:00:00,
2013-03-30 08:01:00,70.2,28.9,29.47,SSW,197,0.4,0.6,21,-99.99,,,0.00,110.9,rob ver 1A,2013-03-30 15:01:00,
2013-03-30 08:02:00,70.1,36.3,29.47,NE,52,3.0,3.6,28,-99.99,,,0.00,283,rob ver 1B,2013-03-30 15:02:00,
2013-03-30 08:03:00,70.3,36.3,29.47,NE,41,2.8,3.5,28,-99.99,,,0.00,286.9,rob ver 1B,2013-03-30 15:03:00,
2013-03-30 08:04:00,70.5,36.4,29.47,NE,49,2.5,3.2,28,-99.99,,,0.00,290.7,rob ver 1B,2013-03-30 15:04:00,
2013-03-30 08:05:00,70.7,36.4,29.47,ENE,61,2.6,3.2,28,-99.99,,,0.00,294.1,rob ver 1B,2013-03-30 15:05:00,
2013-03-30 08:06:00,70.6,28.9,29.47,NW,308,1.3,1.8,21,-99.99,,,0.00,105.7,rob ver 1A,2013-03-30 15:06:00,
2013-03-30 08:07:00,70.9,36.5,29.47,ENE,67,2.3,3.0,28,-99.99,,,0.00,301.4,rob ver 1B,2013-03-30 15:07:00,
2013-03-30 08:08:00,71.2,36.6,29.47,NE,54,2.5,3.1,28,-99.99,,,0.00,305.3,rob ver 1B,2013-03-30 15:08:00,
2013-03-30 08:09:00,71.3,36.7,29.47,ENE,68,1.7,2.3,28,-99.99,,,0.00,308.7,rob ver 1B,2013-03-30 15:09:00,
2013-03-30 08:10:00,71.5,36.8,29.47,ENE,75,1.5,2.2,27,-99.99,,,0.00,312.5,rob ver 1B,2013-03-30 15:10:00,
2013-03-30 08:11:00,70.4,29.3,29.47,West,267,3.2,3.6,21,-99.99,,,0.00,131.3,rob ver 1A,2013-03-30 15:11:00,
2013-03-30 08:12:00,72.0,36.7,29.47,ENE,70,1.3,1.8,27,-99.99,,,0.00,319.7,rob ver 1B,2013-03-30 15:12:00,
2013-03-30 08:13:00,72.4,36.8,29.47,NE,51,1.5,2.1,27,-99.99,,,0.00,323.3,rob ver 1B,2013-03-30 15:13:00,
2013-03-30 08:14:00,72.6,36.7,29.47,ESE,107,1.2,1.8,26,-99.99,,,0.00,326.6,rob ver 1B,2013-03-30 15:14:00,
2013-03-30 08:15:00,72.6,36.6,29.47,East,82,1.0,1.7,26,-99.99,,,0.00,330.5,rob ver 1B,2013-03-30 15:15:00,
2013-03-30 08:16:00,70.5,29.0,29.47,ENE,57,1.2,1.8,21,-99.99,,,0.00,157.5,rob ver 1A,2013-03-30 15:16:00,
2013-03-30 08:17:00,73.4,36.7,29.47,NE,38,1.2,1.5,26,-99.99,,,0.00,337.6,rob ver 1B,2013-03-30 15:17:00,
2013-03-30 08:18:00,73.8,36.8,29.47,NE,52,0.9,1.8,25,-99.99,,,0.00,340.7,rob ver 1B,2013-03-30 15:18:00,
2013-03-30 08:19:00,74.2,36.8,29.47,ENE,69,1.0,1.5,25,-99.99,,,0.00,344.7,rob ver 1B,2013-03-30 15:19:00,
2013-03-30 08:20:00,74.4,36.8,29.47,East,91,1.2,1.9,25,-99.99,,,0.00,348.1,rob ver 1B,2013-03-30 15:20:00,
2013-03-30 08:21:00,71.0,29.2,29.47,NE,47,1.7,2.2,21,-99.99,,,0.00,171.9,rob ver 1A,2013-03-30 15:21:00,
2013-03-30 08:22:00,73.7,36.2,29.47,ESE,116,0.5,1.1,25,-99.99,,,0.00,355.5,rob ver 1B,2013-03-30 15:22:00,
2013-03-30 08:23:00,74.3,36.4,29.47,NE,44,0.8,1.2,24,-99.99,,,0.00,359.1,rob ver 1B,2013-03-30 15:23:00,
2013-03-30 08:24:00,75.0,36.6,29.47,ENE,74,0.9,1.3,24,-99.99,,,0.00,363,rob ver 1B,2013-03-30 15:24:00,
2013-03-30 08:25:00,75.3,36.6,29.47,ENE,74,0.9,1.3,24,-99.99,,,0.00,365.6,rob ver 1B,2013-03-30 15:25:00,
2013-03-30 08:26:00,71.9,28.7,29.47,NNE,32,0.7,1.1,20,-99.99,,,0.00,195.6,rob ver 1A,2013-03-30 15:26:00,
2013-03-30 08:27:00,75.3,36.5,29.47,East,87,1.1,1.6,24,-99.99,,,0.00,373.5,rob ver 1B,2013-03-30 15:27:00,
2013-03-30 08:28:00,75.3,36.5,29.47,East,95,1.1,2.0,24,-99.99,,,0.00,376.8,rob ver 1B,2013-03-30 15:28:00,
2013-03-30 08:29:00,75.2,36.5,29.47,ENE,76,1.0,2.0,24,-99.99,,,0.00,381,rob ver 1B,2013-03-30 15:29:00,
2013-03-30 08:30:00,75.5,36.6,29.47,ESE,114,1.0,2.5,24,-99.99,,,0.00,384.6,rob ver 1B,2013-03-30 15:30:00,
2013-03-30 08:31:00,73.1,28.7,29.50,NNW,333,1.5,1.9,19,-99.99,,,0.00,212.6,rob ver 1A,2013-03-30 15:31:00,
2013-03-30 08:32:00,75.0,36.0,29.47,SSW,199,1.7,2.4,24,-99.99,,,0.00,391.4,rob ver 1B,2013-03-30 15:32:00,
2013-03-30 08:33:00,75.1,36.1,29.47,SSW,207,1.0,2.0,24,-99.99,,,0.00,394.5,rob ver 1B,2013-03-30 15:33:00,
2013-03-30 08:34:00,75.4,36.4,29.47,South,175,1.0,2.1,24,-99.99,,,0.00,398.2,rob ver 1B,2013-03-30 15:34:00,
2013-03-30 08:35:00,75.3,36.1,29.47,South,171,2.3,2.8,23,-99.99,,,0.00,401.7,rob ver 1B,2013-03-30 15:35:00,
2013-03-30 08:36:00,72.8,28.9,29.47,NE,48,3.0,4.1,19,-99.99,,,0.00,195.9,rob ver 1A,2013-03-30 15:36:00,
2013-03-30 08:37:00,74.7,35.5,29.47,SSW,203,2.6,3.6,23,-99.99,,,0.00,409.2,rob ver 1B,2013-03-30 15:37:00,
2013-03-30 08:38:00,74.7,35.5,29.47,SW,220,2.1,3.5,24,-99.99,,,0.00,412.8,rob ver 1B,2013-03-30 15:38:00,
2013-03-30 08:39:00,74.8,35.7,29.47,SW,234,1.4,2.0,23,-99.99,,,0.00,416.1,rob ver 1B,2013-03-30 15:39:00,
2013-03-30 08:40:00,75.0,36.0,29.47,SSW,192,2.1,3.3,24,-99.99,,,0.00,419.4,rob ver 1B,2013-03-30 15:40:00,
2013-03-30 08:41:00,73.1,27.9,29.47,ENE,74,3.4,4.4,18,-99.99,,,0.00,198.2,rob ver 1A,2013-03-30 15:41:00,
2013-03-30 08:42:00,75.0,36.3,29.47,SSE,155,1.6,3.5,24,-99.99,,,0.00,426.3,rob ver 1B,2013-03-30 15:42:00,
2013-03-30 08:43:00,75.1,36.1,29.47,South,178,2.6,3.4,24,-99.99,,,0.00,429.4,rob ver 1B,2013-03-30 15:43:00,
2013-03-30 08:44:00,75.2,35.7,29.47,South,181,3.5,4.7,24,-99.99,,,0.00,433.8,rob ver 1B,2013-03-30 15:44:00,
2013-03-30 08:45:00,75.0,35.9,29.47,South,180,2.9,4.1,23,-99.99,,,0.00,436.7,rob ver 1B,2013-03-30 15:45:00,
2013-03-30 08:46:00,75.1,35.6,29.47,SW,215,3.6,5.0,23,-99.99,,,0.00,439.7,rob ver 1B,2013-03-30 15:46:00,
2013-03-30 08:47:00,73.6,28.0,29.50,SE,141,2.2,3.5,18,-99.99,,,0.00,234.3,rob ver 1A,2013-03-30 15:47:00,
2013-03-30 08:48:00,75.3,35.8,29.47,SSW,212,4.6,8.4,22,-99.99,,,0.00,447.4,rob ver 1B,2013-03-30 15:48:00,
2013-03-30 08:49:00,75.2,34.3,29.47,SSW,209,6.9,9.0,22,-99.99,,,0.00,450.7,rob ver 1B,2013-03-30 15:49:00,
2013-03-30 08:50:00,75.1,34.4,29.47,SSW,211,5.5,6.8,22,-99.99,,,0.00,453.8,rob ver 1B,2013-03-30 15:50:00,
2013-03-30 08:51:00,75.2,34.5,29.47,SW,218,5.6,7.0,22,-99.99,,,0.00,457.7,rob ver 1B,2013-03-30 15:51:00,
2013-03-30 08:52:00,74.1,28.1,29.50,SSW,197,2.5,3.2,18,-99.99,,,0.00,282.9,rob ver 1A,2013-03-30 15:52:00,
2013-03-30 08:53:00,75.0,33.8,29.47,SSW,208,6.3,7.3,22,-99.99,,,0.00,464.3,rob ver 1B,2013-03-30 15:53:00,
2013-03-30 08:54:00,74.9,34.1,29.47,SSW,207,5.0,6.4,22,-99.99,,,0.00,467.5,rob ver 1B,2013-03-30 15:54:00,
2013-03-30 08:55:00,74.9,34.2,29.47,SSW,194,4.8,5.7,22,-99.99,,,0.00,470.8,rob ver 1B,2013-03-30 15:55:00,
2013-03-30 08:56:00,75.1,34.2,29.47,SW,223,6.3,8.0,22,-99.99,,,0.00,474.6,rob ver 1B,2013-03-30 15:56:00,
2013-03-30 08:57:00,74.0,28.1,29.50,SSE,155,2.8,3.9,18,-99.99,,,0.00,306.6,rob ver 1A,2013-03-30 15:57:00,
2013-03-30 08:58:00,74.8,33.8,29.47,SW,214,6.6,8.3,22,-99.99,,,0.00,481.3,rob ver 1B,2013-03-30 15:58:00,
2013-03-30 08:59:00,74.7,33.9,29.47,SW,214,5.7,7.4,22,-99.99,,,0.00,484.6,rob ver 1B,2013-03-30 15:59:00,
2013-03-30 09:00:00,74.9,34.1,29.47,SW,215,6.5,8.0,22,-99.99,,,0.00,488,rob ver 1B,2013-03-30 16:00:00,
2013-03-30 09:01:00,74.8,34.1,29.47,SW,214,5.3,6.5,22,-99.99,,,0.00,491.8,rob ver 1B,2013-03-30 16:01:00,
2013-03-30 09:02:00,74.0,27.9,29.50,SSE,155,4.4,5.5,18,-99.99,,,0.00,266.4,rob ver 1A,2013-03-30 16:02:00,
2013-03-30 09:03:00,74.8,33.9,29.47,SW,227,6.6,7.8,22,-99.99,,,0.00,498.8,rob ver 1B,2013-03-30 16:03:00,
2013-03-30 09:04:00,74.9,33.7,29.47,SW,218,6.2,7.9,22,-99.99,,,0.00,501.6,rob ver 1B,2013-03-30 16:04:00,
2013-03-30 09:05:00,74.9,34.0,29.47,SW,215,6.0,8.1,22,-99.99,,,0.00,505,rob ver 1B,2013-03-30 16:05:00,
2013-03-30 09:06:00,74.9,33.8,29.47,SW,233,6.9,8.2,22,-99.99,,,0.00,508.1,rob ver 1B,2013-03-30 16:06:00,
2013-03-30 09:07:00,74.6,28.1,29.50,SSW,196,0.7,1.3,17,-99.99,,,0.00,282.8,rob ver 1A,2013-03-30 16:07:00,
2013-03-30 09:08:00,74.7,33.8,29.47,SW,234,7.1,9.2,22,-99.99,,,0.00,514.7,rob ver 1B,2013-03-30 16:08:00,
2013-03-30 09:09:00,74.8,34.0,29.47,SW,220,6.0,8.0,22,-99.99,,,0.00,518,rob ver 1B,2013-03-30 16:09:00,
2013-03-30 09:10:00,74.8,33.8,29.47,SW,222,7.7,9.2,22,-99.99,,,0.00,521.4,rob ver 1B,2013-03-30 16:10:00,
2013-03-30 09:11:00,74.7,33.9,29.47,SW,221,7.7,9.5,22,-99.99,,,0.00,524.2,rob ver 1B,2013-03-30 16:11:00,
2013-03-30 09:12:00,74.9,27.8,29.50,SSE,166,3.6,5.1,17,-99.99,,,0.00,293.6,rob ver 1A,2013-03-30 16:12:00,
2013-03-30 09:13:00,74.9,34.3,29.47,SW,219,8.1,11.1,22,-99.99,,,0.00,529.7,rob ver 1B,2013-03-30 16:13:00,
2013-03-30 09:14:00,75.1,34.5,29.47,SW,218,7.7,9.8,22,-99.99,,,0.00,533.7,rob ver 1B,2013-03-30 16:14:00,
2013-03-30 09:15:00,75.2,33.9,29.47,SW,229,7.6,9.7,22,-99.99,,,0.00,537.5,rob ver 1B,2013-03-30 16:15:00,
2013-03-30 09:16:00,75.4,34.0,29.47,SW,223,7.2,10.0,22,-99.99,,,0.00,540.9,rob ver 1B,2013-03-30 16:16:00,
2013-03-30 09:17:00,74.6,28.4,29.50,SSE,164,7.0,8.3,18,-99.99,,,0.00,277.7,rob ver 1A,2013-03-30 16:17:00,
2013-03-30 09:18:00,75.2,34.2,29.47,SW,235,6.3,8.3,22,-99.99,,,0.00,547.1,rob ver 1B,2013-03-30 16:18:00,
2013-03-30 09:19:00,75.4,34.1,29.47,WSW,238,6.6,8.2,22,-99.99,,,0.00,550.1,rob ver 1B,2013-03-30 16:19:00,
2013-03-30 09:20:00,75.7,34.3,29.47,SW,217,8.8,10.9,22,-99.99,,,0.00,553,rob ver 1B,2013-03-30 16:20:00,
2013-03-30 09:21:00,75.5,34.4,29.47,SW,220,6.1,8.0,22,-99.99,,,0.00,555.5,rob ver 1B,2013-03-30 16:21:00,
2013-03-30 09:22:00,74.3,28.7,29.50,SSE,167,3.9,4.5,18,-99.99,,,0.00,280.8,rob ver 1A,2013-03-30 16:22:00,
2013-03-30 09:23:00,76.0,34.4,29.47,SW,231,7.6,9.8,22,-99.99,,,0.00,563.8,rob ver 1B,2013-03-30 16:23:00,
2013-03-30 09:24:00,76.0,34.4,29.47,WSW,244,6.7,8.3,22,-99.99,,,0.00,565.6,rob ver 1B,2013-03-30 16:24:00,
2013-03-30 09:25:00,75.9,34.2,29.47,SW,216,8.5,10.4,21,-99.99,,,0.00,568.7,rob ver 1B,2013-03-30 16:25:00,
2013-03-30 09:26:00,76.0,34.2,29.47,SSW,208,8.3,10.4,21,-99.99,,,0.00,572.2,rob ver 1B,2013-03-30 16:26:00,
2013-03-30 09:27:00,74.7,29.3,29.50,SSW,198,4.3,6.2,18,-99.99,,,0.00,316.2,rob ver 1A,2013-03-30 16:27:00,
2013-03-30 09:28:00,76.4,34.3,29.47,SW,218,9.0,12.9,21,-99.99,,,0.00,576.9,rob ver 1B,2013-03-30 16:28:00,
2013-03-30 09:29:00,76.6,34.2,29.47,SW,233,7.8,9.8,21,-99.99,,,0.00,580.7,rob ver 1B,2013-03-30 16:29:00,
2013-03-30 09:30:00,76.5,34.3,29.47,SW,226,7.2,9.0,21,-99.99,,,0.00,583.6,rob ver 1B,2013-03-30 16:30:00,
2013-03-30 09:31:00,76.5,34.4,29.47,SW,214,6.6,8.9,21,-99.99,,,0.00,586.9,rob ver 1B,2013-03-30 16:31:00,
2013-03-30 09:32:00,75.0,30.0,29.50,South,191,5.6,7.5,19,-99.99,,,0.00,354.8,rob ver 1A,2013-03-30 16:32:00,
2013-03-30 09:33:00,76.3,34.1,29.47,WSW,254,7.7,8.7,21,-99.99,,,0.00,593.8,rob ver 1B,2013-03-30 16:33:00,
2013-03-30 09:34:00,76.4,34.1,29.47,WSW,243,8.0,10.0,21,-99.99,,,0.00,595.9,rob ver 1B,2013-03-30 16:34:00,
2013-03-30 09:35:00,76.5,34.2,29.47,SW,233,5.3,7.7,21,-99.99,,,0.00,599.1,rob ver 1B,2013-03-30 16:35:00,
2013-03-30 09:36:00,76.8,34.5,29.50,SW,219,5.3,7.6,21,-99.99,,,0.00,601.7,rob ver 1B,2013-03-30 16:36:00,
2013-03-30 09:37:00,77.1,34.6,29.50,WSW,240,4.1,6.5,21,-99.99,,,0.00,605,rob ver 1B,2013-03-30 16:37:00,
2013-03-30 09:38:00,75.0,30.2,29.50,SSW,197,5.0,6.3,19,-99.99,,,0.00,369,rob ver 1A,2013-03-30 16:38:00,
2013-03-30 09:39:00,77.5,34.6,29.47,SW,232,8.4,10.3,20,-99.99,,,0.00,611.3,rob ver 1B,2013-03-30 16:39:00,
2013-03-30 09:40:00,77.6,34.5,29.47,SW,220,6.6,8.0,20,-99.99,,,0.00,613.9,rob ver 1B,2013-03-30 16:40:00,
2013-03-30 09:41:00,77.8,34.4,29.47,WSW,244,5.6,7.2,20,-99.99,,,0.00,617.6,rob ver 1B,2013-03-30 16:41:00,
2013-03-30 09:42:00,77.6,34.2,29.47,WSW,241,5.6,7.2,20,-99.99,,,0.00,619,rob ver 1B,2013-03-30 16:42:00,
2013-03-30 09:43:00,75.6,29.2,29.50,SSW,200,4.2,5.4,17,-99.99,,,0.00,406.6,rob ver 1A,2013-03-30 16:43:00,
2013-03-30 09:44:00,77.1,34.3,29.47,SW,225,8.2,11.2,21,-99.99,,,0.00,625.9,rob ver 1B,2013-03-30 16:44:00,
2013-03-30 09:45:00,77.0,34.4,29.50,SW,235,6.3,9.3,21,-99.99,,,0.00,629,rob ver 1B,2013-03-30 16:45:00,
2013-03-30 09:46:00,77.2,34.6,29.47,SW,228,5.8,8.5,21,-99.99,,,0.00,631.6,rob ver 1B,2013-03-30 16:46:00,
2013-03-30 09:47:00,77.5,34.5,29.47,SW,216,5.9,7.7,20,-99.99,,,0.00,634.6,rob ver 1B,2013-03-30 16:47:00,
2013-03-30 09:48:00,76.2,29.9,29.50,SW,216,6.4,7.7,18,-99.99,,,0.00,454.9,rob ver 1A,2013-03-30 16:48:00,
2013-03-30 09:49:00,77.9,34.5,29.47,SW,230,5.2,8.9,20,-99.99,,,0.00,640.5,rob ver 1B,2013-03-30 16:49:00,
2013-03-30 09:50:00,78.0,34.6,29.47,SW,236,5.8,7.4,20,-99.99,,,0.00,642.9,rob ver 1B,2013-03-30 16:50:00,
2013-03-30 09:51:00,78.0,34.5,29.50,WSW,246,7.5,9.7,20,-99.99,,,0.00,645.8,rob ver 1B,2013-03-30 16:51:00,
2013-03-30 09:52:00,77.8,34.3,29.50,West,259,7.0,8.5,20,-99.99,,,0.00,648.3,rob ver 1B,2013-03-30 16:52:00,
2013-03-30 09:53:00,76.2,28.0,29.50,SSW,206,7.2,10.8,17,-99.99,,,0.00,579.2,rob ver 1A,2013-03-30 16:53:00,
2013-03-30 09:54:00,77.8,34.6,29.47,West,269,3.1,4.3,20,-99.99,,,0.00,653.8,rob ver 1B,2013-03-30 16:54:00,
2013-03-30 09:55:00,78.2,34.8,29.47,SW,225,4.8,7.5,20,-99.99,,,0.00,656.8,rob ver 1B,2013-03-30 16:55:00,
2013-03-30 09:56:00,78.2,34.8,29.47,SW,219,4.0,8.4,20,-99.99,,,0.00,659.4,rob ver 1B,2013-03-30 16:56:00,
2013-03-30 09:57:00,78.5,34.9,29.50,SW,232,8.2,11.1,20,-99.99,,,0.00,662.3,rob ver 1B,2013-03-30 16:57:00,
2013-03-30 09:58:00,76.8,28.7,29.50,SSW,206,9.5,11.6,17,-99.99,,,0.00,670.7,rob ver 1A,2013-03-30 16:58:00,
2013-03-30 09:59:00,78.5,34.8,29.50,SW,230,6.0,8.6,20,-99.99,,,0.00,667.3,rob ver 1B,2013-03-30 16:59:00,
2013-03-30 10:00:00,78.4,34.8,29.47,WSW,237,9.1,11.2,20,-99.99,,,0.00,671.3,rob ver 1B,2013-03-30 17:00:00,
2013-03-30 10:01:00,78.5,34.9,29.47,WSW,248,7.2,9.2,20,-99.99,,,0.00,674.9,rob ver 1B,2013-03-30 17:01:00,
2013-03-30 10:02:00,78.9,35.1,29.47,SW,223,8.8,11.6,20,-99.99,,,0.00,674.6,rob ver 1B,2013-03-30 17:02:00,
2013-03-30 10:03:00,76.7,27.6,29.50,SSW,202,11.2,14.1,16,-99.99,,,0.00,596.3,rob ver 1A,2013-03-30 17:03:00,
2013-03-30 10:04:00,79.0,34.8,29.50,WSW,243,8.3,10.2,20,-99.99,,,0.00,680.5,rob ver 1B,2013-03-30 17:04:00,
2013-03-30 10:05:00,78.5,34.8,29.50,SW,234,5.9,9.1,20,-99.99,,,0.00,684.9,rob ver 1B,2013-03-30 17:05:00,
2013-03-30 10:06:00,78.5,35.1,29.50,SW,234,6.3,10.1,20,-99.99,,,0.00,685.7,rob ver 1B,2013-03-30 17:06:00,
2013-03-30 10:07:00,78.7,35.2,29.50,WSW,237,8.5,10.7,20,-99.99,,,0.00,688.8,rob ver 1B,2013-03-30 17:07:00,
2013-03-30 10:08:00,76.4,26.5,29.50,South,183,11.6,13.7,15,-99.99,,,0.00,521.2,rob ver 1A,2013-03-30 17:08:00,
2013-03-30 10:09:00,78.9,35.3,29.50,WSW,238,7.5,9.9,20,-99.99,,,0.00,694.4,rob ver 1B,2013-03-30 17:09:00,
2013-03-30 10:10:00,79.0,35.1,29.50,SW,219,8.0,9.5,20,-99.99,,,0.00,697.2,rob ver 1B,2013-03-30 17:10:00,
2013-03-30 10:11:00,78.7,35.1,29.50,WSW,240,6.2,7.9,20,-99.99,,,0.00,699.3,rob ver 1B,2013-03-30 17:11:00,
2013-03-30 10:12:00,78.6,35.1,29.50,WSW,254,6.6,10.6,20,-99.99,,,0.00,702,rob ver 1B,2013-03-30 17:12:00,
2013-03-30 10:13:00,76.7,29.3,29.50,SSW,194,10.5,12.8,17,-99.99,,,0.00,681.5,rob ver 1A,2013-03-30 17:13:00,
2013-03-30 10:14:00,78.8,35.3,29.50,West,265,6.8,9.7,20,-99.99,,,0.00,707,rob ver 1B,2013-03-30 17:14:00,
2013-03-30 10:15:00,79.1,35.5,29.50,SW,220,9.2,14.0,20,-99.99,,,0.00,709,rob ver 1B,2013-03-30 17:15:00,
2013-03-30 10:16:00,79.2,35.6,29.47,SW,232,9.7,12.3,20,-99.99,,,0.00,713,rob ver 1B,2013-03-30 17:16:00,
2013-03-30 10:17:00,79.3,35.7,29.47,SW,226,12.3,15.6,20,-99.99,,,0.00,715,rob ver 1B,2013-03-30 17:17:00,
2013-03-30 10:18:00,77.7,27.7,29.50,South,184,11.3,13.8,15,-99.99,,,0.00,566.7,rob ver 1A,2013-03-30 17:18:00,
2013-03-30 10:19:00,79.1,35.9,29.47,WSW,252,10.9,14.9,20,-99.99,,,0.00,720,rob ver 1B,2013-03-30 17:19:00,
2013-03-30 10:20:00,79.1,35.9,29.50,SW,231,10.7,15.1,21,-99.99,,,0.00,722,rob ver 1B,2013-03-30 17:20:00,
2013-03-30 10:21:00,79.2,36.2,29.47,SW,223,10.9,16.0,21,-99.99,,,0.00,724,rob ver 1B,2013-03-30 17:21:00,
2013-03-30 10:22:00,79.7,36.3,29.47,SW,225,11.6,14.2,20,-99.99,,,0.00,726,rob ver 1B,2013-03-30 17:22:00,
2013-03-30 10:23:00,76.9,24.9,29.50,South,191,8.4,11.7,14,-99.99,,,0.00,556.9,rob ver 1A,2013-03-30 17:23:00,
2013-03-30 10:24:00,79.3,35.9,29.47,SW,236,7.6,11.5,20,-99.99,,,0.00,732,rob ver 1B,2013-03-30 17:24:00,
2013-03-30 10:25:00,79.4,36.0,29.47,WSW,244,9.0,11.8,20,-99.99,,,0.00,734,rob ver 1B,2013-03-30 17:25:00,
2013-03-30 10:26:00,79.7,36.1,29.47,WSW,241,10.8,13.9,20,-99.99,,,0.00,737,rob ver 1B,2013-03-30 17:26:00,
2013-03-30 10:27:00,79.4,36.1,29.47,WSW,249,11.2,14.5,21,-99.99,,,0.00,739,rob ver 1B,2013-03-30 17:27:00,
2013-03-30 10:28:00,77.7,25.1,29.50,South,191,9.4,11.5,14,-99.99,,,0.00,512.3,rob ver 1A,2013-03-30 17:28:00,
2013-03-30 10:29:00,79.2,36.2,29.50,SW,233,9.0,13.3,20,-99.99,,,0.00,744,rob ver 1B,2013-03-30 17:29:00,
2013-03-30 10:30:00,79.4,36.1,29.50,SW,221,8.6,11.8,21,-99.99,,,0.00,746,rob ver 1B,2013-03-30 17:30:00,
2013-03-30 10:31:00,79.5,36.4,29.47,SW,224,10.5,13.2,21,-99.99,,,0.00,749,rob ver 1B,2013-03-30 17:31:00,
2013-03-30 10:32:00,79.6,36.6,29.47,SW,235,9.5,12.3,21,-99.99,,,0.00,750,rob ver 1B,2013-03-30 17:32:00,
2013-03-30 10:33:00,79.6,36.5,29.47,SW,223,9.6,11.9,21,-99.99,,,0.00,753,rob ver 1B,2013-03-30 17:33:00,
2013-03-30 10:34:00,78.2,24.7,29.50,SSW,195,10.3,12.5,13,-99.99,,,0.00,444.6,rob ver 1A,2013-03-30 17:34:00,
2013-03-30 10:35:00,79.5,36.7,29.50,SW,236,7.5,10.2,21,-99.99,,,0.00,757,rob ver 1B,2013-03-30 17:35:00,
2013-03-30 10:36:00,79.6,36.4,29.50,WSW,241,6.3,8.7,21,-99.99,,,0.00,759,rob ver 1B,2013-03-30 17:36:00,
2013-03-30 10:37:00,80.0,36.7,29.50,WSW,252,8.0,10.5,20,-99.99,,,0.00,761,rob ver 1B,2013-03-30 17:37:00,
2013-03-30 10:38:00,80.3,36.4,29.50,WSW,248,8.5,11.8,20,-99.99,,,0.00,763,rob ver 1B,2013-03-30 17:38:00,
2013-03-30 10:39:00,78.2,24.8,29.50,SSW,195,8.3,10.3,13,-99.99,,,0.00,552,rob ver 1A,2013-03-30 17:39:00,
2013-03-30 10:40:00,79.2,36.4,29.50,SW,228,4.6,6.9,21,-99.99,,,0.00,768,rob ver 1B,2013-03-30 17:40:00,
2013-03-30 10:41:00,79.5,36.4,29.47,SSW,203,5.2,7.3,20,-99.99,,,0.00,769,rob ver 1B,2013-03-30 17:41:00,
2013-03-30 10:42:00,79.6,36.2,29.50,SSW,197,6.2,7.7,21,-99.99,,,0.00,771,rob ver 1B,2013-03-30 17:42:00,
2013-03-30 10:43:00,79.7,36.3,29.50,SW,233,4.6,6.7,20,-99.99,,,0.00,774,rob ver 1B,2013-03-30 17:43:00,
2013-03-30 10:44:00,78.2,28.5,29.50,SSW,194,10.0,13.9,16,-99.99,,,0.00,619.4,rob ver 1A,2013-03-30 17:44:00,
2013-03-30 10:45:00,80.2,36.5,29.50,West,274,7.1,8.4,20,-99.99,,,0.00,777,rob ver 1B,2013-03-30 17:45:00,
2013-03-30 10:46:00,80.2,36.5,29.50,West,273,4.8,6.5,20,-99.99,,,0.00,780,rob ver 1B,2013-03-30 17:46:00,
2013-03-30 10:47:00,80.0,36.5,29.50,WNW,289,3.1,6.2,20,-99.99,,,0.00,780,rob ver 1B,2013-03-30 17:47:00,
2013-03-30 10:48:00,80.2,36.5,29.50,WSW,246,3.9,6.4,20,-99.99,,,0.00,784,rob ver 1B,2013-03-30 17:48:00,
2013-03-30 10:49:00,78.1,30.3,29.50,SSW,193,8.3,11.2,17,-99.99,,,0.00,333.8,rob ver 1A,2013-03-30 17:49:00,
2013-03-30 10:50:00,80.3,36.5,29.50,West,260,4.2,5.7,20,-99.99,,,0.00,789,rob ver 1B,2013-03-30 17:50:00,
2013-03-30 10:51:00,80.3,36.6,29.50,West,261,4.4,9.3,20,-99.99,,,0.00,791,rob ver 1B,2013-03-30 17:51:00,
2013-03-30 10:52:00,80.3,36.5,29.50,West,263,4.4,9.5,20,-99.99,,,0.00,791,rob ver 1B,2013-03-30 17:52:00,
2013-03-30 10:53:00,80.3,36.6,29.50,West,259,2.4,4.5,20,-99.99,,,0.00,792,rob ver 1B,2013-03-30 17:53:00,
2013-03-30 10:54:00,77.8,28.6,29.50,South,186,9.8,11.9,16,-99.99,,,0.00,364.6,rob ver 1A,2013-03-30 17:54:00,
2013-03-30 10:55:00,80.8,37.0,29.47,SW,231,9.9,14.1,20,-99.99,,,0.00,797,rob ver 1B,2013-03-30 17:55:00,
2013-03-30 10:56:00,80.7,36.9,29.47,SW,225,9.7,12.6,20,-99.99,,,0.00,799,rob ver 1B,2013-03-30 17:56:00,
2013-03-30 10:57:00,80.5,37.1,29.47,WSW,252,8.6,11.9,21,-99.99,,,0.00,802,rob ver 1B,2013-03-30 17:57:00,
2013-03-30 10:58:00,80.6,37.1,29.47,WSW,249,8.2,14.4,20,-99.99,,,0.00,803,rob ver 1B,2013-03-30 17:58:00,
2013-03-30 10:59:00,77.5,29.7,29.50,SSW,201,10.1,13.3,17,-99.99,,,0.00,520.3,rob ver 1A,2013-03-30 17:59:00,
2013-03-30 11:00:00,80.3,37.1,29.47,SSW,203,8.6,12.9,21,-99.99,,,0.00,807,rob ver 1B,2013-03-30 18:00:00,
2013-03-30 11:01:00,80.3,37.1,29.47,SSW,206,5.4,9.1,21,-99.99,,,0.00,809,rob ver 1B,2013-03-30 18:01:00,
2013-03-30 11:02:00,80.4,37.2,29.47,SSW,204,3.1,6.4,21,-99.99,,,0.00,810,rob ver 1B,2013-03-30 18:02:00,
2013-03-30 11:03:00,80.9,37.3,29.47,SW,223,8.6,13.6,20,-99.99,,,0.00,812,rob ver 1B,2013-03-30 18:03:00,
2013-03-30 11:04:00,78.5,29.0,29.50,SSW,203,11.4,14.3,16,-99.99,,,0.00,924,rob ver 1A,2013-03-30 18:04:00,
2013-03-30 11:05:00,80.8,37.2,29.47,West,265,7.9,10.2,21,-99.99,,,0.00,816,rob ver 1B,2013-03-30 18:05:00,
2013-03-30 11:06:00,80.6,37.3,29.47,West,261,5.8,8.5,21,-99.99,,,0.00,817,rob ver 1B,2013-03-30 18:06:00,
2013-03-30 11:07:00,80.6,37.2,29.47,WSW,252,5.5,7.7,21,-99.99,,,0.00,819,rob ver 1B,2013-03-30 18:07:00,
2013-03-30 11:08:00,80.4,37.3,29.47,WSW,238,5.4,9.9,21,-99.99,,,0.00,821,rob ver 1B,2013-03-30 18:08:00,
2013-03-30 11:09:00,78.8,27.7,29.50,South,178,10.2,13.6,14,-99.99,,,0.00,951,rob ver 1A,2013-03-30 18:09:00,
2013-03-30 11:10:00,80.6,37.5,29.47,SSW,208,9.5,11.6,21,-99.99,,,0.00,825,rob ver 1B,2013-03-30 18:10:00,
2013-03-30 11:11:00,80.8,37.4,29.47,SSW,203,8.1,10.6,21,-99.99,,,0.00,826,rob ver 1B,2013-03-30 18:11:00,
2013-03-30 11:12:00,80.7,37.4,29.47,SSW,201,7.8,10.7,21,-99.99,,,0.00,826,rob ver 1B,2013-03-30 18:12:00,
2013-03-30 11:13:00,81.2,37.6,29.47,SW,232,9.7,11.2,20,-99.99,,,0.00,830,rob ver 1B,2013-03-30 18:13:00,
2013-03-30 11:14:00,81.0,37.5,29.47,SW,235,6.2,10.2,21,-99.99,,,0.00,831,rob ver 1B,2013-03-30 18:14:00,
2013-03-30 11:15:00,79.0,27.1,29.50,South,182,11.6,13.7,14,-99.99,,,0.00,917,rob ver 1A,2013-03-30 18:15:00,
2013-03-30 11:16:00,81.1,37.7,29.47,SW,226,8.0,10.5,21,-99.99,,,0.00,833,rob ver 1B,2013-03-30 18:16:00,
2013-03-30 11:17:00,81.2,37.8,29.47,SW,236,8.3,12.4,21,-99.99,,,0.00,834,rob ver 1B,2013-03-30 18:17:00,
2013-03-30 11:18:00,81.3,37.8,29.47,SW,236,9.4,11.6,21,-99.99,,,0.00,836,rob ver 1B,2013-03-30 18:18:00,
2013-03-30 11:19:00,81.2,37.8,29.47,SW,223,10.0,12.9,21,-99.99,,,0.00,837,rob ver 1B,2013-03-30 18:19:00,
2013-03-30 11:20:00,78.7,27.7,29.50,South,189,11.2,14.3,15,-99.99,,,0.00,781,rob ver 1A,2013-03-30 18:20:00,
2013-03-30 11:21:00,80.9,37.9,29.47,SSW,208,6.6,8.7,21,-99.99,,,0.00,840,rob ver 1B,2013-03-30 18:21:00,
2013-03-30 11:22:00,80.9,37.8,29.47,SW,223,5.3,7.6,21,-99.99,,,0.00,841,rob ver 1B,2013-03-30 18:22:00,
2013-03-30 11:23:00,81.0,37.8,29.47,SW,217,5.1,9.1,21,-99.99,,,0.00,843,rob ver 1B,2013-03-30 18:23:00,
2013-03-30 11:24:00,81.0,38.2,29.47,SW,225,5.1,8.8,21,-99.99,,,0.00,846,rob ver 1B,2013-03-30 18:24:00,
2013-03-30 11:25:00,78.2,27.2,29.50,South,183,11.4,14.0,15,-99.99,,,0.00,678.9,rob ver 1A,2013-03-30 18:25:00,
2013-03-30 11:26:00,81.2,38.3,29.47,South,189,6.6,9.2,21,-99.99,,,0.00,846,rob ver 1B,2013-03-30 18:26:00,
2013-03-30 11:27:00,81.3,38.5,29.47,SW,222,7.9,10.0,21,-99.99,,,0.00,849,rob ver 1B,2013-03-30 18:27:00,
2013-03-30 11:28:00,81.7,38.2,29.47,SW,215,11.8,15.6,21,-99.99,,,0.00,850,rob ver 1B,2013-03-30 18:28:00,
2013-03-30 11:29:00,81.4,38.2,29.47,SW,228,12.5,15.7,21,-99.99,,,0.00,851,rob ver 1B,2013-03-30 18:29:00,
2013-03-30 11:30:00,78.9,27.7,29.50,South,189,11.9,14.2,15,-99.99,,,0.00,1018,rob ver 1A,2013-03-30 18:30:00,
2013-03-30 11:31:00,80.8,38.1,29.47,SW,228,6.3,9.4,21,-99.99,,,0.00,852,rob ver 1B,2013-03-30 18:31:00,
2013-03-30 11:32:00,81.0,38.2,29.47,SW,220,8.1,11.0,21,-99.99,,,0.00,854,rob ver 1B,2013-03-30 18:32:00,
2013-03-30 11:33:00,81.1,38.1,29.47,SSW,202,4.3,9.7,21,-99.99,,,0.00,855,rob ver 1B,2013-03-30 18:33:00,
2013-03-30 11:34:00,81.6,38.3,29.47,SW,235,9.1,14.4,21,-99.99,,,0.00,856,rob ver 1B,2013-03-30 18:34:00,
2013-03-30 11:35:00,79.3,27.2,29.50,South,191,11.4,13.9,15,-99.99,,,0.00,989,rob ver 1A,2013-03-30 18:35:00,
2013-03-30 11:36:00,81.8,38.2,29.47,SSW,194,6.8,11.8,21,-99.99,,,0.00,859,rob ver 1B,2013-03-30 18:36:00,
2013-03-30 11:37:00,82.3,38.5,29.47,SSW,205,7.2,9.9,20,-99.99,,,0.00,861,rob ver 1B,2013-03-30 18:37:00,
2013-03-30 11:38:00,82.6,38.3,29.47,SW,222,8.7,12.5,20,-99.99,,,0.00,862,rob ver 1B,2013-03-30 18:38:00,
2013-03-30 11:39:00,82.3,38.2,29.47,WSW,246,7.9,10.6,21,-99.99,,,0.00,862,rob ver 1B,2013-03-30 18:39:00,
2013-03-30 11:40:00,80.1,26.7,29.50,SSW,193,11.9,13.6,13,-99.99,,,0.00,735,rob ver 1A,2013-03-30 18:40:00,
2013-03-30 11:41:00,81.9,38.7,29.47,SW,215,5.3,7.3,21,-99.99,,,0.00,863,rob ver 1B,2013-03-30 18:41:00,
2013-03-30 11:42:00,82.0,38.8,29.47,SW,218,5.5,8.5,21,-99.99,,,0.00,866,rob ver 1B,2013-03-30 18:42:00,
2013-03-30 11:43:00,82.4,39.3,29.47,SSW,211,9.7,14.1,21,-99.99,,,0.00,866,rob ver 1B,2013-03-30 18:43:00,
2013-03-30 11:44:00,82.5,39.1,29.47,SSW,198,11.2,14.4,21,-99.99,,,0.00,868,rob ver 1B,2013-03-30 18:44:00,
2013-03-30 11:45:00,79.7,26.1,29.50,SSW,198,10.8,14.9,13,-99.99,,,0.00,870,rob ver 1A,2013-03-30 18:45:00,
2013-03-30 11:46:00,82.2,39.0,29.47,SSW,212,7.5,13.1,21,-99.99,,,0.00,870,rob ver 1B,2013-03-30 18:46:00,
2013-03-30 11:47:00,82.9,39.0,29.47,SW,215,13.1,15.9,20,-99.99,,,0.00,871,rob ver 1B,2013-03-30 18:47:00,
2013-03-30 11:48:00,82.8,38.7,29.47,SSW,206,10.4,14.5,20,-99.99,,,0.00,873,rob ver 1B,2013-03-30 18:48:00,
2013-03-30 11:49:00,82.3,38.6,29.47,SW,219,9.9,12.8,21,-99.99,,,0.00,874,rob ver 1B,2013-03-30 18:49:00,
2013-03-30 11:50:00,80.1,25.5,29.50,SSW,197,10.5,14.6,13,-99.99,,,0.00,921,rob ver 1A,2013-03-30 18:50:00,
2013-03-30 11:51:00,82.5,38.8,29.47,SW,220,12.5,16.1,21,-99.99,,,0.00,876,rob ver 1B,2013-03-30 18:51:00,
2013-03-30 11:52:00,82.5,38.5,29.47,SW,235,13.9,17.3,20,-99.99,,,0.00,878,rob ver 1B,2013-03-30 18:52:00,
2013-03-30 11:53:00,82.1,38.1,29.47,SW,231,8.0,12.4,20,-99.99,,,0.00,878,rob ver 1B,2013-03-30 18:53:00,
2013-03-30 11:54:00,81.8,38.0,29.47,SW,231,5.0,6.4,21,-99.99,,,0.00,879,rob ver 1B,2013-03-30 18:54:00,
2013-03-30 11:55:00,80.6,25.3,29.50,SSW,211,10.2,13.4,12,-99.99,,,0.00,913,rob ver 1A,2013-03-30 18:55:00,
2013-03-30 11:56:00,82.6,39.0,29.47,SW,231,8.8,11.3,21,-99.99,,,0.00,879,rob ver 1B,2013-03-30 18:56:00,
2013-03-30 11:57:00,82.7,39.4,29.47,SSW,207,9.5,15.4,21,-99.99,,,0.00,883,rob ver 1B,2013-03-30 18:57:00,
2013-03-30 11:58:00,82.8,39.4,29.47,SW,219,13.9,17.7,21,-99.99,,,0.00,884,rob ver 1B,2013-03-30 18:58:00,
2013-03-30 11:59:00,82.5,39.3,29.47,SSW,213,10.6,15.1,21,-99.99,,,0.00,883,rob ver 1B,2013-03-30 18:59:00,
2013-03-30 12:00:00,81.5,27.0,29.50,South,183,8.9,10.5,13,-99.99,,,0.00,910,rob ver 1A,2013-03-30 19:00:00,
2013-03-30 12:01:00,81.9,39.4,29.47,SSW,203,9.8,12.5,22,-99.99,,,0.00,884,rob ver 1B,2013-03-30 19:01:00,
2013-03-30 12:02:00,82.1,39.5,29.47,SSW,208,9.6,11.6,21,-99.99,,,0.00,885,rob ver 1B,2013-03-30 19:02:00,
2013-03-30 12:03:00,82.7,39.4,29.47,SW,223,11.4,14.7,21,-99.99,,,0.00,885,rob ver 1B,2013-03-30 19:03:00,
2013-03-30 12:04:00,82.7,39.2,29.47,SW,217,10.8,14.2,21,-99.99,,,0.00,887,rob ver 1B,2013-03-30 19:04:00,
2013-03-30 12:05:00,81.1,26.3,29.50,SW,215,10.9,14.1,13,-99.99,,,0.00,909,rob ver 1A,2013-03-30 19:05:00,
2013-03-30 12:06:00,82.6,39.2,29.47,SSW,213,7.6,9.8,21,-99.99,,,0.00,889,rob ver 1B,2013-03-30 19:06:00,
2013-03-30 12:07:00,82.5,39.2,29.47,SW,229,10.1,13.6,21,-99.99,,,0.00,891,rob ver 1B,2013-03-30 19:07:00,
2013-03-30 12:08:00,82.8,39.4,29.47,SW,231,9.8,13.5,21,-99.99,,,0.00,891,rob ver 1B,2013-03-30 19:08:00,
2013-03-30 12:09:00,83.1,39.5,29.47,SW,236,13.9,19.2,21,-99.99,,,0.00,892,rob ver 1B,2013-03-30 19:09:00,
2013-03-30 12:10:00,82.9,39.6,29.47,WSW,241,13.6,18.5,21,-99.99,,,0.00,891,rob ver 1B,2013-03-30 19:10:00,
2013-03-30 12:11:00,81.8,28.0,29.50,South,187,11.4,14.6,13,-99.99,,,0.00,909,rob ver 1A,2013-03-30 19:11:00,
2013-03-30 12:12:00,82.9,39.5,29.47,SW,224,11.5,13.9,21,-99.99,,,0.00,892,rob ver 1B,2013-03-30 19:12:00,
2013-03-30 12:13:00,82.8,39.4,29.47,SW,232,9.9,13.8,21,-99.99,,,0.00,894,rob ver 1B,2013-03-30 19:13:00,
2013-03-30 12:14:00,82.3,39.4,29.47,SW,236,8.2,10.4,21,-99.99,,,0.00,894,rob ver 1B,2013-03-30 19:14:00,
2013-03-30 12:15:00,82.1,39.4,29.47,West,269,6.5,9.2,22,-99.99,,,0.00,894,rob ver 1B,2013-03-30 19:15:00,
2013-03-30 12:16:00,81.6,27.0,29.50,SSW,204,11.6,15.6,13,-99.99,,,0.00,905,rob ver 1A,2013-03-30 19:16:00,
2013-03-30 12:17:00,82.8,39.8,29.47,SW,228,9.4,13.3,21,-99.99,,,0.00,896,rob ver 1B,2013-03-30 19:17:00,
2013-03-30 12:18:00,83.7,39.5,29.47,SW,215,13.2,16.6,20,-99.99,,,0.00,898,rob ver 1B,2013-03-30 19:18:00,
2013-03-30 12:19:00,83.8,39.7,29.47,WSW,239,12.7,15.6,21,-99.99,,,0.00,896,rob ver 1B,2013-03-30 19:19:00,
2013-03-30 12:20:00,83.2,39.7,29.47,SW,236,11.7,14.8,21,-99.99,,,0.00,896,rob ver 1B,2013-03-30 19:20:00,
2013-03-30 12:21:00,81.5,26.1,29.50,South,186,8.8,15.3,12,-99.99,,,0.00,912,rob ver 1A,2013-03-30 19:21:00,
2013-03-30 12:22:00,83.9,38.8,29.47,SSW,206,13.5,17.2,20,-99.99,,,0.00,898,rob ver 1B,2013-03-30 19:22:00,
2013-03-30 12:23:00,83.4,38.6,29.47,SSW,193,11.7,15.3,20,-99.99,,,0.00,899,rob ver 1B,2013-03-30 19:23:00,
2013-03-30 12:24:00,83.2,38.6,29.47,SSW,210,12.4,16.4,20,-99.99,,,0.00,902,rob ver 1B,2013-03-30 19:24:00,
2013-03-30 12:25:00,83.1,38.4,29.47,SW,221,9.0,12.1,20,-99.99,,,0.00,898,rob ver 1B,2013-03-30 19:25:00,
2013-03-30 12:26:00,82.3,25.4,29.50,SSE,164,6.4,9.2,12,-99.99,,,0.00,914,rob ver 1A,2013-03-30 19:26:00,
2013-03-30 12:27:00,83.1,39.5,29.47,SW,229,12.1,16.1,21,-99.99,,,0.00,900,rob ver 1B,2013-03-30 19:27:00,
2013-03-30 12:28:00,82.8,39.5,29.47,WSW,244,9.2,12.0,21,-99.99,,,0.00,900,rob ver 1B,2013-03-30 19:28:00,
2013-03-30 12:29:00,82.5,39.6,29.47,WSW,258,9.7,14.5,22,-99.99,,,0.00,901,rob ver 1B,2013-03-30 19:29:00,
2013-03-30 12:30:00,82.5,39.7,29.47,West,266,15.3,19.4,21,-99.99,,,0.00,899,rob ver 1B,2013-03-30 19:30:00,
2013-03-30 12:31:00,82.3,26.1,29.50,SSE,166,8.1,11.3,12,-99.99,,,0.00,917,rob ver 1A,2013-03-30 19:31:00,
2013-03-30 12:32:00,82.8,39.7,29.47,WSW,253,12.0,14.2,21,-99.99,,,0.00,900,rob ver 1B,2013-03-30 19:32:00,
2013-03-30 12:33:00,82.8,39.7,29.47,WSW,253,10.3,15.5,21,-99.99,,,0.00,900,rob ver 1B,2013-03-30 19:33:00,
2013-03-30 12:34:00,83.3,39.7,29.47,WSW,238,13.9,20.7,20,-99.99,,,0.00,902,rob ver 1B,2013-03-30 19:34:00,
2013-03-30 12:35:00,83.2,39.0,29.47,SSW,210,14.1,19.7,20,-99.99,,,0.00,900,rob ver 1B,2013-03-30 19:35:00,
2013-03-30 12:36:00,82.8,25.9,29.50,South,181,9.4,11.9,12,-99.99,,,0.00,925,rob ver 1A,2013-03-30 19:36:00,
2013-03-30 12:37:00,83.1,39.1,29.47,SW,227,5.4,9.8,21,-99.99,,,0.00,900,rob ver 1B,2013-03-30 19:37:00,
2013-03-30 12:38:00,83.0,39.5,29.47,SSW,209,4.0,7.7,21,-99.99,,,0.00,899,rob ver 1B,2013-03-30 19:38:00,
2013-03-30 12:39:00,82.9,39.5,29.47,SSW,206,4.0,6.8,21,-99.99,,,0.00,899,rob ver 1B,2013-03-30 19:39:00,
2013-03-30 12:40:00,83.1,40.0,29.47,SW,221,12.2,19.5,21,-99.99,,,0.00,902,rob ver 1B,2013-03-30 19:40:00,
2013-03-30 12:41:00,82.8,25.8,29.50,SSW,203,4.8,6.9,12,-99.99,,,0.00,917,rob ver 1A,2013-03-30 19:41:00,
2013-03-30 12:42:00,83.1,39.9,29.47,WSW,240,13.4,16.3,21,-99.99,,,0.00,901,rob ver 1B,2013-03-30 19:42:00,
2013-03-30 12:43:00,82.6,39.9,29.47,WSW,239,11.5,15.1,22,-99.99,,,0.00,900,rob ver 1B,2013-03-30 19:43:00,
2013-03-30 12:44:00,82.5,40.0,29.47,SW,228,10.4,13.2,22,-99.99,,,0.00,899,rob ver 1B,2013-03-30 19:44:00,
2013-03-30 12:45:00,82.3,40.1,29.47,SW,227,8.4,10.7,22,-99.99,,,0.00,899,rob ver 1B,2013-03-30 19:45:00,
2013-03-30 12:46:00,82.9,26.3,29.50,SSE,166,8.2,10.0,12,-99.99,,,0.00,914,rob ver 1A,2013-03-30 19:46:00,
2013-03-30 12:47:00,83.3,40.2,29.47,SW,234,13.2,18.4,21,-99.99,,,0.00,896,rob ver 1B,2013-03-30 19:47:00,
2013-03-30 12:48:00,83.9,40.2,29.47,WSW,243,10.6,14.9,20,-99.99,,,0.00,899,rob ver 1B,2013-03-30 19:48:00,
2013-03-30 12:49:00,83.6,40.0,29.47,West,272,10.1,14.6,21,-99.99,,,0.00,899,rob ver 1B,2013-03-30 19:49:00,
2013-03-30 12:50:00,82.9,40.1,29.47,WSW,252,8.4,14.2,22,-99.99,,,0.00,897,rob ver 1B,2013-03-30 19:50:00,
2013-03-30 12:51:00,82.8,26.3,29.50,SSE,165,6.1,7.3,12,-99.99,,,0.00,913,rob ver 1A,2013-03-30 19:51:00,
2013-03-30 12:52:00,82.4,40.0,29.47,WSW,251,7.8,10.2,22,-99.99,,,0.00,902,rob ver 1B,2013-03-30 19:52:00,
2013-03-30 12:53:00,82.8,40.5,29.47,SW,221,13.5,18.8,21,-99.99,,,0.00,899,rob ver 1B,2013-03-30 19:53:00,
2013-03-30 12:54:00,83.4,40.5,29.47,SW,224,16.3,22.7,21,-99.99,,,0.00,899,rob ver 1B,2013-03-30 19:54:00,
2013-03-30 12:55:00,83.2,40.6,29.47,SW,224,13.1,17.8,22,-99.99,,,0.00,898,rob ver 1B,2013-03-30 19:55:00,
2013-03-30 12:56:00,83.3,26.2,29.50,SW,221,4.8,6.0,12,-99.99,,,0.00,913,rob ver 1A,2013-03-30 19:56:00,
2013-03-30 12:57:00,83.3,40.5,29.47,WSW,250,14.4,19.3,22,-99.99,,,0.00,897,rob ver 1B,2013-03-30 19:57:00,
2013-03-30 12:58:00,82.9,40.6,29.47,WSW,242,15.5,22.1,22,-99.99,,,0.00,897,rob ver 1B,2013-03-30 19:58:00,
2013-03-30 12:59:00,83.0,40.8,29.47,SW,229,15.4,19.2,22,-99.99,,,0.00,896,rob ver 1B,2013-03-30 19:59:00,
2013-03-30 13:00:00,82.8,40.7,29.47,SW,221,13.2,18.9,22,-99.99,,,0.00,898,rob ver 1B,2013-03-30 20:00:00,
2013-03-30 13:01:00,84.3,27.4,29.50,SSW,203,6.8,10.5,12,-99.99,,,0.00,932,rob ver 1A,2013-03-30 20:01:00,
2013-03-30 13:02:00,82.7,40.7,29.47,SW,218,11.8,15.2,22,-99.99,,,0.00,896,rob ver 1B,2013-03-30 20:02:00,
2013-03-30 13:03:00,83.0,40.8,29.47,SW,222,11.6,15.6,22,-99.99,,,0.00,897,rob ver 1B,2013-03-30 20:03:00,
2013-03-30 13:04:00,83.2,40.9,29.47,SW,223,13.9,18.7,22,-99.99,,,0.00,896,rob ver 1B,2013-03-30 20:04:00,
2013-03-30 13:05:00,83.3,40.9,29.44,SW,229,15.8,21.7,22,-99.99,,,0.00,898,rob ver 1B,2013-03-30 20:05:00,
2013-03-30 13:06:00,83.9,27.0,29.47,SSW,194,6.0,8.9,12,-99.99,,,0.00,856,rob ver 1A,2013-03-30 20:06:00,
2013-03-30 13:07:00,82.6,40.8,29.47,WSW,240,13.6,16.6,22,-99.99,,,0.00,896,rob ver 1B,2013-03-30 20:07:00,
2013-03-30 13:08:00,82.2,40.8,29.47,SW,236,9.6,13.0,23,-99.99,,,0.00,894,rob ver 1B,2013-03-30 20:08:00,
2013-03-30 13:09:00,82.1,40.9,29.47,WSW,247,6.2,8.5,23,-99.99,,,0.00,893,rob ver 1B,2013-03-30 20:09:00,
2013-03-30 13:10:00,82.9,41.1,29.47,SW,228,10.5,16.4,22,-99.99,,,0.00,896,rob ver 1B,2013-03-30 20:10:00,
2013-03-30 13:11:00,83.9,41.1,29.44,SW,217,12.9,15.7,21,-99.99,,,0.00,895,rob ver 1B,2013-03-30 20:11:00,
2013-03-30 13:12:00,83.0,27.1,29.47,SE,141,3.5,5.0,12,-99.99,,,0.00,802,rob ver 1A,2013-03-30 20:12:00,
2013-03-30 13:13:00,84.4,41.1,29.44,SSW,210,11.8,14.8,21,-99.99,,,0.00,895,rob ver 1B,2013-03-30 20:13:00,
2013-03-30 13:14:00,84.8,40.9,29.44,SW,226,14.0,18.1,21,-99.99,,,0.00,894,rob ver 1B,2013-03-30 20:14:00,
2013-03-30 13:15:00,84.4,40.8,29.44,SW,219,14.4,18.7,21,-99.99,,,0.00,896,rob ver 1B,2013-03-30 20:15:00,
2013-03-30 13:16:00,83.8,40.8,29.44,SSW,209,14.5,20.6,22,-99.99,,,0.00,894,rob ver 1B,2013-03-30 20:16:00,
2013-03-30 13:17:00,84.2,27.5,29.47,South,169,2.4,3.6,12,-99.99,,,0.00,891,rob ver 1A,2013-03-30 20:17:00,
2013-03-30 13:18:00,83.5,40.6,29.47,SSW,212,10.1,11.9,22,-99.99,,,0.00,895,rob ver 1B,2013-03-30 20:18:00,
2013-03-30 13:19:00,83.2,40.7,29.47,WSW,245,11.5,18.4,22,-99.99,,,0.00,893,rob ver 1B,2013-03-30 20:19:00,
2013-03-30 13:20:00,82.9,40.8,29.44,WSW,254,9.5,12.6,22,-99.99,,,0.00,893,rob ver 1B,2013-03-30 20:20:00,
2013-03-30 13:21:00,82.9,40.9,29.44,WSW,254,8.3,13.4,22,-99.99,,,0.00,893,rob ver 1B,2013-03-30 20:21:00,
2013-03-30 13:22:00,84.0,28.0,29.47,SSE,165,3.3,5.2,13,-99.99,,,0.00,843,rob ver 1A,2013-03-30 20:22:00,
2013-03-30 13:23:00,83.0,41.0,29.44,WSW,238,11.6,15.4,22,-99.99,,,0.00,893,rob ver 1B,2013-03-30 20:23:00,
2013-03-30 13:24:00,83.2,41.1,29.44,WSW,238,11.0,14.9,22,-99.99,,,0.00,894,rob ver 1B,2013-03-30 20:24:00,
2013-03-30 13:25:00,83.1,41.0,29.44,SW,215,12.8,21.0,22,-99.99,,,0.00,891,rob ver 1B,2013-03-30 20:25:00,
2013-03-30 13:26:00,83.0,41.0,29.44,SW,225,14.9,20.5,22,-99.99,,,0.00,890,rob ver 1B,2013-03-30 20:26:00,
2013-03-30 13:27:00,84.7,30.2,29.47,SSW,208,5.8,9.8,14,-99.99,,,0.00,883,rob ver 1A,2013-03-30 20:27:00,
2013-03-30 13:28:00,83.3,41.1,29.44,SSW,210,12.8,16.2,22,-99.99,,,0.00,891,rob ver 1B,2013-03-30 20:28:00,
2013-03-30 13:29:00,83.0,41.0,29.44,SSW,208,9.9,11.9,22,-99.99,,,0.00,889,rob ver 1B,2013-03-30 20:29:00,
2013-03-30 13:30:00,82.9,41.0,29.44,SSW,213,7.5,12.3,22,-99.99,,,0.00,888,rob ver 1B,2013-03-30 20:30:00,
2013-03-30 13:31:00,82.8,41.0,29.44,SSW,211,6.3,9.1,22,-99.99,,,0.00,881,rob ver 1B,2013-03-30 20:31:00,
2013-03-30 13:32:00,84.4,31.5,29.47,SW,229,4.1,7.6,15,-99.99,,,0.00,892,rob ver 1A,2013-03-30 20:32:00,
2013-03-30 13:33:00,84.2,41.1,29.44,West,260,13.6,18.3,21,-99.99,,,0.00,866,rob ver 1B,2013-03-30 20:33:00,
2013-03-30 13:34:00,84.1,41.0,29.44,SW,233,14.9,18.7,21,-99.99,,,0.00,870,rob ver 1B,2013-03-30 20:34:00,
2013-03-30 13:35:00,83.9,40.8,29.44,SW,217,15.2,18.2,21,-99.99,,,0.00,858,rob ver 1B,2013-03-30 20:35:00,
2013-03-30 13:36:00,83.8,40.9,29.44,WSW,242,13.7,19.3,21,-99.99,,,0.00,841,rob ver 1B,2013-03-30 20:36:00,
2013-03-30 13:37:00,84.5,32.6,29.47,South,180,6.1,8.3,15,-99.99,,,0.00,886,rob ver 1A,2013-03-30 20:37:00,
2013-03-30 13:38:00,82.8,40.8,29.44,West,264,8.7,14.4,22,-99.99,,,0.00,882,rob ver 1B,2013-03-30 20:38:00,
2013-03-30 13:39:00,82.5,41.0,29.44,WSW,256,5.2,9.2,22,-99.99,,,0.00,876,rob ver 1B,2013-03-30 20:39:00,
2013-03-30 13:40:00,82.8,41.1,29.44,SSE,164,6.2,11.5,22,-99.99,,,0.00,842,rob ver 1B,2013-03-30 20:40:00,
2013-03-30 13:41:00,83.4,40.9,29.44,SW,225,14.6,18.7,21,-99.99,,,0.00,872,rob ver 1B,2013-03-30 20:41:00,
2013-03-30 13:42:00,85.7,30.0,29.47,SSE,159,8.5,10.8,13,-99.99,,,0.00,884,rob ver 1A,2013-03-30 20:42:00,
2013-03-30 13:43:00,84.0,40.5,29.44,SW,229,15.1,19.7,21,-99.99,,,0.00,882,rob ver 1B,2013-03-30 20:43:00,
2013-03-30 13:44:00,83.9,40.4,29.44,SW,225,17.9,22.1,21,-99.99,,,0.00,868,rob ver 1B,2013-03-30 20:44:00,
2013-03-30 13:45:00,83.6,40.3,29.44,SW,219,15.6,17.9,21,-99.99,,,0.00,835,rob ver 1B,2013-03-30 20:45:00,
2013-03-30 13:46:00,83.7,40.5,29.44,SW,216,15.9,20.3,21,-99.99,,,0.00,841,rob ver 1B,2013-03-30 20:46:00,
2013-03-30 13:47:00,84.9,30.5,29.47,SSW,192,9.1,13.4,13,-99.99,,,0.00,879,rob ver 1A,2013-03-30 20:47:00,
2013-03-30 13:48:00,84.0,40.6,29.44,SW,218,16.3,18.3,21,-99.99,,,0.00,816,rob ver 1B,2013-03-30 20:48:00,
2013-03-30 13:49:00,83.5,40.4,29.44,SSW,213,13.3,16.2,21,-99.99,,,0.00,769,rob ver 1B,2013-03-30 20:49:00,
2013-03-30 13:50:00,83.5,40.5,29.44,SW,221,10.9,16.3,21,-99.99,,,0.00,783,rob ver 1B,2013-03-30 20:50:00,
2013-03-30 13:51:00,83.4,40.5,29.44,SW,231,13.3,18.6,21,-99.99,,,0.00,823,rob ver 1B,2013-03-30 20:51:00,
2013-03-30 13:52:00,85.2,30.7,29.47,SSW,212,6.2,9.9,14,-99.99,,,0.00,873,rob ver 1A,2013-03-30 20:52:00,
2013-03-30 13:53:00,83.1,40.6,29.44,West,263,6.8,11.0,22,-99.99,,,0.00,848,rob ver 1B,2013-03-30 20:53:00,
2013-03-30 13:54:00,82.9,40.7,29.44,WNW,282,7.3,9.8,22,-99.99,,,0.00,836,rob ver 1B,2013-03-30 20:54:00,
2013-03-30 13:55:00,82.8,40.7,29.44,WSW,253,6.7,9.1,22,-99.99,,,0.00,760,rob ver 1B,2013-03-30 20:55:00,
2013-03-30 13:56:00,82.8,40.7,29.44,SSW,192,7.0,9.1,22,-99.99,,,0.00,717,rob ver 1B,2013-03-30 20:56:00,
2013-03-30 13:57:00,82.6,40.6,29.44,South,181,2.1,4.6,22,-99.99,,,0.00,814,rob ver 1B,2013-03-30 20:57:00,
2013-03-30 13:58:00,85.3,31.8,29.47,SW,221,7.6,9.2,14,-99.99,,,0.00,873,rob ver 1A,2013-03-30 20:58:00,
2013-03-30 13:59:00,83.2,40.6,29.44,SW,236,9.0,13.3,22,-99.99,,,0.00,759,rob ver 1B,2013-03-30 20:59:00,
2013-03-30 14:00:00,83.0,40.7,29.44,SW,230,12.1,19.1,22,-99.99,,,0.00,791,rob ver 1B,2013-03-30 21:00:00,
2013-03-30 14:01:00,83.8,40.8,29.44,SW,228,14.2,18.2,21,-99.99,,,0.00,770,rob ver 1B,2013-03-30 21:01:00,
2013-03-30 14:02:00,84.2,40.5,29.44,SW,236,13.6,17.0,21,-99.99,,,0.00,746,rob ver 1B,2013-03-30 21:02:00,
2013-03-30 14:03:00,84.9,31.5,29.47,West,272,4.7,7.6,14,-99.99,,,0.00,860,rob ver 1A,2013-03-30 21:03:00,
2013-03-30 14:04:00,84.2,40.6,29.44,WSW,244,14.7,17.9,21,-99.99,,,0.00,801,rob ver 1B,2013-03-30 21:04:00,
2013-03-30 14:05:00,84.1,40.5,29.44,SW,225,13.0,14.7,21,-99.99,,,0.00,815,rob ver 1B,2013-03-30 21:05:00,
2013-03-30 14:06:00,83.8,40.5,29.44,WSW,239,9.9,12.9,21,-99.99,,,0.00,797,rob ver 1B,2013-03-30 21:06:00,
2013-03-30 14:07:00,83.6,40.5,29.44,WSW,257,6.8,11.0,21,-99.99,,,0.00,832,rob ver 1B,2013-03-30 21:07:00,
2013-03-30 14:08:00,85.7,28.3,29.47,East,85,4.4,6.2,12,-99.99,,,0.00,847,rob ver 1A,2013-03-30 21:08:00,
2013-03-30 14:09:00,83.5,40.5,29.44,SSW,202,7.2,9.9,21,-99.99,,,0.00,831,rob ver 1B,2013-03-30 21:09:00,
2013-03-30 14:10:00,83.7,40.5,29.44,SSW,209,8.5,11.8,21,-99.99,,,0.00,819,rob ver 1B,2013-03-30 21:10:00,
2013-03-30 14:11:00,83.6,40.7,29.44,SW,220,9.4,11.5,22,-99.99,,,0.00,842,rob ver 1B,2013-03-30 21:11:00,
2013-03-30 14:12:00,83.2,40.7,29.44,SW,222,5.3,13.8,22,-99.99,,,0.00,822,rob ver 1B,2013-03-30 21:12:00,
2013-03-30 14:13:00,85.9,29.6,29.44,South,180,8.4,12.5,12,-99.99,,,0.00,844,rob ver 1A,2013-03-30 21:13:00,
2013-03-30 14:14:00,83.6,40.8,29.44,WSW,239,9.0,10.8,22,-99.99,,,0.00,711,rob ver 1B,2013-03-30 21:14:00,
2013-03-30 14:15:00,84.0,40.8,29.44,WSW,256,10.8,13.0,21,-99.99,,,0.00,833,rob ver 1B,2013-03-30 21:15:00,
2013-03-30 14:16:00,84.3,40.8,29.44,WSW,240,10.4,12.5,21,-99.99,,,0.00,794,rob ver 1B,2013-03-30 21:16:00,
2013-03-30 14:17:00,84.3,40.4,29.44,South,189,7.2,11.5,21,-99.99,,,0.00,805,rob ver 1B,2013-03-30 21:17:00,
2013-03-30 14:18:00,85.7,28.9,29.44,South,173,8.7,10.8,12,-99.99,,,0.00,838,rob ver 1A,2013-03-30 21:18:00,
2013-03-30 14:19:00,83.3,40.1,29.44,South,170,4.5,7.0,21,-99.99,,,0.00,788,rob ver 1B,2013-03-30 21:19:00,
2013-03-30 14:20:00,83.4,40.3,29.41,SW,224,3.9,6.3,21,-99.99,,,0.00,835,rob ver 1B,2013-03-30 21:20:00,
2013-03-30 14:21:00,83.6,40.7,29.41,WSW,253,4.7,7.6,22,-99.99,,,0.00,825,rob ver 1B,2013-03-30 21:21:00,
2013-03-30 14:22:00,83.6,40.8,29.41,SW,226,2.6,5.1,22,-99.99,,,0.00,840,rob ver 1B,2013-03-30 21:22:00,
2013-03-30 14:23:00,85.9,27.7,29.44,SW,216,7.5,10.0,11,-99.99,,,0.00,830,rob ver 1A,2013-03-30 21:23:00,
2013-03-30 14:24:00,84.6,41.0,29.41,West,272,6.8,17.7,20,-99.99,,,0.00,840,rob ver 1B,2013-03-30 21:24:00,
2013-03-30 14:25:00,85.2,40.6,29.41,SW,221,8.6,15.3,20,-99.99,,,0.00,838,rob ver 1B,2013-03-30 21:25:00,
2013-03-30 14:26:00,85.2,40.5,29.41,SW,215,10.2,13.8,20,-99.99,,,0.00,836,rob ver 1B,2013-03-30 21:26:00,
2013-03-30 14:27:00,84.8,40.4,29.41,SW,229,10.0,15.3,20,-99.99,,,0.00,834,rob ver 1B,2013-03-30 21:27:00,
2013-03-30 14:28:00,85.9,27.1,29.44,SW,216,2.3,5.5,11,-99.99,,,0.00,817,rob ver 1A,2013-03-30 21:28:00,
2013-03-30 14:29:00,85.8,39.8,29.41,SSW,201,14.3,18.8,19,-99.99,,,0.00,827,rob ver 1B,2013-03-30 21:29:00,
2013-03-30 14:30:00,85.6,39.7,29.41,SSW,194,14.9,18.8,19,-99.99,,,0.00,824,rob ver 1B,2013-03-30 21:30:00,
2013-03-30 14:31:00,85.3,39.5,29.41,SSW,196,12.5,16.0,20,-99.99,,,0.00,824,rob ver 1B,2013-03-30 21:31:00,
2013-03-30 14:32:00,85.0,39.6,29.41,SSW,195,11.0,17.8,20,-99.99,,,0.00,821,rob ver 1B,2013-03-30 21:32:00,
2013-03-30 14:33:00,85.7,27.0,29.44,SE,138,4.3,6.2,11,-99.99,,,0.00,810,rob ver 1A,2013-03-30 21:33:00,
2013-03-30 14:34:00,85.1,39.7,29.41,SSW,192,9.2,13.0,20,-99.99,,,0.00,817,rob ver 1B,2013-03-30 21:34:00,
2013-03-30 14:35:00,85.0,39.6,29.41,SSW,200,9.2,12.1,20,-99.99,,,0.00,813,rob ver 1B,2013-03-30 21:35:00,
2013-03-30 14:36:00,84.7,39.7,29.41,South,184,10.1,11.9,20,-99.99,,,0.00,810,rob ver 1B,2013-03-30 21:36:00,
2013-03-30 14:37:00,84.1,39.7,29.41,South,188,7.0,14.0,21,-99.99,,,0.00,807,rob ver 1B,2013-03-30 21:37:00,
2013-03-30 14:38:00,86.7,28.1,29.44,South,177,9.9,13.0,12,-99.99,,,0.00,803,rob ver 1A,2013-03-30 21:38:00,
2013-03-30 14:39:00,84.9,40.0,29.41,SSE,155,10.7,12.9,20,-99.99,,,0.00,804,rob ver 1B,2013-03-30 21:39:00,
2013-03-30 14:40:00,84.2,39.8,29.41,SE,127,8.1,11.1,21,-99.99,,,0.00,801,rob ver 1B,2013-03-30 21:40:00,
2013-03-30 14:41:00,84.1,39.8,29.41,SSE,151,11.0,15.9,20,-99.99,,,0.00,798,rob ver 1B,2013-03-30 21:41:00,
2013-03-30 14:42:00,84.6,40.0,29.41,South,178,12.5,16.6,20,-99.99,,,0.00,796,rob ver 1B,2013-03-30 21:42:00,
2013-03-30 14:43:00,86.3,28.1,29.44,SE,138,4.4,7.0,12,-99.99,,,0.00,787,rob ver 1A,2013-03-30 21:43:00,
2013-03-30 14:44:00,85.7,39.5,29.41,SSW,198,11.6,14.3,19,-99.99,,,0.00,794,rob ver 1B,2013-03-30 21:44:00,
2013-03-30 14:45:00,85.4,39.3,29.41,SW,214,10.3,12.5,19,-99.99,,,0.00,792,rob ver 1B,2013-03-30 21:45:00,
2013-03-30 14:46:00,84.8,39.3,29.41,SW,216,10.3,16.6,20,-99.99,,,0.00,788,rob ver 1B,2013-03-30 21:46:00,
2013-03-30 14:47:00,85.1,39.8,29.41,South,182,13.5,16.3,20,-99.99,,,0.00,787,rob ver 1B,2013-03-30 21:47:00,
2013-03-30 14:48:00,86.4,27.4,29.44,SSW,212,1.4,2.1,11,-99.99,,,0.00,777,rob ver 1A,2013-03-30 21:48:00,
2013-03-30 14:49:00,86.3,39.8,29.41,SSW,197,12.8,18.1,19,-99.99,,,0.00,760,rob ver 1B,2013-03-30 21:49:00,
2013-03-30 14:50:00,86.3,39.5,29.41,SSW,202,12.0,15.5,19,-99.99,,,0.00,768,rob ver 1B,2013-03-30 21:50:00,
2013-03-30 14:51:00,86.1,39.5,29.41,SSW,202,8.9,10.5,18,-99.99,,,0.00,775,rob ver 1B,2013-03-30 21:51:00,
2013-03-30 14:52:00,86.5,38.7,29.41,SSW,203,7.3,9.5,18,-99.99,,,0.00,750,rob ver 1B,2013-03-30 21:52:00,
2013-03-30 14:53:00,87.6,28.4,29.44,West,262,4.3,10.4,11,-99.99,,,0.00,769,rob ver 1A,2013-03-30 21:53:00,
2013-03-30 14:54:00,86.5,39.0,29.41,SSW,201,11.4,16.2,18,-99.99,,,0.00,740,rob ver 1B,2013-03-30 21:54:00,
2013-03-30 14:55:00,86.1,38.7,29.41,South,190,13.3,17.9,18,-99.99,,,0.00,737,rob ver 1B,2013-03-30 21:55:00,
2013-03-30 14:56:00,85.7,39.0,29.41,South,174,13.2,17.0,19,-99.99,,,0.00,718,rob ver 1B,2013-03-30 21:56:00,
2013-03-30 14:57:00,85.8,39.3,29.38,South,185,14.9,24.1,19,-99.99,,,0.00,736,rob ver 1B,2013-03-30 21:57:00,
2013-03-30 14:58:00,86.0,39.0,29.41,SW,233,11.8,18.4,19,-99.99,,,0.00,709,rob ver 1B,2013-03-30 21:58:00,
2013-03-30 14:59:00,86.3,27.3,29.44,SE,146,7.7,10.7,11,-99.99,,,0.00,758,rob ver 1A,2013-03-30 21:59:00,
2013-03-30 15:00:00,85.4,39.3,29.41,SW,232,11.5,14.1,19,-99.99,,,0.00,757,rob ver 1B,2013-03-30 22:00:00,
2013-03-30 15:01:00,84.9,39.4,29.41,SW,230,8.2,11.3,20,-99.99,,,0.00,735,rob ver 1B,2013-03-30 22:01:00,
2013-03-30 15:02:00,84.9,39.4,29.41,SW,219,7.9,10.0,19,-99.99,,,0.00,740,rob ver 1B,2013-03-30 22:02:00,
2013-03-30 15:03:00,85.0,39.4,29.41,WSW,256,6.9,9.5,20,-99.99,,,0.00,714,rob ver 1B,2013-03-30 22:03:00,
2013-03-30 15:04:00,87.3,27.5,29.44,SSW,201,12.4,14.9,11,-99.99,,,0.00,747,rob ver 1A,2013-03-30 22:04:00,
2013-03-30 15:05:00,86.0,39.4,29.38,SW,221,17.7,21.6,18,-99.99,,,0.00,731,rob ver 1B,2013-03-30 22:05:00,
2013-03-30 15:06:00,86.3,39.1,29.38,SW,214,17.4,21.4,19,-99.99,,,0.00,682.1,rob ver 1B,2013-03-30 22:06:00,
2013-03-30 15:07:00,85.5,39.2,29.38,SW,223,15.9,19.6,19,-99.99,,,0.00,683.2,rob ver 1B,2013-03-30 22:07:00,
2013-03-30 15:08:00,85.3,39.3,29.38,SW,218,13.9,17.6,19,-99.99,,,0.00,707,rob ver 1B,2013-03-30 22:08:00,
2013-03-30 15:09:00,86.4,27.9,29.44,SW,220,4.6,7.2,12,-99.99,,,0.00,727,rob ver 1A,2013-03-30 22:09:00,
2013-03-30 15:10:00,85.0,39.3,29.38,SW,218,15.0,20.9,19,-99.99,,,0.00,739,rob ver 1B,2013-03-30 22:10:00,
2013-03-30 15:11:00,84.3,39.3,29.41,SW,227,9.5,14.5,20,-99.99,,,0.00,686.7,rob ver 1B,2013-03-30 22:11:00,
2013-03-30 15:12:00,84.6,39.3,29.38,SSW,201,10.7,15.2,20,-99.99,,,0.00,622.5,rob ver 1B,2013-03-30 22:12:00,
2013-03-30 15:13:00,84.7,39.4,29.38,SSW,192,9.5,15.0,20,-99.99,,,0.00,717,rob ver 1B,2013-03-30 22:13:00,
2013-03-30 15:14:00,86.5,28.4,29.44,WNW,289,2.2,3.3,12,-99.99,,,0.00,719,rob ver 1A,2013-03-30 22:14:00,
2013-03-30 15:15:00,85.5,39.2,29.38,SW,234,16.5,20.2,19,-99.99,,,0.00,637.5,rob ver 1B,2013-03-30 22:15:00,
2013-03-30 15:16:00,84.8,39.1,29.38,WSW,240,12.7,15.8,19,-99.99,,,0.00,663.7,rob ver 1B,2013-03-30 22:16:00,
2013-03-30 15:17:00,84.5,39.2,29.41,SW,234,6.4,12.2,20,-99.99,,,0.00,685.2,rob ver 1B,2013-03-30 22:17:00,
2013-03-30 15:18:00,84.4,39.3,29.41,SW,215,6.4,8.3,20,-99.99,,,0.00,689.8,rob ver 1B,2013-03-30 22:18:00,
2013-03-30 15:19:00,88.2,28.6,29.44,South,175,8.9,11.7,11,-99.99,,,0.00,705,rob ver 1A,2013-03-30 22:19:00,
2013-03-30 15:20:00,84.7,39.2,29.41,SW,226,6.9,13.8,20,-99.99,,,0.00,719,rob ver 1B,2013-03-30 22:20:00,
2013-03-30 15:21:00,84.9,38.9,29.38,SW,221,15.3,18.1,19,-99.99,,,0.00,661.6,rob ver 1B,2013-03-30 22:21:00,
2013-03-30 15:22:00,85.5,38.7,29.38,SW,216,15.0,17.2,18,-99.99,,,0.00,666.7,rob ver 1B,2013-03-30 22:22:00,
2013-03-30 15:23:00,85.9,38.8,29.38,SW,218,14.9,18.2,19,-99.99,,,0.00,610.8,rob ver 1B,2013-03-30 22:23:00,
2013-03-30 15:24:00,86.9,28.0,29.44,SSE,154,6.8,9.6,11,-99.99,,,0.00,691.7,rob ver 1A,2013-03-30 22:24:00,
2013-03-30 15:25:00,84.8,39.1,29.38,SW,220,9.4,14.8,20,-99.99,,,0.00,650.8,rob ver 1B,2013-03-30 22:25:00,
2013-03-30 15:26:00,84.6,39.2,29.41,SSW,212,8.6,10.4,20,-99.99,,,0.00,625.7,rob ver 1B,2013-03-30 22:26:00,
2013-03-30 15:27:00,84.8,39.4,29.38,South,190,10.1,16.7,20,-99.99,,,0.00,616.4,rob ver 1B,2013-03-30 22:27:00,
2013-03-30 15:28:00,85.0,39.5,29.38,SSW,207,13.0,17.3,19,-99.99,,,0.00,664,rob ver 1B,2013-03-30 22:28:00,
2013-03-30 15:29:00,87.0,27.7,29.44,SW,223,6.7,9.3,11,-99.99,,,0.00,675.9,rob ver 1A,2013-03-30 22:29:00,
2013-03-30 15:30:00,85.0,39.3,29.38,WSW,238,12.2,16.2,19,-99.99,,,0.00,646.2,rob ver 1B,2013-03-30 22:30:00,
2013-03-30 15:31:00,85.0,39.1,29.38,SW,229,12.1,14.6,19,-99.99,,,0.00,646.7,rob ver 1B,2013-03-30 22:31:00,
2013-03-30 15:32:00,84.9,39.2,29.38,SW,214,10.6,12.7,19,-99.99,,,0.00,655.2,rob ver 1B,2013-03-30 22:32:00,
2013-03-30 15:33:00,85.3,39.8,29.38,SW,216,11.2,15.5,20,-99.99,,,0.00,640.5,rob ver 1B,2013-03-30 22:33:00,
2013-03-30 15:34:00,86.5,26.6,29.44,SSE,153,4.2,5.7,11,-99.99,,,0.00,662.3,rob ver 1A,2013-03-30 22:34:00,
2013-03-30 15:35:00,85.5,40.0,29.38,South,189,13.1,16.7,20,-99.99,,,0.00,593.3,rob ver 1B,2013-03-30 22:35:00,
2013-03-30 15:36:00,84.9,40.1,29.38,South,182,11.7,17.3,20,-99.99,,,0.00,594.9,rob ver 1B,2013-03-30 22:36:00,
2013-03-30 15:37:00,85.2,40.3,29.38,South,182,17.0,21.3,20,-99.99,,,0.00,603.8,rob ver 1B,2013-03-30 22:37:00,
2013-03-30 15:38:00,85.1,40.2,29.38,South,184,16.9,19.8,20,-99.99,,,0.00,608.2,rob ver 1B,2013-03-30 22:38:00,
2013-03-30 15:39:00,87.2,27.4,29.44,SSW,197,1.8,3.0,11,-99.99,,,0.00,651,rob ver 1A,2013-03-30 22:39:00,
2013-03-30 15:40:00,85.4,40.0,29.38,South,184,16.6,20.0,19,-99.99,,,0.00,582.5,rob ver 1B,2013-03-30 22:40:00,
2013-03-30 15:41:00,85.5,39.2,29.38,SSW,202,17.1,22.4,19,-99.99,,,0.00,628.2,rob ver 1B,2013-03-30 22:41:00,
2013-03-30 15:42:00,85.5,38.9,29.38,SSW,206,17.5,22.3,19,-99.99,,,0.00,636.9,rob ver 1B,2013-03-30 22:42:00,
2013-03-30 15:43:00,85.4,38.9,29.38,SSW,197,15.4,21.1,19,-99.99,,,0.00,597.2,rob ver 1B,2013-03-30 22:43:00,
2013-03-30 15:44:00,87.9,26.8,29.41,SSW,212,7.8,9.6,10,-99.99,,,0.00,639,rob ver 1A,2013-03-30 22:44:00,
2013-03-30 15:45:00,84.8,39.0,29.38,SSW,212,13.6,17.3,19,-99.99,,,0.00,637,rob ver 1B,2013-03-30 22:45:00,
2013-03-30 15:46:00,84.9,39.1,29.38,South,173,11.9,16.4,19,-99.99,,,0.00,642.4,rob ver 1B,2013-03-30 22:46:00,
2013-03-30 15:47:00,84.5,39.1,29.38,South,182,8.6,11.9,19,-99.99,,,0.00,593.3,rob ver 1B,2013-03-30 22:47:00,
2013-03-30 15:48:00,84.7,39.1,29.38,SSW,210,8.8,12.3,19,-99.99,,,0.00,455.5,rob ver 1B,2013-03-30 22:48:00,
2013-03-30 15:49:00,84.6,39.1,29.38,SSW,200,10.2,12.5,19,-99.99,,,0.00,461.1,rob ver 1B,2013-03-30 22:49:00,
2013-03-30 15:50:00,87.1,26.7,29.41,WSW,237,1.6,2.9,11,-99.99,,,0.00,625.2,rob ver 1A,2013-03-30 22:50:00,
2013-03-30 15:51:00,84.6,39.4,29.38,SW,217,9.5,12.9,20,-99.99,,,0.00,584.1,rob ver 1B,2013-03-30 22:51:00,
2013-03-30 15:52:00,84.7,39.4,29.38,SW,225,12.9,17.2,19,-99.99,,,0.00,585.1,rob ver 1B,2013-03-30 22:52:00,
2013-03-30 15:53:00,84.8,39.2,29.38,SW,223,12.8,16.6,19,-99.99,,,0.00,585.7,rob ver 1B,2013-03-30 22:53:00,
2013-03-30 15:54:00,85.4,39.3,29.38,SSW,197,13.9,17.0,19,-99.99,,,0.00,596.4,rob ver 1B,2013-03-30 22:54:00,
2013-03-30 15:55:00,87.3,23.1,29.41,South,174,3.8,6.7,9,-99.99,,,0.00,611.5,rob ver 1A,2013-03-30 22:55:00,
2013-03-30 15:56:00,85.0,38.9,29.38,SW,221,14.6,17.4,19,-99.99,,,0.00,447.3,rob ver 1B,2013-03-30 22:56:00,
2013-03-30 15:57:00,84.9,38.9,29.38,SSW,208,11.4,16.2,19,-99.99,,,0.00,421.6,rob ver 1B,2013-03-30 22:57:00,
2013-03-30 15:58:00,84.6,39.1,29.38,SW,235,11.6,15.9,20,-99.99,,,0.00,464.7,rob ver 1B,2013-03-30 22:58:00,
2013-03-30 15:59:00,84.3,39.1,29.38,WSW,237,11.3,15.9,20,-99.99,,,0.00,520.6,rob ver 1B,2013-03-30 22:59:00,
2013-03-30 16:00:00,88.2,23.8,29.41,SSW,193,4.2,6.5,9,-99.99,,,0.00,597.6,rob ver 1A,2013-03-30 23:00:00,
2013-03-30 16:01:00,83.9,39.2,29.38,SW,222,8.4,10.6,20,-99.99,,,0.00,471.4,rob ver 1B,2013-03-30 23:01:00,
2013-03-30 16:02:00,84.4,39.2,29.38,SSW,213,10.2,13.2,20,-99.99,,,0.00,469.8,rob ver 1B,2013-03-30 23:02:00,
2013-03-30 16:03:00,84.6,39.2,29.38,SSW,211,12.0,14.8,20,-99.99,,,0.00,449,rob ver 1B,2013-03-30 23:03:00,
2013-03-30 16:04:00,84.9,38.8,29.38,SW,216,13.2,19.4,19,-99.99,,,0.00,430.6,rob ver 1B,2013-03-30 23:04:00,
2013-03-30 16:05:00,87.4,20.8,29.41,SE,128,8.3,10.9,8,-99.99,,,0.00,579.2,rob ver 1A,2013-03-30 23:05:00,
2013-03-30 16:06:00,84.9,38.1,29.38,SSW,199,15.6,18.7,19,-99.99,,,0.00,387.6,rob ver 1B,2013-03-30 23:06:00,
2013-03-30 16:07:00,84.5,38.2,29.38,SSW,201,15.1,17.7,19,-99.99,,,0.00,403.3,rob ver 1B,2013-03-30 23:07:00,
2013-03-30 16:08:00,84.4,38.3,29.38,SSW,199,14.6,17.6,19,-99.99,,,0.00,402,rob ver 1B,2013-03-30 23:08:00,
2013-03-30 16:09:00,84.3,38.5,29.38,South,186,12.1,17.6,19,-99.99,,,0.00,392.8,rob ver 1B,2013-03-30 23:09:00,
2013-03-30 16:10:00,87.2,21.6,29.41,SSE,161,4.5,7.7,9,-99.99,,,0.00,561.9,rob ver 1A,2013-03-30 23:10:00,
2013-03-30 16:11:00,85.0,38.4,29.38,SW,218,14.8,17.2,19,-99.99,,,0.00,431.6,rob ver 1B,2013-03-30 23:11:00,
2013-03-30 16:12:00,84.8,38.3,29.38,SSW,206,13.5,16.8,19,-99.99,,,0.00,429.6,rob ver 1B,2013-03-30 23:12:00,
2013-03-30 16:13:00,84.6,38.2,29.38,SSW,208,14.4,19.1,19,-99.99,,,0.00,443.2,rob ver 1B,2013-03-30 23:13:00,
2013-03-30 16:14:00,85.0,38.1,29.38,SSW,210,14.5,20.0,18,-99.99,,,0.00,435.7,rob ver 1B,2013-03-30 23:14:00,
2013-03-30 16:15:00,87.2,23.2,29.41,WSW,244,7.6,11.1,9,-99.99,,,0.00,544.7,rob ver 1A,2013-03-30 23:15:00,
2013-03-30 16:16:00,84.7,37.7,29.38,SSW,212,12.9,16.5,18,-99.99,,,0.00,445.5,rob ver 1B,2013-03-30 23:16:00,
2013-03-30 16:17:00,85.2,37.5,29.38,SSW,212,14.6,18.0,18,-99.99,,,0.00,436.9,rob ver 1B,2013-03-30 23:17:00,
2013-03-30 16:18:00,85.2,37.5,29.38,SSW,197,13.8,16.2,18,-99.99,,,0.00,442.3,rob ver 1B,2013-03-30 23:18:00,
2013-03-30 16:19:00,84.9,37.6,29.38,SSW,197,13.3,16.5,18,-99.99,,,0.00,454.4,rob ver 1B,2013-03-30 23:19:00,
2013-03-30 16:20:00,87.7,23.1,29.41,SSW,202,5.7,8.4,9,-99.99,,,0.00,528.9,rob ver 1A,2013-03-30 23:20:00,
2013-03-30 16:21:00,85.1,37.1,29.38,SSW,211,14.5,17.5,18,-99.99,,,0.00,500.9,rob ver 1B,2013-03-30 23:21:00,
2013-03-30 16:22:00,85.2,37.3,29.38,SSW,208,17.4,21.2,18,-99.99,,,0.00,471.9,rob ver 1B,2013-03-30 23:22:00,
2013-03-30 16:23:00,85.2,37.5,29.38,SSW,212,19.6,23.8,18,-99.99,,,0.00,460.3,rob ver 1B,2013-03-30 23:23:00,
2013-03-30 16:24:00,85.0,37.6,29.38,SSW,200,14.5,17.5,18,-99.99,,,0.00,470.3,rob ver 1B,2013-03-30 23:24:00,
2013-03-30 16:25:00,87.9,23.5,29.41,SSW,212,4.7,6.0,9,-99.99,,,0.00,512.4,rob ver 1A,2013-03-30 23:25:00,
2013-03-30 16:26:00,84.7,38.0,29.38,SSW,212,13.6,18.7,19,-99.99,,,0.00,432.1,rob ver 1B,2013-03-30 23:26:00,
2013-03-30 16:27:00,84.5,38.2,29.38,SSW,210,13.0,17.8,19,-99.99,,,0.00,398.4,rob ver 1B,2013-03-30 23:27:00,
2013-03-30 16:28:00,84.2,38.3,29.38,SSW,198,10.6,13.5,19,-99.99,,,0.00,451.1,rob ver 1B,2013-03-30 23:28:00,
2013-03-30 16:29:00,84.5,38.4,29.38,SSW,205,10.2,13.8,19,-99.99,,,0.00,398,rob ver 1B,2013-03-30 23:29:00,
2013-03-30 16:30:00,87.7,23.9,29.41,WSW,249,2.5,3.4,9,-99.99,,,0.00,495.5,rob ver 1A,2013-03-30 23:30:00,
2013-03-30 16:31:00,84.8,38.3,29.38,WSW,247,16.3,21.7,19,-99.99,,,0.00,403.3,rob ver 1B,2013-03-30 23:31:00,
2013-03-30 16:32:00,84.5,38.3,29.38,WSW,242,13.6,16.8,19,-99.99,,,0.00,377.1,rob ver 1B,2013-03-30 23:32:00,
2013-03-30 16:33:00,84.4,38.5,29.38,WSW,241,16.1,19.2,19,-99.99,,,0.00,385.1,rob ver 1B,2013-03-30 23:33:00,
2013-03-30 16:34:00,84.2,38.6,29.38,WSW,247,14.0,17.9,19,-99.99,,,0.00,464.9,rob ver 1B,2013-03-30 23:34:00,
2013-03-30 16:35:00,88.5,23.6,29.41,SSE,153,1.1,2.1,9,-99.99,,,0.00,477.9,rob ver 1A,2013-03-30 23:35:00,
2013-03-30 16:36:00,84.4,38.7,29.38,SW,236,10.6,13.6,19,-99.99,,,0.00,462.3,rob ver 1B,2013-03-30 23:36:00,
2013-03-30 16:37:00,84.5,38.7,29.38,SW,230,9.0,13.7,19,-99.99,,,0.00,466.2,rob ver 1B,2013-03-30 23:37:00,
2013-03-30 16:38:00,85.0,38.7,29.38,WSW,253,11.2,14.8,19,-99.99,,,0.00,411.8,rob ver 1B,2013-03-30 23:38:00,
2013-03-30 16:39:00,85.3,38.7,29.38,WSW,245,13.0,16.4,19,-99.99,,,0.00,368.6,rob ver 1B,2013-03-30 23:39:00,
2013-03-30 16:40:00,88.4,24.2,29.41,South,184,4.7,6.3,9,-99.99,,,0.00,459.5,rob ver 1A,2013-03-30 23:40:00,
2013-03-30 16:41:00,84.5,38.6,29.38,SW,233,11.2,13.8,19,-99.99,,,0.00,439.5,rob ver 1B,2013-03-30 23:41:00,
2013-03-30 16:42:00,84.5,38.4,29.38,SW,225,12.9,14.8,19,-99.99,,,0.00,411.8,rob ver 1B,2013-03-30 23:42:00,
2013-03-30 16:43:00,84.3,38.4,29.38,SW,217,9.3,10.8,19,-99.99,,,0.00,366,rob ver 1B,2013-03-30 23:43:00,
2013-03-30 16:44:00,84.6,38.3,29.38,WSW,256,12.2,15.3,19,-99.99,,,0.00,372.4,rob ver 1B,2013-03-30 23:44:00,
2013-03-30 16:45:00,87.9,24.1,29.41,SSE,160,5.8,8.5,9,-99.99,,,0.00,444,rob ver 1A,2013-03-30 23:45:00,
2013-03-30 16:46:00,84.2,38.2,29.38,WSW,253,9.8,13.4,19,-99.99,,,0.00,355.6,rob ver 1B,2013-03-30 23:46:00,
2013-03-30 16:47:00,83.9,38.2,29.38,WSW,252,9.0,10.9,19,-99.99,,,0.00,305.2,rob ver 1B,2013-03-30 23:47:00,
2013-03-30 16:48:00,83.8,38.0,29.38,WSW,253,13.2,19.6,19,-99.99,,,0.00,329.1,rob ver 1B,2013-03-30 23:48:00,
2013-03-30 16:49:00,84.3,37.9,29.38,SW,236,15.0,19.1,18,-99.99,,,0.00,312.2,rob ver 1B,2013-03-30 23:49:00,
2013-03-30 16:50:00,87.9,24.5,29.41,West,259,4.8,6.6,9,-99.99,,,0.00,423.2,rob ver 1A,2013-03-30 23:50:00,
2013-03-30 16:51:00,84.4,37.8,29.38,SW,226,16.8,20.6,19,-99.99,,,0.00,317,rob ver 1B,2013-03-30 23:51:00,
2013-03-30 16:52:00,84.5,37.9,29.38,SW,227,15.1,17.6,19,-99.99,,,0.00,278.8,rob ver 1B,2013-03-30 23:52:00,
2013-03-30 16:53:00,84.7,37.8,29.38,SW,236,15.1,18.5,19,-99.99,,,0.00,295.9,rob ver 1B,2013-03-30 23:53:00,
2013-03-30 16:54:00,84.3,37.7,29.38,SW,234,13.1,17.4,18,-99.99,,,0.00,324.5,rob ver 1B,2013-03-30 23:54:00,
2013-03-30 16:55:00,84.1,37.4,29.38,SW,226,13.4,16.6,19,-99.99,,,0.00,324.7,rob ver 1B,2013-03-30 23:55:00,
2013-03-30 16:56:00,87.7,24.6,29.41,SW,230,4.0,6.3,10,-99.99,,,0.00,404.7,rob ver 1A,2013-03-30 23:56:00,
2013-03-30 16:57:00,84.5,37.4,29.38,SW,225,11.3,13.4,18,-99.99,,,0.00,358.8,rob ver 1B,2013-03-30 23:57:00,
2013-03-30 16:58:00,84.5,37.4,29.38,SW,230,13.3,15.8,18,-99.99,,,0.00,392.2,rob ver 1B,2013-03-30 23:58:00,
2013-03-30 16:59:00,84.4,37.5,29.38,SW,224,11.4,13.4,18,-99.99,,,0.00,333.2,rob ver 1B,2013-03-30 23:59:00,
2013-03-30 17:00:00,84.4,37.5,29.38,SW,228,9.6,12.8,18,-99.99,,,0.00,397.6,rob ver 1B,2013-03-31 00:00:00,
2013-03-30 17:01:00,87.9,24.2,29.41,SSW,194,8.6,11.2,9,-99.99,,,0.00,386.1,rob ver 1A,2013-03-31 00:01:00,
2013-03-30 17:02:00,84.8,37.3,29.38,SW,226,12.3,14.9,18,-99.99,,,0.00,427.6,rob ver 1B,2013-03-31 00:02:00,
2013-03-30 17:03:00,84.8,36.9,29.38,SW,220,14.5,18.7,18,-99.99,,,0.00,421.2,rob ver 1B,2013-03-31 00:03:00,
2013-03-30 17:04:00,85.0,36.8,29.38,SW,214,14.9,19.9,17,-99.99,,,0.00,409.9,rob ver 1B,2013-03-31 00:04:00,
2013-03-30 17:05:00,85.0,36.6,29.38,SW,218,16.9,19.1,17,-99.99,,,0.00,404.7,rob ver 1B,2013-03-31 00:05:00,
2013-03-30 17:06:00,88.1,24.5,29.41,SW,234,5.9,8.0,10,-99.99,,,0.00,368.1,rob ver 1A,2013-03-31 00:06:00,
2013-03-30 17:07:00,84.9,36.7,29.38,SW,225,14.6,20.0,17,-99.99,,,0.00,400.2,rob ver 1B,2013-03-31 00:07:00,
2013-03-30 17:08:00,84.8,36.7,29.38,SSW,212,17.4,21.8,18,-99.99,,,0.00,406.6,rob ver 1B,2013-03-31 00:08:00,
2013-03-30 17:09:00,84.7,36.7,29.38,SW,217,16.6,20.0,18,-99.99,,,0.00,396.3,rob ver 1B,2013-03-31 00:09:00,
2013-03-30 17:10:00,84.5,36.7,29.38,SW,218,13.8,16.4,18,-99.99,,,0.00,379.3,rob ver 1B,2013-03-31 00:10:00,
2013-03-30 17:11:00,87.7,24.4,29.41,SSW,211,4.4,8.4,9,-99.99,,,0.00,349.6,rob ver 1A,2013-03-31 00:11:00,
2013-03-30 17:12:00,84.3,36.7,29.38,SW,226,10.4,14.9,18,-99.99,,,0.00,335.2,rob ver 1B,2013-03-31 00:12:00,
2013-03-30 17:13:00,84.3,36.7,29.38,SSW,198,6.3,8.6,18,-99.99,,,0.00,345.7,rob ver 1B,2013-03-31 00:13:00,
2013-03-30 17:14:00,84.4,36.7,29.38,SW,220,7.3,11.6,18,-99.99,,,0.00,333.9,rob ver 1B,2013-03-31 00:14:00,
2013-03-30 17:15:00,84.5,36.9,29.38,SW,222,13.1,17.1,18,-99.99,,,0.00,293.3,rob ver 1B,2013-03-31 00:15:00,
2013-03-30 17:16:00,88.6,24.6,29.38,SSW,212,4.5,6.6,9,-99.99,,,0.00,331.1,rob ver 1A,2013-03-31 00:16:00,
2013-03-30 17:17:00,84.1,37.3,29.38,SW,235,14.5,18.0,18,-99.99,,,0.00,292.6,rob ver 1B,2013-03-31 00:17:00,
2013-03-30 17:18:00,84.2,37.2,29.38,WSW,238,16.3,20.8,18,-99.99,,,0.00,264.4,rob ver 1B,2013-03-31 00:18:00,
2013-03-30 17:19:00,83.9,37.0,29.38,SW,232,14.9,18.3,18,-99.99,,,0.00,257.1,rob ver 1B,2013-03-31 00:19:00,
2013-03-30 17:20:00,83.7,37.1,29.38,SW,231,14.5,17.0,19,-99.99,,,0.00,286.1,rob ver 1B,2013-03-31 00:20:00,
2013-03-30 17:21:00,89.2,24.7,29.38,West,267,2.0,2.8,9,-99.99,,,0.00,312.8,rob ver 1A,2013-03-31 00:21:00,
2013-03-30 17:22:00,83.7,37.3,29.35,WSW,242,17.2,20.5,19,-99.99,,,0.00,288.2,rob ver 1B,2013-03-31 00:22:00,
2013-03-30 17:23:00,83.8,37.4,29.38,WSW,245,15.5,19.8,19,-99.99,,,0.00,295.9,rob ver 1B,2013-03-31 00:23:00,
2013-03-30 17:24:00,84.0,37.4,29.38,SW,236,15.1,19.6,18,-99.99,,,0.00,275.4,rob ver 1B,2013-03-31 00:24:00,
2013-03-30 17:25:00,84.1,37.4,29.38,SW,236,14.3,19.1,18,-99.99,,,0.00,250.3,rob ver 1B,2013-03-31 00:25:00,
2013-03-30 17:26:00,88.6,24.7,29.38,SSE,167,3.2,5.3,10,-99.99,,,0.00,294.4,rob ver 1A,2013-03-31 00:26:00,
2013-03-30 17:27:00,84.1,37.3,29.35,WSW,242,16.8,21.0,18,-99.99,,,0.00,245.4,rob ver 1B,2013-03-31 00:27:00,
2013-03-30 17:28:00,84.1,37.2,29.35,WSW,242,16.7,21.5,18,-99.99,,,0.00,233.3,rob ver 1B,2013-03-31 00:28:00,
2013-03-30 17:29:00,83.8,37.1,29.35,WSW,247,16.2,19.2,18,-99.99,,,0.00,236.1,rob ver 1B,2013-03-31 00:29:00,
2013-03-30 17:30:00,83.7,37.0,29.35,WSW,256,17.3,21.2,18,-99.99,,,0.00,281.6,rob ver 1B,2013-03-31 00:30:00,
2013-03-30 17:31:00,87.7,24.5,29.38,SSE,160,8.3,11.5,10,-99.99,,,0.00,276.9,rob ver 1A,2013-03-31 00:31:00,
2013-03-30 17:32:00,83.7,37.1,29.38,WSW,256,13.9,17.3,19,-99.99,,,0.00,228.1,rob ver 1B,2013-03-31 00:32:00,
2013-03-30 17:33:00,83.5,37.0,29.38,WSW,242,14.9,18.8,19,-99.99,,,0.00,209.4,rob ver 1B,2013-03-31 00:33:00,
2013-03-30 17:34:00,83.9,37.0,29.38,SW,230,14.2,19.3,18,-99.99,,,0.00,225.1,rob ver 1B,2013-03-31 00:34:00,
2013-03-30 17:35:00,83.6,36.9,29.38,SW,230,12.5,15.5,19,-99.99,,,0.00,247.4,rob ver 1B,2013-03-31 00:35:00,
2013-03-30 17:36:00,87.4,24.7,29.38,SW,221,6.9,8.2,10,-99.99,,,0.00,258.4,rob ver 1A,2013-03-31 00:36:00,
2013-03-30 17:37:00,83.6,36.7,29.35,WSW,242,15.9,18.5,18,-99.99,,,0.00,233.6,rob ver 1B,2013-03-31 00:37:00,
2013-03-30 17:38:00,83.6,36.7,29.38,WSW,245,13.5,15.7,18,-99.99,,,0.00,250,rob ver 1B,2013-03-31 00:38:00,
2013-03-30 17:39:00,83.7,36.7,29.38,WSW,238,12.5,16.8,18,-99.99,,,0.00,239.7,rob ver 1B,2013-03-31 00:39:00,
2013-03-30 17:40:00,83.6,36.8,29.38,WSW,241,13.3,16.6,18,-99.99,,,0.00,209.7,rob ver 1B,2013-03-31 00:40:00,
2013-03-30 17:41:00,87.8,24.6,29.38,SW,215,7.1,8.6,10,-99.99,,,0.00,236.1,rob ver 1A,2013-03-31 00:41:00,
2013-03-30 17:42:00,83.4,37.0,29.38,SW,235,13.7,18.4,19,-99.99,,,0.00,210.7,rob ver 1B,2013-03-31 00:42:00,
2013-03-30 17:43:00,83.3,37.0,29.35,WSW,238,17.4,20.0,19,-99.99,,,0.00,213,rob ver 1B,2013-03-31 00:43:00,
2013-03-30 17:44:00,83.2,37.1,29.35,SW,234,14.8,19.1,19,-99.99,,,0.00,205.1,rob ver 1B,2013-03-31 00:44:00,
2013-03-30 17:45:00,83.2,37.0,29.38,WSW,238,14.4,18.3,19,-99.99,,,0.00,197.3,rob ver 1B,2013-03-31 00:45:00,
2013-03-30 17:46:00,87.6,24.4,29.38,SSW,197,9.0,11.2,10,-99.99,,,0.00,217.8,rob ver 1A,2013-03-31 00:46:00,
2013-03-30 17:47:00,82.7,37.1,29.38,SW,234,12.3,18.9,19,-99.99,,,0.00,202.8,rob ver 1B,2013-03-31 00:47:00,
2013-03-30 17:48:00,82.9,37.0,29.38,WSW,242,16.5,19.4,19,-99.99,,,0.00,200.5,rob ver 1B,2013-03-31 00:48:00,
2013-03-30 17:49:00,82.8,36.9,29.38,WSW,240,15.6,18.5,19,-99.99,,,0.00,179.9,rob ver 1B,2013-03-31 00:49:00,
2013-03-30 17:50:00,82.6,36.9,29.38,WSW,247,12.5,16.3,19,-99.99,,,0.00,176.6,rob ver 1B,2013-03-31 00:50:00,
2013-03-30 17:51:00,82.9,36.9,29.38,WSW,244,12.2,16.1,19,-99.99,,,0.00,168.1,rob ver 1B,2013-03-31 00:51:00,
2013-03-30 17:52:00,87.3,24.3,29.38,South,169,8.5,10.4,10,-99.99,,,0.00,199,rob ver 1A,2013-03-31 00:52:00,
2013-03-30 17:53:00,82.7,36.7,29.35,WSW,238,14.7,17.6,19,-99.99,,,0.00,113.4,rob ver 1B,2013-03-31 00:53:00,
2013-03-30 17:54:00,82.6,36.6,29.35,SW,236,14.6,18.1,19,-99.99,,,0.00,92.4,rob ver 1B,2013-03-31 00:54:00,
2013-03-30 17:55:00,82.6,36.7,29.38,WSW,246,13.0,14.6,19,-99.99,,,0.00,82.6,rob ver 1B,2013-03-31 00:55:00,
2013-03-30 17:56:00,82.6,36.7,29.38,WSW,239,11.8,15.5,19,-99.99,,,0.00,102.9,rob ver 1B,2013-03-31 00:56:00,
2013-03-30 17:57:00,87.7,24.5,29.38,SSW,213,7.8,9.3,10,-99.99,,,0.00,180.8,rob ver 1A,2013-03-31 00:57:00,
2013-03-30 17:58:00,82.7,36.7,29.38,SW,231,14.4,17.0,19,-99.99,,,0.00,109.1,rob ver 1B,2013-03-31 00:58:00,
2013-03-30 17:59:00,82.4,36.7,29.38,SW,233,14.0,16.0,19,-99.99,,,0.00,102.9,rob ver 1B,2013-03-31 00:59:00,
2013-03-30 18:00:00,82.3,36.7,29.38,WSW,240,14.7,17.8,19,-99.99,,,0.00,93.4,rob ver 1B,2013-03-31 01:00:00,
2013-03-30 18:01:00,82.1,36.7,29.35,WSW,238,15.6,18.2,19,-99.99,,,0.00,73.1,rob ver 1B,2013-03-31 01:01:00,
2013-03-30 18:02:00,87.1,24.6,29.38,SSE,166,7.0,8.9,10,-99.99,,,0.00,163.1,rob ver 1A,2013-03-31 01:02:00,
2013-03-30 18:03:00,81.8,36.7,29.38,SW,236,14.1,18.4,19,-99.99,,,0.00,86.3,rob ver 1B,2013-03-31 01:03:00,
2013-03-30 18:04:00,81.8,36.7,29.38,WSW,240,12.9,18.3,19,-99.99,,,0.00,79.6,rob ver 1B,2013-03-31 01:04:00,
2013-03-30 18:05:00,81.8,36.7,29.38,WSW,242,14.6,16.8,19,-99.99,,,0.00,62.59,rob ver 1B,2013-03-31 01:05:00,
2013-03-30 18:06:00,81.6,36.7,29.38,WSW,239,12.2,14.1,19,-99.99,,,0.00,67.5,rob ver 1B,2013-03-31 01:06:00,
2013-03-30 18:07:00,86.7,24.6,29.41,SSE,157,7.4,8.7,10,-99.99,,,0.00,145.8,rob ver 1A,2013-03-31 01:07:00,
2013-03-30 18:08:00,81.6,36.7,29.38,WSW,245,13.4,16.4,20,-99.99,,,0.00,63.57,rob ver 1B,2013-03-31 01:08:00,
2013-03-30 18:09:00,81.6,36.7,29.38,WSW,239,13.1,17.5,19,-99.99,,,0.00,60.29,rob ver 1B,2013-03-31 01:09:00,
2013-03-30 18:10:00,81.6,36.6,29.38,WSW,240,15.7,18.7,19,-99.99,,,0.00,58.33,rob ver 1B,2013-03-31 01:10:00,
2013-03-30 18:11:00,81.4,36.6,29.38,WSW,238,16.7,18.7,20,-99.99,,,0.00,53.25,rob ver 1B,2013-03-31 01:11:00,
2013-03-30 18:12:00,86.9,25.0,29.38,South,188,6.7,8.0,10,-99.99,,,0.00,128.7,rob ver 1A,2013-03-31 01:12:00,
2013-03-30 18:13:00,81.2,36.6,29.38,WSW,244,15.3,17.9,20,-99.99,,,0.00,54.07,rob ver 1B,2013-03-31 01:13:00,
2013-03-30 18:14:00,81.1,36.6,29.38,WSW,241,14.4,17.7,20,-99.99,,,0.00,56.03,rob ver 1B,2013-03-31 01:14:00,
2013-03-30 18:15:00,81.1,36.6,29.38,WSW,245,14.0,18.3,20,-99.99,,,0.00,56.03,rob ver 1B,2013-03-31 01:15:00,
2013-03-30 18:16:00,81.1,36.6,29.38,WSW,240,13.5,15.9,20,-99.99,,,0.00,60.29,rob ver 1B,2013-03-31 01:16:00,
2013-03-30 18:17:00,86.7,25.0,29.41,South,179,5.0,5.6,10,-99.99,,,0.00,113,rob ver 1A,2013-03-31 01:17:00,
2013-03-30 18:18:00,81.1,36.5,29.38,WSW,240,15.7,21.2,20,-99.99,,,0.00,67.83,rob ver 1B,2013-03-31 01:18:00,
2013-03-30 18:19:00,80.9,36.4,29.38,WSW,238,12.7,17.1,20,-99.99,,,0.00,77,rob ver 1B,2013-03-31 01:19:00,
2013-03-30 18:20:00,80.8,36.5,29.38,SW,235,11.8,13.4,20,-99.99,,,0.00,69.14,rob ver 1B,2013-03-31 01:20:00,
2013-03-30 18:21:00,80.9,36.5,29.38,WSW,243,13.8,16.4,20,-99.99,,,0.00,57.02,rob ver 1B,2013-03-31 01:21:00,
2013-03-30 18:22:00,86.7,25.0,29.38,South,181,8.5,9.7,10,-99.99,,,0.00,96.3,rob ver 1A,2013-03-31 01:22:00,
2013-03-30 18:23:00,80.8,36.3,29.38,WSW,240,12.8,15.6,20,-99.99,,,0.00,62.59,rob ver 1B,2013-03-31 01:23:00,
2013-03-30 18:24:00,80.9,36.2,29.38,WSW,239,11.5,14.5,20,-99.99,,,0.00,58.98,rob ver 1B,2013-03-31 01:24:00,
2013-03-30 18:25:00,80.9,36.1,29.38,WSW,241,13.2,15.7,19,-99.99,,,0.00,61.61,rob ver 1B,2013-03-31 01:25:00,
2013-03-30 18:26:00,80.9,36.0,29.38,WSW,251,11.1,14.3,19,-99.99,,,0.00,68.16,rob ver 1B,2013-03-31 01:26:00,
2013-03-30 18:27:00,86.4,25.9,29.38,SSW,206,8.4,10.7,11,-99.99,,,0.00,80.3,rob ver 1A,2013-03-31 01:27:00,
2013-03-30 18:28:00,80.8,35.7,29.38,WSW,250,12.1,14.9,19,-99.99,,,0.00,79.3,rob ver 1B,2013-03-31 01:28:00,
2013-03-30 18:29:00,80.9,35.5,29.38,WSW,242,14.3,17.8,19,-99.99,,,0.00,73.1,rob ver 1B,2013-03-31 01:29:00,
2013-03-30 18:30:00,80.8,35.4,29.38,WSW,241,12.3,15.0,19,-99.99,,,0.00,59.64,rob ver 1B,2013-03-31 01:30:00,
2013-03-30 18:31:00,80.8,35.4,29.38,WSW,239,12.4,18.1,19,-99.99,,,0.00,64.56,rob ver 1B,2013-03-31 01:31:00,
2013-03-30 18:32:00,86.2,25.9,29.41,SSW,194,8.1,9.4,11,-99.99,,,0.00,64.54,rob ver 1A,2013-03-31 01:32:00,
2013-03-30 18:33:00,80.6,35.5,29.38,SW,236,10.9,15.1,19,-99.99,,,0.00,70.8,rob ver 1B,2013-03-31 01:33:00,
2013-03-30 18:34:00,80.6,35.5,29.38,SW,235,12.9,18.1,19,-99.99,,,0.00,68.33,rob ver 1B,2013-03-31 01:34:00,
2013-03-30 18:35:00,80.6,35.3,29.38,WSW,240,13.5,16.2,19,-99.99,,,0.00,65.71,rob ver 1B,2013-03-31 01:35:00,
2013-03-30 18:36:00,80.5,35.2,29.38,WSW,237,13.5,17.9,19,-99.99,,,0.00,62.6,rob ver 1B,2013-03-31 01:36:00,
2013-03-30 18:37:00,85.9,25.9,29.41,SSW,194,7.2,8.5,11,-99.99,,,0.00,46.52,rob ver 1A,2013-03-31 01:37:00,
2013-03-30 18:38:00,80.2,35.0,29.38,WSW,238,15.5,18.9,19,-99.99,,,0.00,50.8,rob ver 1B,2013-03-31 01:38:00,
2013-03-30 18:39:00,80.1,35.0,29.38,WSW,244,14.0,16.2,19,-99.99,,,0.00,51.46,rob ver 1B,2013-03-31 01:39:00,
2013-03-30 18:40:00,80.1,35.1,29.38,WSW,244,14.8,17.7,19,-99.99,,,0.00,48.18,rob ver 1B,2013-03-31 01:40:00,
2013-03-30 18:41:00,80.0,35.2,29.38,WSW,243,13.6,16.6,19,-99.99,,,0.00,43.59,rob ver 1B,2013-03-31 01:41:00,
2013-03-30 18:42:00,85.5,25.9,29.41,South,187,7.0,8.5,11,-99.99,,,0.00,33.09,rob ver 1A,2013-03-31 01:42:00,
2013-03-30 18:43:00,80.0,35.1,29.38,WSW,241,13.3,16.3,19,-99.99,,,0.00,40.97,rob ver 1B,2013-03-31 01:43:00,
2013-03-30 18:44:00,79.9,35.0,29.38,WSW,251,13.5,17.6,19,-99.99,,,0.00,37.86,rob ver 1B,2013-03-31 01:44:00,
2013-03-30 18:45:00,79.8,34.8,29.38,WSW,255,12.3,14.9,19,-99.99,,,0.00,33.43,rob ver 1B,2013-03-31 01:45:00,
2013-03-30 18:46:00,79.8,34.8,29.38,WSW,257,14.5,18.1,19,-99.99,,,0.00,26.88,rob ver 1B,2013-03-31 01:46:00,
2013-03-30 18:47:00,79.7,34.8,29.38,WSW,255,14.5,19.6,19,-99.99,,,0.00,23.6,rob ver 1B,2013-03-31 01:47:00,
2013-03-30 18:48:00,85.1,25.7,29.38,South,188,6.7,8.1,11,-99.99,,,0.00,22.28,rob ver 1A,2013-03-31 01:48:00,
2013-03-30 18:49:00,79.5,35.0,29.38,WSW,252,14.4,17.6,20,-99.99,,,0.00,20.32,rob ver 1B,2013-03-31 01:49:00,
2013-03-30 18:50:00,79.5,35.0,29.38,WSW,245,14.4,17.9,20,-99.99,,,0.00,18.36,rob ver 1B,2013-03-31 01:50:00,
2013-03-30 18:51:00,79.4,35.1,29.38,WSW,248,12.5,15.5,20,-99.99,,,0.00,16.72,rob ver 1B,2013-03-31 01:51:00,
2013-03-30 18:52:00,79.4,35.1,29.38,WSW,247,12.7,16.5,20,-99.99,,,0.00,15.24,rob ver 1B,2013-03-31 01:52:00,
2013-03-30 18:53:00,84.6,25.8,29.38,South,190,6.2,7.6,11,-99.99,,,0.00,11.14,rob ver 1A,2013-03-31 01:53:00,
2013-03-30 18:54:00,79.2,35.2,29.38,WSW,242,14.0,17.1,20,-99.99,,,0.00,12.78,rob ver 1B,2013-03-31 01:54:00,
2013-03-30 18:55:00,79.1,35.1,29.38,WSW,244,14.6,17.7,20,-99.99,,,0.00,11.14,rob ver 1B,2013-03-31 01:55:00,
2013-03-30 18:56:00,79.0,35.1,29.38,WSW,243,13.3,15.9,20,-99.99,,,0.00,9.83,rob ver 1B,2013-03-31 01:56:00,
2013-03-30 18:57:00,79.0,35.0,29.38,WSW,244,13.0,15.5,20,-99.99,,,0.00,8.52,rob ver 1B,2013-03-31 01:57:00,
2013-03-30 18:58:00,84.1,26.4,29.41,South,190,6.3,7.4,12,-99.99,,,0.00,4.915,rob ver 1A,2013-03-31 01:58:00,
2013-03-30 18:59:00,78.9,34.9,29.38,WSW,237,13.6,17.1,20,-99.99,,,0.00,7.21,rob ver 1B,2013-03-31 01:59:00,
2013-03-30 19:00:00,78.9,34.9,29.38,WSW,237,13.8,16.6,20,-99.99,,,0.00,7.21,rob ver 1B,2013-03-31 02:00:00,
2013-03-30 19:01:00,78.8,34.7,29.38,SW,236,13.9,16.9,20,-99.99,,,0.00,7.21,rob ver 1B,2013-03-31 02:01:00,
2013-03-30 19:02:00,78.8,34.7,29.38,WSW,239,14.5,17.0,20,-99.99,,,0.00,6.884,rob ver 1B,2013-03-31 02:02:00,
2013-03-30 19:03:00,83.6,26.6,29.38,South,189,5.4,6.6,12,-99.99,,,0.00,2.621,rob ver 1A,2013-03-31 02:03:00,
2013-03-30 19:04:00,78.8,34.7,29.38,WSW,241,14.1,18.8,20,-99.99,,,0.00,5.573,rob ver 1B,2013-03-31 02:04:00,
2013-03-30 19:05:00,78.8,34.7,29.38,SW,236,14.8,17.6,20,-99.99,,,0.00,4.589,rob ver 1B,2013-03-31 02:05:00,
2013-03-30 19:06:00,78.8,34.8,29.38,WSW,239,14.4,17.3,20,-99.99,,,0.00,3.934,rob ver 1B,2013-03-31 02:06:00,
2013-03-30 19:07:00,78.7,34.9,29.38,WSW,239,13.8,17.6,20,-99.99,,,0.00,3.442,rob ver 1B,2013-03-31 02:07:00,
2013-03-30 19:08:00,83.3,26.5,29.38,SSW,192,6.0,7.2,12,-99.99,,,0.00,.983,rob ver 1A,2013-03-31 02:08:00,
2013-03-30 19:09:00,78.6,35.3,29.38,SW,236,15.5,18.9,21,-99.99,,,0.00,2.623,rob ver 1B,2013-03-31 02:09:00,
2013-03-30 19:10:00,78.5,35.4,29.38,SW,236,14.8,17.6,21,-99.99,,,0.00,1.967,rob ver 1B,2013-03-31 02:10:00,
2013-03-30 19:11:00,78.5,35.4,29.38,WSW,237,14.0,16.7,21,-99.99,,,0.00,1.639,rob ver 1B,2013-03-31 02:11:00,
2013-03-30 19:12:00,78.5,35.5,29.38,WSW,239,13.4,16.6,21,-99.99,,,0.00,.983,rob ver 1B,2013-03-31 02:12:00,
2013-03-30 19:13:00,83.0,26.3,29.41,South,188,5.3,7.7,12,-99.99,,,0.00,.328,rob ver 1A,2013-03-31 02:13:00,
2013-03-30 19:14:00,78.4,35.6,29.38,WSW,240,11.9,15.1,21,-99.99,,,0.00,.328,rob ver 1B,2013-03-31 02:14:00,
2013-03-30 19:15:00,78.3,35.9,29.38,WSW,241,14.5,17.8,21,-99.99,,,0.00,.328,rob ver 1B,2013-03-31 02:15:00,
2013-03-30 19:16:00,78.3,36.0,29.38,WSW,240,13.7,16.5,21,-99.99,,,0.00,.328,rob ver 1B,2013-03-31 02:16:00,
2013-03-30 19:17:00,78.3,36.2,29.38,WSW,238,13.7,15.9,21,-99.99,,,0.00,.164,rob ver 1B,2013-03-31 02:17:00,
2013-03-30 19:18:00,82.6,26.2,29.41,South,189,5.6,6.6,12,-99.99,,,0.00,0,rob ver 1A,2013-03-31 02:18:00,
2013-03-30 19:19:00,78.1,36.3,29.38,WSW,240,11.8,15.9,22,-99.99,,,0.00,0,rob ver 1B,2013-03-31 02:19:00,
2013-03-30 19:20:00,78.0,36.6,29.38,SW,233,13.2,19.3,22,-99.99,,,0.00,0,rob ver 1B,2013-03-31 02:20:00,
2013-03-30 19:21:00,78.0,36.6,29.38,WSW,239,12.1,14.3,22,-99.99,,,0.00,0,rob ver 1B,2013-03-31 02:21:00,
2013-03-30 19:22:00,78.0,36.6,29.38,WSW,239,13.7,17.3,22,-99.99,,,0.00,0,rob ver 1B,2013-03-31 02:22:00,
2013-03-30 19:23:00,82.2,26.2,29.41,SSW,192,4.9,5.9,12,-99.99,,,0.00,0,rob ver 1A,2013-03-31 02:23:00,
2013-03-30 19:24:00,77.9,36.3,29.38,WSW,238,17.0,21.5,22,-99.99,,,0.00,0,rob ver 1B,2013-03-31 02:24:00,
2013-03-30 19:25:00,77.9,36.3,29.38,WSW,239,13.8,18.0,22,-99.99,,,0.00,0,rob ver 1B,2013-03-31 02:25:00,
2013-03-30 19:26:00,77.8,36.4,29.38,WSW,240,15.3,18.3,22,-99.99,,,0.00,0,rob ver 1B,2013-03-31 02:26:00,
2013-03-30 19:27:00,77.8,36.4,29.38,WSW,239,17.2,19.3,22,-99.99,,,0.00,0,rob ver 1B,2013-03-31 02:27:00,
2013-03-30 19:28:00,77.8,36.4,29.38,WSW,237,14.1,18.3,22,-99.99,,,0.00,0,rob ver 1B,2013-03-31 02:28:00,
2013-03-30 19:29:00,81.9,26.2,29.41,South,187,4.9,6.2,12,-99.99,,,0.00,0,rob ver 1A,2013-03-31 02:29:00,
2013-03-30 19:30:00,77.8,36.6,29.38,WSW,238,12.9,17.7,22,-99.99,,,0.00,0,rob ver 1B,2013-03-31 02:30:00,
2013-03-30 19:31:00,77.7,36.5,29.38,SW,234,12.6,15.1,22,-99.99,,,0.00,0,rob ver 1B,2013-03-31 02:31:00,
2013-03-30 19:32:00,77.6,36.5,29.38,SW,235,12.0,14.7,22,-99.99,,,0.00,0,rob ver 1B,2013-03-31 02:32:00,
2013-03-30 19:33:00,77.6,36.6,29.38,WSW,239,11.7,14.0,22,-99.99,,,0.00,0,rob ver 1B,2013-03-31 02:33:00,
2013-03-30 19:34:00,81.6,26.1,29.41,South,178,4.8,5.6,12,-99.99,,,0.00,0,rob ver 1A,2013-03-31 02:34:00,
2013-03-30 19:35:00,77.4,36.6,29.38,WSW,240,10.1,12.3,22,-99.99,,,0.00,0,rob ver 1B,2013-03-31 02:35:00,
2013-03-30 19:36:00,77.4,36.6,29.38,WSW,240,9.4,11.7,22,-99.99,,,0.00,0,rob ver 1B,2013-03-31 02:36:00,
2013-03-30 19:37:00,77.3,36.7,29.38,WSW,244,10.1,12.2,22,-99.99,,,0.00,0,rob ver 1B,2013-03-31 02:37:00,
2013-03-30 19:38:00,77.3,36.8,29.38,WSW,244,9.5,11.6,23,-99.99,,,0.00,0,rob ver 1B,2013-03-31 02:38:00,
2013-03-30 19:39:00,81.4,26.2,29.38,South,178,5.1,6.2,13,-99.99,,,0.00,0,rob ver 1A,2013-03-31 02:39:00,
2013-03-30 19:40:00,77.3,37.0,29.38,WSW,253,10.0,12.9,23,-99.99,,,0.00,0,rob ver 1B,2013-03-31 02:40:00,
2013-03-30 19:41:00,77.2,37.3,29.38,West,260,11.2,13.9,23,-99.99,,,0.00,0,rob ver 1B,2013-03-31 02:41:00,
2013-03-30 19:42:00,77.2,37.5,29.38,West,261,12.7,15.5,24,-99.99,,,0.00,0,rob ver 1B,2013-03-31 02:42:00,
2013-03-30 19:43:00,77.2,37.6,29.38,West,266,12.5,14.5,24,-99.99,,,0.00,0,rob ver 1B,2013-03-31 02:43:00,
2013-03-30 19:44:00,81.2,26.2,29.41,South,177,4.5,5.3,13,-99.99,,,0.00,0,rob ver 1A,2013-03-31 02:44:00,
2013-03-30 19:45:00,77.1,37.7,29.38,West,270,15.1,18.1,24,-99.99,,,0.00,0,rob ver 1B,2013-03-31 02:45:00,
2013-03-30 19:46:00,77.1,37.7,29.38,West,262,13.7,16.5,24,-99.99,,,0.00,0,rob ver 1B,2013-03-31 02:46:00,
2013-03-30 19:47:00,77.0,37.7,29.38,West,262,12.8,17.7,24,-99.99,,,0.00,0,rob ver 1B,2013-03-31 02:47:00,
2013-03-30 19:48:00,77.0,37.7,29.38,West,266,13.2,17.1,24,-99.99,,,0.00,0,rob ver 1B,2013-03-31 02:48:00,
2013-03-30 19:49:00,81.0,26.1,29.41,South,174,4.5,5.3,13,-99.99,,,0.00,0,rob ver 1A,2013-03-31 02:49:00,
2013-03-30 19:50:00,76.9,37.7,29.38,West,264,12.0,14.9,24,-99.99,,,0.00,0,rob ver 1B,2013-03-31 02:50:00,
2013-03-30 19:51:00,76.8,37.7,29.38,West,266,12.6,15.4,24,-99.99,,,0.00,0,rob ver 1B,2013-03-31 02:51:00,
2013-03-30 19:52:00,76.8,37.7,29.38,West,261,12.0,15.5,24,-99.99,,,0.00,0,rob ver 1B,2013-03-31 02:52:00,
2013-03-30 19:53:00,76.8,37.8,29.38,WSW,257,15.3,18.6,24,-99.99,,,0.00,0,rob ver 1B,2013-03-31 02:53:00,
2013-03-30 19:54:00,80.7,26.0,29.41,South,175,5.1,6.2,13,-99.99,,,0.00,0,rob ver 1A,2013-03-31 02:54:00,
2013-03-30 19:55:00,76.8,37.8,29.38,WSW,251,13.8,16.8,24,-99.99,,,0.00,0,rob ver 1B,2013-03-31 02:55:00,
2013-03-30 19:56:00,76.7,37.8,29.38,WSW,250,12.1,14.7,24,-99.99,,,0.00,0,rob ver 1B,2013-03-31 02:56:00,
2013-03-30 19:57:00,76.7,37.9,29.38,WSW,246,13.2,16.0,24,-99.99,,,0.00,0,rob ver 1B,2013-03-31 02:57:00,
2013-03-30 19:58:00,76.6,37.9,29.38,WSW,250,12.4,15.7,24,-99.99,,,0.00,0,rob ver 1B,2013-03-31 02:58:00,
2013-03-30 19:59:00,80.5,25.9,29.41,South,177,5.1,6.1,13,-99.99,,,0.00,0,rob ver 1A,2013-03-31 02:59:00,
2013-03-30 20:00:00,76.6,37.9,29.38,WSW,240,14.0,17.6,24,-99.99,,,0.00,0,rob ver 1B,2013-03-31 03:00:00,
2013-03-30 20:01:00,76.6,37.9,29.38,WSW,245,11.7,14.0,24,-99.99,,,0.00,0,rob ver 1B,2013-03-31 03:01:00,
2013-03-30 20:02:00,76.5,37.9,29.38,WSW,241,11.9,15.2,24,-99.99,,,0.00,0,rob ver 1B,2013-03-31 03:02:00,
2013-03-30 20:03:00,76.4,37.9,29.38,WSW,254,13.4,17.0,25,-99.99,,,0.00,0,rob ver 1B,2013-03-31 03:03:00,
2013-03-30 20:04:00,76.3,38.0,29.38,WSW,253,14.5,19.1,25,-99.99,,,0.00,0,rob ver 1B,2013-03-31 03:04:00,
2013-03-30 20:05:00,80.2,25.7,29.41,South,179,4.9,6.0,13,-99.99,,,0.00,0,rob ver 1A,2013-03-31 03:05:00,
2013-03-30 20:06:00,76.2,38.1,29.38,WSW,256,15.5,18.7,25,-99.99,,,0.00,0,rob ver 1B,2013-03-31 03:06:00,
2013-03-30 20:07:00,76.2,38.0,29.38,WSW,255,14.1,18.2,25,-99.99,,,0.00,0,rob ver 1B,2013-03-31 03:07:00,
2013-03-30 20:08:00,76.1,38.1,29.38,WSW,251,14.4,17.0,25,-99.99,,,0.00,0,rob ver 1B,2013-03-31 03:08:00,
2013-03-30 20:09:00,76.1,38.0,29.38,WSW,253,15.0,18.3,25,-99.99,,,0.00,0,rob ver 1B,2013-03-31 03:09:00,
2013-03-30 20:10:00,79.7,25.6,29.41,South,183,4.8,5.6,13,-99.99,,,0.00,0,rob ver 1A,2013-03-31 03:10:00,
2013-03-30 20:11:00,76.1,37.7,29.38,WSW,252,14.0,18.9,24,-99.99,,,0.00,0,rob ver 1B,2013-03-31 03:11:00,
2013-03-30 20:12:00,76.1,37.5,29.38,WSW,255,12.5,14.9,24,-99.99,,,0.00,0,rob ver 1B,2013-03-31 03:12:00,
2013-03-30 20:13:00,76.0,37.5,29.38,WSW,252,11.6,14.9,24,-99.99,,,0.00,0,rob ver 1B,2013-03-31 03:13:00,
2013-03-30 20:14:00,76.0,37.4,29.38,WSW,251,13.5,16.9,24,-99.99,,,0.00,0,rob ver 1B,2013-03-31 03:14:00,
2013-03-30 20:15:00,79.1,25.4,29.41,South,181,5.1,5.7,13,-99.99,,,0.00,0,rob ver 1A,2013-03-31 03:15:00,
2013-03-30 20:16:00,76.0,37.3,29.38,WSW,248,12.0,15.5,24,-99.99,,,0.00,0,rob ver 1B,2013-03-31 03:16:00,
2013-03-30 20:17:00,75.9,37.3,29.38,WSW,249,12.5,15.7,24,-99.99,,,0.00,0,rob ver 1B,2013-03-31 03:17:00,
2013-03-30 20:18:00,75.9,37.2,29.38,WSW,246,13.6,18.4,24,-99.99,,,0.00,0,rob ver 1B,2013-03-31 03:18:00,
2013-03-30 20:19:00,75.9,37.1,29.38,WSW,246,14.9,19.4,24,-99.99,,,0.00,0,rob ver 1B,2013-03-31 03:19:00,
2013-03-30 20:20:00,79.0,25.3,29.41,South,184,5.3,6.5,13,-99.99,,,0.00,0,rob ver 1A,2013-03-31 03:20:00,
2013-03-30 20:21:00,75.8,37.1,29.38,WSW,240,14.3,19.8,24,-99.99,,,0.00,0,rob ver 1B,2013-03-31 03:21:00,
2013-03-30 20:22:00,75.8,37.1,29.38,WSW,246,15.3,19.7,24,-99.99,,,0.00,0,rob ver 1B,2013-03-31 03:22:00,
2013-03-30 20:23:00,75.8,37.1,29.38,WSW,257,14.3,18.6,24,-99.99,,,0.00,0,rob ver 1B,2013-03-31 03:23:00,
2013-03-30 20:24:00,75.8,37.1,29.38,WSW,240,12.3,15.2,24,-99.99,,,0.00,0,rob ver 1B,2013-03-31 03:24:00,
2013-03-30 20:25:00,78.9,25.3,29.41,South,182,5.1,6.0,13,-99.99,,,0.00,0,rob ver 1A,2013-03-31 03:25:00,
2013-03-30 20:26:00,75.6,37.1,29.38,WSW,238,15.0,18.2,24,-99.99,,,0.00,0,rob ver 1B,2013-03-31 03:26:00,
2013-03-30 20:27:00,75.6,37.1,29.38,WSW,241,15.9,19.0,24,-99.99,,,0.00,0,rob ver 1B,2013-03-31 03:27:00,
2013-03-30 20:28:00,75.6,37.0,29.38,WSW,244,13.0,16.2,24,-99.99,,,0.00,0,rob ver 1B,2013-03-31 03:28:00,
2013-03-30 20:29:00,75.5,37.0,29.38,WSW,238,14.4,18.0,24,-99.99,,,0.00,0,rob ver 1B,2013-03-31 03:29:00,
2013-03-30 20:30:00,78.7,25.0,29.41,South,178,4.6,5.2,13,-99.99,,,0.00,0,rob ver 1A,2013-03-31 03:30:00,
2013-03-30 20:31:00,75.3,37.0,29.38,WSW,237,12.3,15.0,24,-99.99,,,0.00,0,rob ver 1B,2013-03-31 03:31:00,
2013-03-30 20:32:00,75.3,37.0,29.38,SW,236,12.5,14.7,24,-99.99,,,0.00,0,rob ver 1B,2013-03-31 03:32:00,
2013-03-30 20:33:00,75.1,37.0,29.41,WSW,241,11.2,13.6,25,-99.99,,,0.00,0,rob ver 1B,2013-03-31 03:33:00,
2013-03-30 20:34:00,75.1,37.0,29.41,WSW,244,11.7,14.5,25,-99.99,,,0.00,0,rob ver 1B,2013-03-31 03:34:00,
2013-03-30 20:35:00,78.7,24.7,29.41,South,182,4.7,5.7,13,-99.99,,,0.00,0,rob ver 1A,2013-03-31 03:35:00,
2013-03-30 20:36:00,75.0,37.0,29.41,WSW,238,11.7,15.9,25,-99.99,,,0.00,0,rob ver 1B,2013-03-31 03:36:00,
2013-03-30 20:37:00,74.9,37.0,29.38,WSW,237,10.9,14.7,25,-99.99,,,0.00,0,rob ver 1B,2013-03-31 03:37:00,
2013-03-30 20:38:00,74.9,36.9,29.38,WSW,241,11.2,13.4,25,-99.99,,,0.00,0,rob ver 1B,2013-03-31 03:38:00,
2013-03-30 20:39:00,74.8,37.0,29.41,WSW,240,11.6,14.6,25,-99.99,,,0.00,0,rob ver 1B,2013-03-31 03:39:00,
2013-03-30 20:40:00,78.4,24.1,29.41,South,182,4.8,6.3,13,-99.99,,,0.00,0,rob ver 1A,2013-03-31 03:40:00,
2013-03-30 20:41:00,74.7,36.9,29.41,WSW,239,10.4,12.3,25,-99.99,,,0.00,0,rob ver 1B,2013-03-31 03:41:00,
2013-03-30 20:42:00,74.7,37.0,29.38,WSW,241,11.9,15.1,25,-99.99,,,0.00,0,rob ver 1B,2013-03-31 03:42:00,
2013-03-30 20:43:00,74.7,37.0,29.38,WSW,244,14.7,17.4,25,-99.99,,,0.00,0,rob ver 1B,2013-03-31 03:43:00,
2013-03-30 20:44:00,74.8,37.0,29.38,WSW,239,14.3,18.2,25,-99.99,,,0.00,0,rob ver 1B,2013-03-31 03:44:00,
2013-03-30 20:45:00,78.5,23.5,29.41,South,178,5.4,6.4,12,-99.99,,,0.00,0,rob ver 1A,2013-03-31 03:45:00,
2013-03-30 20:46:00,74.7,37.0,29.38,WSW,247,13.0,16.3,25,-99.99,,,0.00,0,rob ver 1B,2013-03-31 03:46:00,
2013-03-30 20:47:00,74.6,37.0,29.41,WSW,247,11.3,13.4,25,-99.99,,,0.00,0,rob ver 1B,2013-03-31 03:47:00,
2013-03-30 20:48:00,74.6,37.0,29.38,WSW,249,12.9,16.8,25,-99.99,,,0.00,0,rob ver 1B,2013-03-31 03:48:00,
2013-03-30 20:49:00,74.5,36.9,29.38,WSW,247,14.8,19.3,25,-99.99,,,0.00,0,rob ver 1B,2013-03-31 03:49:00,
2013-03-30 20:50:00,78.7,23.4,29.41,South,175,4.8,5.8,12,-99.99,,,0.00,0,rob ver 1A,2013-03-31 03:50:00,
2013-03-30 20:51:00,74.4,36.9,29.41,WSW,244,14.1,16.5,25,-99.99,,,0.00,0,rob ver 1B,2013-03-31 03:51:00,
2013-03-30 20:52:00,74.4,37.0,29.41,WSW,243,14.0,18.3,25,-99.99,,,0.00,0,rob ver 1B,2013-03-31 03:52:00,
2013-03-30 20:53:00,74.4,37.0,29.41,WSW,251,13.7,16.3,25,-99.99,,,0.00,0,rob ver 1B,2013-03-31 03:53:00,
2013-03-30 20:54:00,74.4,37.0,29.41,WSW,252,12.0,14.9,25,-99.99,,,0.00,0,rob ver 1B,2013-03-31 03:54:00,
2013-03-30 20:55:00,74.3,37.0,29.41,WSW,258,10.8,13.7,25,-99.99,,,0.00,0,rob ver 1B,2013-03-31 03:55:00,
2013-03-30 20:56:00,78.3,23.4,29.41,South,178,4.3,4.8,12,-99.99,,,0.00,0,rob ver 1A,2013-03-31 03:56:00,
2013-03-30 20:57:00,74.1,37.0,29.41,WSW,255,11.9,15.3,25,-99.99,,,0.00,0,rob ver 1B,2013-03-31 03:57:00,
2013-03-30 20:58:00,74.1,37.0,29.41,West,260,11.8,14.0,25,-99.99,,,0.00,0,rob ver 1B,2013-03-31 03:58:00,
2013-03-30 20:59:00,74.1,37.1,29.41,WSW,254,11.3,14.1,26,-99.99,,,0.00,0,rob ver 1B,2013-03-31 03:59:00,
2013-03-30 21:00:00,77.7,23.3,29.41,South,185,3.9,4.8,13,-99.99,,,0.00,0,rob ver 1A,2013-03-31 04:00:00,
2013-03-30 21:01:00,77.6,23.3,29.41,South,185,4.0,4.6,13,-99.99,,,0.00,0,rob ver 1A,2013-03-31 04:01:00,
2013-03-30 21:02:00,73.8,37.0,29.41,West,259,8.2,10.1,26,-99.99,,,0.00,0,rob ver 1B,2013-03-31 04:02:00,
2013-03-30 21:03:00,77.5,23.2,29.41,South,181,4.2,4.7,13,-99.99,,,0.00,0,rob ver 1A,2013-03-31 04:03:00,
2013-03-30 21:04:00,73.7,37.1,29.41,West,263,10.9,12.9,26,-99.99,,,0.00,0,rob ver 1B,2013-03-31 04:04:00,
2013-03-30 21:05:00,77.4,23.1,29.41,South,181,3.8,4.6,13,-99.99,,,0.00,0,rob ver 1A,2013-03-31 04:05:00,
2013-03-30 21:06:00,73.7,37.1,29.41,West,261,12.6,15.3,26,-99.99,,,0.00,0,rob ver 1B,2013-03-31 04:06:00,
2013-03-30 21:07:00,73.7,37.1,29.41,West,259,10.1,13.3,26,-99.99,,,0.00,0,rob ver 1B,2013-03-31 04:07:00,
2013-03-30 21:08:00,73.6,37.1,29.41,West,262,12.2,15.3,26,-99.99,,,0.00,0,rob ver 1B,2013-03-31 04:08:00,
2013-03-30 21:09:00,73.5,37.1,29.41,West,260,11.9,15.3,26,-99.99,,,0.00,0,rob ver 1B,2013-03-31 04:09:00,
2013-03-30 21:10:00,77.3,22.8,29.41,South,180,4.4,4.9,13,-99.99,,,0.00,0,rob ver 1A,2013-03-31 04:10:00,
2013-03-30 21:11:00,73.4,37.2,29.41,West,260,12.2,16.3,26,-99.99,,,0.00,0,rob ver 1B,2013-03-31 04:11:00,
2013-03-30 21:12:00,73.3,37.2,29.41,West,262,11.5,15.1,26,-99.99,,,0.00,0,rob ver 1B,2013-03-31 04:12:00,
2013-03-30 21:13:00,73.3,37.3,29.41,WSW,257,13.0,15.9,26,-99.99,,,0.00,0,rob ver 1B,2013-03-31 04:13:00,
2013-03-30 21:14:00,73.3,37.3,29.41,WSW,258,12.5,15.7,26,-99.99,,,0.00,0,rob ver 1B,2013-03-31 04:14:00,
2013-03-30 21:15:00,77.3,22.5,29.41,South,177,4.3,5.0,12,-99.99,,,0.00,0,rob ver 1A,2013-03-31 04:15:00,
2013-03-30 21:16:00,73.1,37.2,29.41,WSW,257,11.8,15.7,27,-99.99,,,0.00,0,rob ver 1B,2013-03-31 04:16:00,
2013-03-30 21:17:00,73.1,37.3,29.41,WSW,255,12.2,14.5,27,-99.99,,,0.00,0,rob ver 1B,2013-03-31 04:17:00,
2013-03-30 21:18:00,73.0,37.3,29.41,WSW,252,11.3,14.6,27,-99.99,,,0.00,0,rob ver 1B,2013-03-31 04:18:00,
2013-03-30 21:19:00,73.0,37.3,29.41,WSW,254,13.1,16.4,27,-99.99,,,0.00,0,rob ver 1B,2013-03-31 04:19:00,
2013-03-30 21:20:00,77.6,22.1,29.41,South,177,5.0,5.8,12,-99.99,,,0.00,0,rob ver 1A,2013-03-31 04:20:00,
2013-03-30 21:21:00,72.8,37.3,29.41,WSW,251,11.7,15.5,27,-99.99,,,0.00,0,rob ver 1B,2013-03-31 04:21:00,
2013-03-30 21:22:00,72.8,37.3,29.41,WSW,255,12.4,17.2,27,-99.99,,,0.00,0,rob ver 1B,2013-03-31 04:22:00,
2013-03-30 21:23:00,72.8,37.4,29.41,WSW,254,13.8,17.2,27,-99.99,,,0.00,0,rob ver 1B,2013-03-31 04:23:00,
2013-03-30 21:24:00,72.7,37.3,29.41,WSW,252,13.8,16.4,27,-99.99,,,0.00,0,rob ver 1B,2013-03-31 04:24:00,
2013-03-30 21:25:00,77.6,21.9,29.41,South,178,3.8,4.5,12,-99.99,,,0.00,0,rob ver 1A,2013-03-31 04:25:00,
2013-03-30 21:26:00,72.6,37.3,29.41,WSW,253,13.1,17.2,27,-99.99,,,0.00,0,rob ver 1B,2013-03-31 04:26:00,
2013-03-30 21:27:00,72.6,37.3,29.41,WSW,257,13.4,17.5,27,-99.99,,,0.00,0,rob ver 1B,2013-03-31 04:27:00,
2013-03-30 21:28:00,72.6,37.3,29.41,WSW,258,12.7,15.1,27,-99.99,,,0.00,0,rob ver 1B,2013-03-31 04:28:00,
2013-03-30 21:29:00,72.6,37.3,29.41,WSW,257,13.2,17.2,27,-99.99,,,0.00,0,rob ver 1B,2013-03-31 04:29:00,
2013-03-30 21:30:00,76.8,22.4,29.41,ESE,123,1.7,2.0,13,-99.99,,,0.00,0,rob ver 1A,2013-03-31 04:30:00,
2013-03-30 21:31:00,72.5,37.2,29.41,WSW,257,14.0,16.4,27,-99.99,,,0.00,0,rob ver 1B,2013-03-31 04:31:00,
2013-03-30 21:32:00,72.5,37.2,29.41,WSW,257,13.6,17.4,27,-99.99,,,0.00,0,rob ver 1B,2013-03-31 04:32:00,
2013-03-30 21:33:00,72.5,37.2,29.41,WSW,256,12.5,16.1,27,-99.99,,,0.00,0,rob ver 1B,2013-03-31 04:33:00,
2013-03-30 21:34:00,72.4,37.1,29.41,WSW,257,13.2,17.1,27,-99.99,,,0.00,0,rob ver 1B,2013-03-31 04:34:00,
2013-03-30 21:35:00,76.7,22.2,29.41,ESE,121,2.7,3.4,13,-99.99,,,0.00,0,rob ver 1A,2013-03-31 04:35:00,
2013-03-30 21:36:00,72.4,36.9,29.41,West,265,13.6,16.5,27,-99.99,,,0.00,0,rob ver 1B,2013-03-31 04:36:00,
2013-03-30 21:37:00,72.4,36.8,29.41,West,262,12.6,16.4,27,-99.99,,,0.00,0,rob ver 1B,2013-03-31 04:37:00,
2013-03-30 21:38:00,72.3,36.8,29.41,WSW,256,13.0,15.9,27,-99.99,,,0.00,0,rob ver 1B,2013-03-31 04:38:00,
2013-03-30 21:39:00,72.3,36.8,29.41,WSW,257,14.1,16.7,27,-99.99,,,0.00,0,rob ver 1B,2013-03-31 04:39:00,
2013-03-30 21:40:00,76.3,22.5,29.41,East,92,2.6,3.3,13,-99.99,,,0.00,0,rob ver 1A,2013-03-31 04:40:00,
2013-03-30 21:41:00,72.2,36.7,29.41,WSW,257,11.7,14.1,27,-99.99,,,0.00,0,rob ver 1B,2013-03-31 04:41:00,
2013-03-30 21:42:00,72.2,36.7,29.41,WSW,255,11.8,14.1,27,-99.99,,,0.00,0,rob ver 1B,2013-03-31 04:42:00,
2013-03-30 21:43:00,72.1,36.8,29.41,WSW,255,10.1,12.7,27,-99.99,,,0.00,0,rob ver 1B,2013-03-31 04:43:00,
2013-03-30 21:44:00,72.1,36.7,29.41,West,259,8.3,9.9,27,-99.99,,,0.00,0,rob ver 1B,2013-03-31 04:44:00,
2013-03-30 21:45:00,75.9,22.4,29.41,East,97,3.5,4.3,13,-99.99,,,0.00,0,rob ver 1A,2013-03-31 04:45:00,
2013-03-30 21:46:00,71.9,36.7,29.41,West,263,9.4,11.3,27,-99.99,,,0.00,0,rob ver 1B,2013-03-31 04:46:00,
2013-03-30 21:47:00,71.9,36.7,29.41,West,268,8.4,10.4,27,-99.99,,,0.00,0,rob ver 1B,2013-03-31 04:47:00,
2013-03-30 21:48:00,71.8,36.6,29.41,West,266,8.6,10.9,27,-99.99,,,0.00,0,rob ver 1B,2013-03-31 04:48:00,
2013-03-30 21:49:00,71.7,36.5,29.41,West,264,8.5,11.1,27,-99.99,,,0.00,0,rob ver 1B,2013-03-31 04:49:00,
2013-03-30 21:50:00,76.0,22.2,29.41,ESE,102,3.6,4.2,13,-99.99,,,0.00,0,rob ver 1A,2013-03-31 04:50:00,
2013-03-30 21:51:00,71.7,36.5,29.41,WSW,256,8.3,11.1,27,-99.99,,,0.00,0,rob ver 1B,2013-03-31 04:51:00,
2013-03-30 21:52:00,71.5,36.4,29.41,West,261,8.3,11.5,27,-99.99,,,0.00,0,rob ver 1B,2013-03-31 04:52:00,
2013-03-30 21:53:00,71.5,36.4,29.41,West,259,8.7,10.4,27,-99.99,,,0.00,0,rob ver 1B,2013-03-31 04:53:00,
2013-03-30 21:54:00,71.4,36.3,29.41,West,265,9.9,12.3,27,-99.99,,,0.00,0,rob ver 1B,2013-03-31 04:54:00,
2013-03-30 21:55:00,71.5,36.3,29.41,WSW,255,8.9,11.7,27,-99.99,,,0.00,0,rob ver 1B,2013-03-31 04:55:00,
2013-03-30 21:56:00,75.7,21.9,29.44,ESE,113,3.1,3.6,13,-99.99,,,0.00,0,rob ver 1A,2013-03-31 04:56:00,
2013-03-30 21:57:00,71.4,36.3,29.41,West,259,8.6,10.5,27,-99.99,,,0.00,0,rob ver 1B,2013-03-31 04:57:00,
2013-03-30 21:58:00,71.4,36.2,29.41,West,260,7.5,9.4,27,-99.99,,,0.00,0,rob ver 1B,2013-03-31 04:58:00,
2013-03-30 21:59:00,71.3,36.2,29.41,WSW,256,7.1,8.7,27,-99.99,,,0.00,0,rob ver 1B,2013-03-31 04:59:00,
2013-03-30 22:00:00,71.2,36.2,29.41,WSW,248,6.6,8.4,27,-99.99,,,0.00,0,rob ver 1B,2013-03-31 05:00:00,
2013-03-30 22:01:00,75.3,21.8,29.44,East,100,2.7,3.0,13,-99.99,,,0.00,0,rob ver 1A,2013-03-31 05:01:00,
2013-03-30 22:02:00,71.2,36.2,29.41,West,261,7.4,10.9,27,-99.99,,,0.00,0,rob ver 1B,2013-03-31 05:02:00,
2013-03-30 22:03:00,71.1,36.2,29.41,WSW,252,7.3,9.2,27,-99.99,,,0.00,0,rob ver 1B,2013-03-31 05:03:00,
2013-03-30 22:04:00,71.1,36.2,29.41,WSW,252,6.8,9.6,27,-99.99,,,0.00,0,rob ver 1B,2013-03-31 05:04:00,
2013-03-30 22:05:00,71.0,36.2,29.44,WSW,249,5.1,6.1,27,-99.99,,,0.00,0,rob ver 1B,2013-03-31 05:05:00,
2013-03-30 22:06:00,74.8,21.6,29.44,East,93,3.1,4.0,13,-99.99,,,0.00,0,rob ver 1A,2013-03-31 05:06:00,
2013-03-30 22:07:00,70.9,36.2,29.41,WSW,241,6.9,10.6,27,-99.99,,,0.00,0,rob ver 1B,2013-03-31 05:07:00,
2013-03-30 22:08:00,71.0,36.2,29.41,WSW,245,6.6,9.4,27,-99.99,,,0.00,0,rob ver 1B,2013-03-31 05:08:00,
2013-03-30 22:09:00,71.0,36.2,29.44,WSW,244,7.9,10.1,27,-99.99,,,0.00,0,rob ver 1B,2013-03-31 05:09:00,
2013-03-30 22:10:00,71.0,36.1,29.44,WSW,247,6.7,9.0,27,-99.99,,,0.00,0,rob ver 1B,2013-03-31 05:10:00,
2013-03-30 22:11:00,75.0,21.6,29.44,East,80,5.5,6.2,13,-99.99,,,0.00,0,rob ver 1A,2013-03-31 05:11:00,
2013-03-30 22:12:00,70.9,36.0,29.44,WSW,244,3.7,4.7,27,-99.99,,,0.00,0,rob ver 1B,2013-03-31 05:12:00,
2013-03-30 22:13:00,70.8,36.1,29.44,WSW,239,5.8,8.6,27,-99.99,,,0.00,0,rob ver 1B,2013-03-31 05:13:00,
2013-03-30 22:14:00,70.8,36.1,29.41,WSW,245,5.1,7.0,27,-99.99,,,0.00,0,rob ver 1B,2013-03-31 05:14:00,
2013-03-30 22:15:00,70.8,36.0,29.44,WSW,241,4.0,5.2,28,-99.99,,,0.00,0,rob ver 1B,2013-03-31 05:15:00,
2013-03-30 22:16:00,75.4,21.5,29.44,ESE,114,2.9,4.0,13,-99.99,,,0.00,0,rob ver 1A,2013-03-31 05:16:00,
2013-03-30 22:17:00,70.6,36.0,29.44,SW,236,3.8,4.4,28,-99.99,,,0.00,0,rob ver 1B,2013-03-31 05:17:00,
2013-03-30 22:18:00,70.6,36.0,29.44,WSW,247,3.3,4.5,27,-99.99,,,0.00,0,rob ver 1B,2013-03-31 05:18:00,
2013-03-30 22:19:00,70.6,36.0,29.44,West,273,2.6,4.0,28,-99.99,,,0.00,0,rob ver 1B,2013-03-31 05:19:00,
2013-03-30 22:20:00,70.6,36.0,29.44,WSW,246,6.9,9.7,27,-99.99,,,0.00,0,rob ver 1B,2013-03-31 05:20:00,
2013-03-30 22:21:00,74.7,21.8,29.44,South,187,6.4,9.4,13,-99.99,,,0.00,0,rob ver 1A,2013-03-31 05:21:00,
2013-03-30 22:22:00,70.7,35.9,29.44,WSW,239,6.6,9.0,27,-99.99,,,0.00,0,rob ver 1B,2013-03-31 05:22:00,
2013-03-30 22:23:00,70.7,35.9,29.41,SW,228,4.7,5.7,27,-99.99,,,0.00,0,rob ver 1B,2013-03-31 05:23:00,
2013-03-30 22:24:00,70.6,35.9,29.41,SW,221,4.2,5.7,27,-99.99,,,0.00,0,rob ver 1B,2013-03-31 05:24:00,
2013-03-30 22:25:00,70.6,35.9,29.41,SW,236,4.5,5.4,27,-99.99,,,0.00,0,rob ver 1B,2013-03-31 05:25:00,
2013-03-30 22:26:00,75.6,23.1,29.44,South,181,11.2,13.1,14,-99.99,,,0.00,0,rob ver 1A,2013-03-31 05:26:00,
2013-03-30 22:27:00,70.4,35.8,29.44,WSW,239,2.7,4.3,28,-99.99,,,0.00,0,rob ver 1B,2013-03-31 05:27:00,
2013-03-30 22:28:00,70.3,35.8,29.44,WSW,243,2.6,3.4,28,-99.99,,,0.00,0,rob ver 1B,2013-03-31 05:28:00,
2013-03-30 22:29:00,70.2,35.8,29.41,WSW,242,3.1,4.3,28,-99.99,,,0.00,0,rob ver 1B,2013-03-31 05:29:00,
2013-03-30 22:30:00,70.2,35.9,29.41,WSW,240,4.6,6.1,28,-99.99,,,0.00,0,rob ver 1B,2013-03-31 05:30:00,
2013-03-30 22:31:00,75.2,26.8,29.44,South,169,10.9,13.8,17,-99.99,,,0.00,0,rob ver 1A,2013-03-31 05:31:00,
2013-03-30 22:32:00,70.2,35.9,29.41,WSW,251,3.9,5.0,28,-99.99,,,0.00,0,rob ver 1B,2013-03-31 05:32:00,
2013-03-30 22:33:00,70.2,35.9,29.41,WSW,246,5.2,6.7,28,-99.99,,,0.00,0,rob ver 1B,2013-03-31 05:33:00,
2013-03-30 22:34:00,70.2,35.8,29.41,WSW,250,4.9,6.0,28,-99.99,,,0.00,0,rob ver 1B,2013-03-31 05:34:00,
2013-03-30 22:35:00,70.2,35.8,29.41,West,270,5.1,6.1,28,-99.99,,,0.00,0,rob ver 1B,2013-03-31 05:35:00,
2013-03-30 22:36:00,74.3,34.9,29.44,South,176,12.5,15.5,23,-99.99,,,0.00,0,rob ver 1A,2013-03-31 05:36:00,
2013-03-30 22:37:00,70.2,35.7,29.41,WSW,250,6.8,8.1,28,-99.99,,,0.00,0,rob ver 1B,2013-03-31 05:37:00,
2013-03-30 22:38:00,70.1,35.7,29.41,West,260,5.6,6.9,28,-99.99,,,0.00,0,rob ver 1B,2013-03-31 05:38:00,
2013-03-30 22:39:00,70.1,35.7,29.41,WSW,256,5.0,6.2,28,-99.99,,,0.00,0,rob ver 1B,2013-03-31 05:39:00,
2013-03-30 22:40:00,70.0,35.7,29.41,West,259,4.4,5.1,28,-99.99,,,0.00,0,rob ver 1B,2013-03-31 05:40:00,
2013-03-30 22:41:00,73.6,38.0,29.44,South,179,11.6,14.7,27,-99.99,,,0.00,0,rob ver 1A,2013-03-31 05:41:00,
2013-03-30 22:42:00,69.9,35.6,29.41,WSW,254,6.0,7.7,28,-99.99,,,0.00,0,rob ver 1B,2013-03-31 05:42:00,
2013-03-30 22:43:00,69.9,35.6,29.41,WSW,251,6.8,8.3,28,-99.99,,,0.00,0,rob ver 1B,2013-03-31 05:43:00,
2013-03-30 22:44:00,69.9,35.5,29.41,West,259,6.1,7.7,28,-99.99,,,0.00,0,rob ver 1B,2013-03-31 05:44:00,
2013-03-30 22:45:00,69.8,35.5,29.41,West,260,6.8,8.0,28,-99.99,,,0.00,0,rob ver 1B,2013-03-31 05:45:00,
2013-03-30 22:46:00,73.3,38.4,29.44,South,179,9.8,11.4,28,-99.99,,,0.00,0,rob ver 1A,2013-03-31 05:46:00,
2013-03-30 22:47:00,69.9,35.4,29.41,WSW,256,9.4,12.5,28,-99.99,,,0.00,0,rob ver 1B,2013-03-31 05:47:00,
2013-03-30 22:48:00,69.9,35.4,29.41,West,260,6.2,7.5,28,-99.99,,,0.00,0,rob ver 1B,2013-03-31 05:48:00,
2013-03-30 22:49:00,69.8,35.3,29.41,WSW,257,5.5,7.0,28,-99.99,,,0.00,0,rob ver 1B,2013-03-31 05:49:00,
2013-03-30 22:50:00,69.7,35.3,29.41,WSW,253,7.2,9.7,28,-99.99,,,0.00,0,rob ver 1B,2013-03-31 05:50:00,
2013-03-30 22:51:00,73.2,38.0,29.44,South,177,10.7,14.0,28,-99.99,,,0.00,0,rob ver 1A,2013-03-31 05:51:00,
2013-03-30 22:52:00,69.7,35.1,29.41,WSW,252,8.7,10.5,27,-99.99,,,0.00,0,rob ver 1B,2013-03-31 05:52:00,
2013-03-30 22:53:00,69.8,35.1,29.41,WSW,247,9.8,11.9,27,-99.99,,,0.00,0,rob ver 1B,2013-03-31 05:53:00,
2013-03-30 22:54:00,69.9,35.1,29.41,WSW,250,10.5,12.9,27,-99.99,,,0.00,0,rob ver 1B,2013-03-31 05:54:00,
2013-03-30 22:55:00,70.0,35.0,29.41,WSW,250,8.1,11.1,27,-99.99,,,0.00,0,rob ver 1B,2013-03-31 05:55:00,
2013-03-30 22:56:00,72.8,38.1,29.44,South,174,11.6,13.8,28,-99.99,,,0.00,0,rob ver 1A,2013-03-31 05:56:00,
2013-03-30 22:57:00,69.8,35.0,29.41,WSW,254,7.3,9.8,27,-99.99,,,0.00,0,rob ver 1B,2013-03-31 05:57:00,
2013-03-30 22:58:00,69.8,34.9,29.41,WSW,251,9.2,12.4,27,-99.99,,,0.00,0,rob ver 1B,2013-03-31 05:58:00,
2013-03-30 22:59:00,69.8,34.8,29.41,WSW,247,7.9,11.0,27,-99.99,,,0.00,0,rob ver 1B,2013-03-31 05:59:00,
2013-03-30 23:00:00,69.8,34.8,29.41,WSW,244,9.3,12.7,27,-99.99,,,0.00,0,rob ver 1B,2013-03-31 06:00:00,
2013-03-30 23:01:00,72.6,37.9,29.44,South,177,11.5,13.6,28,-99.99,,,0.00,0,rob ver 1A,2013-03-31 06:01:00,
2013-03-30 23:02:00,69.6,34.7,29.44,WSW,244,7.0,8.9,27,-99.99,,,0.00,0,rob ver 1B,2013-03-31 06:02:00,
2013-03-30 23:03:00,69.6,34.7,29.41,WSW,246,6.0,7.9,27,-99.99,,,0.00,0,rob ver 1B,2013-03-31 06:03:00,
2013-03-30 23:04:00,69.6,34.6,29.41,WSW,238,6.6,9.5,27,-99.99,,,0.00,0,rob ver 1B,2013-03-31 06:04:00,
2013-03-30 23:05:00,69.5,34.5,29.44,WSW,240,5.6,7.0,27,-99.99,,,0.00,0,rob ver 1B,2013-03-31 06:05:00,
2013-03-30 23:06:00,72.4,37.9,29.44,South,180,11.4,13.5,28,-99.99,,,0.00,0,rob ver 1A,2013-03-31 06:06:00,
2013-03-30 23:07:00,69.3,34.3,29.44,SW,232,4.9,6.9,27,-99.99,,,0.00,0,rob ver 1B,2013-03-31 06:07:00,
2013-03-30 23:08:00,69.3,34.2,29.44,SW,226,5.2,6.3,27,-99.99,,,0.00,0,rob ver 1B,2013-03-31 06:08:00,
2013-03-30 23:09:00,69.3,34.2,29.44,SW,227,5.2,6.4,27,-99.99,,,0.00,0,rob ver 1B,2013-03-31 06:09:00,
2013-03-30 23:10:00,69.3,34.2,29.44,SW,229,5.0,6.6,27,-99.99,,,0.00,0,rob ver 1B,2013-03-31 06:10:00,
2013-03-30 23:11:00,69.3,34.1,29.44,SW,227,4.5,6.2,27,-99.99,,,0.00,0,rob ver 1B,2013-03-31 06:11:00,
2013-03-30 23:12:00,72.2,37.9,29.44,South,179,9.9,11.9,28,-99.99,,,0.00,0,rob ver 1A,2013-03-31 06:12:00,
2013-03-30 23:13:00,69.2,34.0,29.44,WSW,248,4.3,6.0,27,-99.99,,,0.00,0,rob ver 1B,2013-03-31 06:13:00,
2013-03-30 23:14:00,69.1,33.9,29.44,WSW,249,3.9,4.8,27,-99.99,,,0.00,0,rob ver 1B,2013-03-31 06:14:00,
2013-03-30 23:15:00,69.1,33.8,29.44,WSW,255,3.6,4.8,26,-99.99,,,0.00,0,rob ver 1B,2013-03-31 06:15:00,
2013-03-30 23:16:00,69.0,33.7,29.44,WSW,254,3.0,4.7,26,-99.99,,,0.00,0,rob ver 1B,2013-03-31 06:16:00,
2013-03-30 23:17:00,72.0,37.8,29.44,South,176,9.2,10.5,28,-99.99,,,0.00,0,rob ver 1A,2013-03-31 06:17:00,
2013-03-30 23:18:00,69.0,33.5,29.44,West,267,2.9,3.5,26,-99.99,,,0.00,0,rob ver 1B,2013-03-31 06:18:00,
2013-03-30 23:19:00,68.8,33.3,29.41,WSW,256,2.7,3.5,26,-99.99,,,0.00,0,rob ver 1B,2013-03-31 06:19:00,
2013-03-30 23:20:00,68.8,33.3,29.41,WSW,255,2.3,3.0,26,-99.99,,,0.00,0,rob ver 1B,2013-03-31 06:20:00,
2013-03-30 23:21:00,68.7,33.4,29.44,West,272,1.5,1.9,26,-99.99,,,0.00,0,rob ver 1B,2013-03-31 06:21:00,
2013-03-30 23:22:00,71.8,37.7,29.44,South,173,7.9,9.2,28,-99.99,,,0.00,0,rob ver 1A,2013-03-31 06:22:00,
2013-03-30 23:23:00,68.6,33.4,29.44,SW,236,1.3,2.1,27,-99.99,,,0.00,0,rob ver 1B,2013-03-31 06:23:00,
2013-03-30 23:24:00,68.6,33.4,29.41,South,173,1.5,2.6,26,-99.99,,,0.00,0,rob ver 1B,2013-03-31 06:24:00,
2013-03-30 23:25:00,68.6,33.3,29.41,South,178,2.4,3.0,26,-99.99,,,0.00,0,rob ver 1B,2013-03-31 06:25:00,
2013-03-30 23:26:00,68.6,33.3,29.41,South,170,2.3,3.0,26,-99.99,,,0.00,0,rob ver 1B,2013-03-31 06:26:00,
2013-03-30 23:27:00,71.5,37.7,29.44,SSE,165,5.2,6.0,29,-99.99,,,0.00,0,rob ver 1A,2013-03-31 06:27:00,
2013-03-30 23:28:00,68.6,33.2,29.44,WSW,258,1.6,3.2,26,-99.99,,,0.00,0,rob ver 1B,2013-03-31 06:28:00,
2013-03-30 23:29:00,68.5,33.2,29.41,West,264,2.5,6.7,26,-99.99,,,0.00,0,rob ver 1B,2013-03-31 06:29:00,
2013-03-30 23:30:00,68.7,33.1,29.41,WSW,244,5.8,7.1,26,-99.99,,,0.00,0,rob ver 1B,2013-03-31 06:30:00,
2013-03-30 23:31:00,68.8,33.1,29.41,SW,222,3.8,4.9,26,-99.99,,,0.00,0,rob ver 1B,2013-03-31 06:31:00,
2013-03-30 23:32:00,71.1,37.6,29.44,SSE,162,4.1,5.0,29,-99.99,,,0.00,0,rob ver 1A,2013-03-31 06:32:00,
2013-03-30 23:33:00,68.8,33.1,29.44,SW,226,4.5,7.1,26,-99.99,,,0.00,0,rob ver 1B,2013-03-31 06:33:00,
2013-03-30 23:34:00,68.8,33.1,29.41,WSW,251,6.2,8.8,26,-99.99,,,0.00,0,rob ver 1B,2013-03-31 06:34:00,
2013-03-30 23:35:00,69.0,32.9,29.41,West,265,11.2,15.1,26,-99.99,,,0.00,0,rob ver 1B,2013-03-31 06:35:00,
2013-03-30 23:36:00,69.1,33.0,29.41,WSW,253,7.6,9.6,26,-99.99,,,0.00,0,rob ver 1B,2013-03-31 06:36:00,
2013-03-30 23:37:00,70.6,37.6,29.44,ESE,112,2.8,3.5,29,-99.99,,,0.00,0,rob ver 1A,2013-03-31 06:37:00,
2013-03-30 23:38:00,68.9,33.0,29.44,WSW,258,6.8,9.6,26,-99.99,,,0.00,0,rob ver 1B,2013-03-31 06:38:00,
2013-03-30 23:39:00,68.9,33.0,29.44,WSW,240,6.0,7.9,26,-99.99,,,0.00,0,rob ver 1B,2013-03-31 06:39:00,
2013-03-30 23:40:00,68.8,33.0,29.44,WSW,251,6.6,8.1,26,-99.99,,,0.00,0,rob ver 1B,2013-03-31 06:40:00,
2013-03-30 23:41:00,68.8,33.0,29.44,WSW,247,7.1,8.5,26,-99.99,,,0.00,0,rob ver 1B,2013-03-31 06:41:00,
2013-03-30 23:42:00,68.7,33.0,29.44,WSW,244,5.6,7.1,26,-99.99,,,0.00,0,rob ver 1B,2013-03-31 06:42:00,
2013-03-30 23:43:00,70.3,37.1,29.44,East,93,1.2,2.2,29,-99.99,,,0.00,0,rob ver 1A,2013-03-31 06:43:00,
2013-03-30 23:44:00,68.6,32.9,29.44,WSW,252,8.7,10.9,26,-99.99,,,0.00,0,rob ver 1B,2013-03-31 06:44:00,
2013-03-30 23:45:00,68.8,32.9,29.44,WSW,256,10.6,18.6,26,-99.99,,,0.00,0,rob ver 1B,2013-03-31 06:45:00,
2013-03-30 23:46:00,69.0,33.0,29.41,West,259,14.1,16.8,26,-99.99,,,0.00,0,rob ver 1B,2013-03-31 06:46:00,
2013-03-30 23:47:00,69.0,33.0,29.44,WSW,258,13.0,17.0,26,-99.99,,,0.00,0,rob ver 1B,2013-03-31 06:47:00,
2013-03-30 23:48:00,70.5,35.6,29.44,SE,141,4.0,4.9,27,-99.99,,,0.00,0,rob ver 1A,2013-03-31 06:48:00,
2013-03-30 23:49:00,69.0,33.1,29.44,WSW,251,13.6,17.2,26,-99.99,,,0.00,0,rob ver 1B,2013-03-31 06:49:00,
2013-03-30 23:50:00,68.9,33.2,29.44,WSW,255,12.3,16.9,26,-99.99,,,0.00,0,rob ver 1B,2013-03-31 06:50:00,
2013-03-30 23:51:00,68.8,33.2,29.41,WSW,251,10.9,14.2,26,-99.99,,,0.00,0,rob ver 1B,2013-03-31 06:51:00,
2013-03-30 23:52:00,68.6,33.2,29.44,WSW,253,10.5,13.3,27,-99.99,,,0.00,0,rob ver 1B,2013-03-31 06:52:00,
2013-03-30 23:53:00,70.3,34.6,29.44,SSE,153,3.3,5.1,26,-99.99,,,0.00,0,rob ver 1A,2013-03-31 06:53:00,
2013-03-30 23:54:00,68.3,33.4,29.44,WSW,251,10.8,13.5,27,-99.99,,,0.00,0,rob ver 1B,2013-03-31 06:54:00,
2013-03-30 23:55:00,68.2,33.4,29.44,WSW,251,9.1,12.1,27,-99.99,,,0.00,0,rob ver 1B,2013-03-31 06:55:00,
2013-03-30 23:56:00,68.1,33.4,29.44,WSW,248,9.4,12.5,27,-99.99,,,0.00,0,rob ver 1B,2013-03-31 06:56:00,
2013-03-30 23:57:00,68.1,33.4,29.44,WSW,251,9.2,12.6,27,-99.99,,,0.00,0,rob ver 1B,2013-03-31 06:57:00,
2013-03-30 23:58:00,70.4,34.4,29.44,SE,142,4.2,5.7,26,-99.99,,,0.00,0,rob ver 1A,2013-03-31 06:58:00,
2013-03-30 23:59:00,68.0,33.5,29.44,WSW,247,9.0,11.5,27,-99.99,,,0.00,0,rob ver 1B,2013-03-31 06:59:00,